Date StartTime U_cm/s V_cm/s W_cm/s Ustd_cm/s Vstd_cm/s Wstd_cm/s Uvar_(cm/s)^2 Vvar_(cm/s)^2 Wvar_(cm/s)^2 KE_(m/s)^2 TurbulentKE_(m/s)^2 HorizWindSpeed_cm/s FrictionSpeec_cm/s DragCoef SpeedOfSound_m/s SonicTemperature_C Pressure_mb 
05/24/2013  00:00:00      -16.519      -20.173        2.948       16.043        9.720        8.121      257.371       94.482       65.958        0.055        0.021       26.074        2.948        0.013      337.813       10.040      859.870
05/24/2013  00:01:00      -50.861       10.031        0.143        8.847        8.550        6.740       78.267       73.109       45.434        0.144        0.010       51.841        4.288        0.007      337.733        9.907      859.856
05/24/2013  00:02:00      -32.946       15.824       -6.149       10.998        5.823        4.649      120.961       33.912       21.616        0.078        0.009       36.549        3.861        0.011      337.725        9.894      859.834
05/24/2013  00:03:00      -24.881        8.446       -3.981       11.402        7.930        5.784      129.997       62.881       33.449        0.047        0.011       26.275        5.315        0.041      337.740        9.919      859.815
05/24/2013  00:04:00       -9.005        9.288       -2.299       11.623        6.583        5.885      135.085       43.330       34.638        0.019        0.011       12.937        6.364        0.242      337.725        9.893      859.797
05/24/2013  00:05:00       33.871       25.982        4.725       11.068        8.317        8.304      122.493       69.167       68.962        0.105        0.013       42.688        1.746        0.002      337.856       10.114      859.781
05/24/2013  00:06:00       30.330       20.463        4.191       11.600       13.990        9.835      134.559      195.721       96.719        0.089        0.021       36.587        6.219        0.029      337.789       10.000      859.764
05/24/2013  00:07:00       20.492       20.159        0.129       16.293       15.844       13.237      265.477      251.029      175.222        0.076        0.035       28.745       10.325        0.129      337.662        9.787      859.757
05/24/2013  00:08:00       11.382       36.877       -5.680       12.988        9.148        7.847      168.697       83.694       61.583        0.092        0.016       38.593        7.074        0.034      337.623        9.721      859.764
05/24/2013  00:09:00       19.760       61.123      -15.334       18.436       21.696       10.373      339.895      470.703      107.592        0.264        0.046       64.237       10.417        0.026      337.602        9.688      859.772
05/24/2013  00:10:00       -2.358       44.505       -7.321        9.074       11.404        7.143       82.340      130.054       51.026        0.115        0.013       44.567        4.424        0.010      337.656        9.776      859.783
05/24/2013  00:11:00       10.533        9.682       -0.987        6.230       25.770        9.639       38.817      664.101       92.909        0.050        0.040       14.307       14.649        1.048      337.683        9.821      859.779
05/24/2013  00:12:00      -34.156      -15.902       -4.968       25.767        9.239        9.096      663.915       85.354       82.729        0.114        0.042       37.676       11.841        0.099      337.584        9.656      859.768
05/24/2013  00:13:00      -57.210      -16.242       -7.152        7.437        9.123        5.881       55.307       83.222       34.585        0.188        0.009       59.471        2.175        0.001      337.622        9.721      859.750
05/24/2013  00:14:00      -35.686      -39.835        1.923       28.704       17.104       13.479      823.893      292.552      181.672        0.208        0.065       53.482       14.853        0.077      337.645        9.760      859.740
05/24/2013  00:15:00      -31.451      -43.892       -0.945       18.904       24.766       16.922      357.366      613.374      286.368        0.209        0.063       53.997       10.465        0.038      337.693        9.841      859.743
05/24/2013  00:16:00      -49.332      -38.478       -0.262       21.800       13.227       10.883      475.261      174.961      118.448        0.234        0.038       62.564       10.225        0.027      337.722        9.890      859.743
05/24/2013  00:17:00      -49.207      -50.023        2.997       20.974       18.275       18.377      439.892      333.959      337.729        0.302        0.056       70.169        9.782        0.019      337.724        9.891      859.738
05/24/2013  00:18:00      -61.317      -55.576       -5.564       17.670       20.343       13.913      312.231      413.847      193.569        0.390        0.046       82.755       11.639        0.020      337.787        9.996      859.711
05/24/2013  00:19:00      -64.527      -68.532       -6.457       29.246       21.473       20.842      855.302      461.096      434.379        0.533        0.088       94.129       15.741        0.028      337.810       10.035      859.684
05/24/2013  00:20:00     -102.910      -41.115       -3.832       23.892       18.090       12.332      570.818      327.233      152.086        0.667        0.053      110.819        9.846        0.008      337.734        9.908      859.653
05/24/2013  00:21:00      -91.261      -21.411       -5.842       37.028       19.540       15.496     1371.054      381.801      240.129        0.541        0.100       93.739       16.969        0.033      337.680        9.818      859.636
05/24/2013  00:22:00      -89.227      -42.308        2.186       27.992       21.484       14.967      783.577      461.583      224.001        0.561        0.073       98.749        6.894        0.005      337.646        9.759      859.627
05/24/2013  00:23:00      -93.050      -42.781       -3.227       16.671       16.380       10.631      277.916      268.292      113.023        0.558        0.033      102.414        4.438        0.002      337.681        9.818      859.629
05/24/2013  00:24:00      -75.459      -49.056        2.334       40.920       27.269       19.544     1674.471      743.607      381.974        0.545        0.140       90.003       17.717        0.039      337.607        9.696      859.646
05/24/2013  00:25:00      -44.389      -16.971        8.267       18.994       24.988       12.176      360.784      624.407      148.243        0.173        0.057       47.523       10.142        0.046      337.599        9.682      859.654
05/24/2013  00:26:00      -36.325      -25.152        5.076       27.113       22.867       17.142      735.095      522.887      293.843        0.176        0.078       44.183       15.535        0.124      337.536        9.575      859.638
05/24/2013  00:27:00      -26.955      -41.319        2.580       24.081       23.509       14.447      579.877      552.665      208.707        0.189        0.067       49.334        6.625        0.018      337.533        9.572      859.630
05/24/2013  00:28:00      -62.556      -43.555       -0.181       38.294       18.505       13.203     1466.440      342.424      174.311        0.390        0.099       76.225       10.340        0.018      337.532        9.570      859.609
05/24/2013  00:29:00      -68.460      -78.116        1.827       39.455       32.296       22.193     1556.709     1043.014      492.518        0.694        0.155      103.870       20.135        0.038      337.445        9.423      859.606
05/24/2013  00:30:00      -40.474      -96.552        5.164       23.405       49.093       17.464      547.775     2410.101      304.994        0.712        0.163      104.692       20.873        0.040      337.427        9.396      859.599
05/24/2013  00:31:00      -21.493     -111.493      -10.949       31.583       46.584       20.594      997.459     2170.087      424.122        0.830        0.180      113.546       19.284        0.029      337.463        9.453      859.586
05/24/2013  00:32:00      -15.076      -70.664       -2.834       20.040       26.768       17.208      401.585      716.515      296.103        0.332        0.071       72.255       10.759        0.022      337.458        9.443      859.579
05/24/2013  00:33:00      -17.112      -44.785       -1.076       38.839       24.519       17.045     1508.469      601.179      290.532        0.235        0.120       47.942       13.700        0.082      337.432        9.400      859.566
05/24/2013  00:34:00      -31.920      -49.753       -4.831       30.612       27.349       19.393      937.079      747.972      376.088        0.279        0.103       59.112       15.320        0.067      337.412        9.369      859.556
05/24/2013  00:35:00      -43.714      -41.393        1.544       23.728       30.682       19.549      563.016      941.387      382.169        0.276        0.094       60.202       18.047        0.090      337.372        9.302      859.548
05/24/2013  00:36:00      -25.939      -10.415        7.109       30.576       21.377       13.348      934.883      456.968      178.159        0.120        0.079       27.952       10.994        0.155      337.267        9.127      859.549
05/24/2013  00:37:00      -32.422      -34.789        8.481       29.606       22.154       17.227      876.538      490.795      296.779        0.200        0.083       47.555       16.414        0.119      337.272        9.132      859.551
05/24/2013  00:38:00      -24.436      -26.335        3.326       23.667       19.097       19.015      560.138      364.707      361.574        0.129        0.064       35.926       10.919        0.092      337.281        9.149      859.554
05/24/2013  00:39:00      -46.006      -12.597       -1.119       18.468       17.693        9.806      341.081      313.028       96.153        0.151        0.038       47.699        3.184        0.004      337.190        8.998      859.563
05/24/2013  00:40:00        2.312      -15.697       -0.311       26.140       16.029       16.791      683.306      256.932      281.947        0.074        0.061       15.866       16.304        1.056      337.147        8.926      859.562
05/24/2013  00:41:00      -18.929      -18.967        7.653       26.414       16.809       14.328      697.690      282.530      205.289        0.098        0.059       26.796       10.528        0.154      337.107        8.856      859.564
05/24/2013  00:42:00       -5.242      -20.650       -0.529       10.213       21.776        8.894      104.301      474.207       79.097        0.056        0.033       21.305        7.112        0.111      337.132        8.900      859.559
05/24/2013  00:43:00       -6.239      -11.598       -1.511       17.059       11.305        9.311      291.004      127.813       86.701        0.034        0.025       13.170        7.530        0.327      337.147        8.926      859.561
05/24/2013  00:44:00       -7.104       -6.488        2.015       17.359        7.233        9.017      301.331       52.322       81.315        0.027        0.022        9.621        4.235        0.194      337.092        8.830      859.566
05/24/2013  00:45:00      -15.201      -19.250        3.987       22.565       20.248       16.757      509.158      409.976      280.781        0.091        0.060       24.528       11.262        0.211      337.121        8.882      859.573
05/24/2013  00:46:00      -22.591      -19.948        1.968       31.720       19.019       14.310     1006.163      361.735      204.772        0.124        0.079       30.138        6.160        0.042      337.057        8.773      859.575
05/24/2013  00:47:00       -4.479      -12.814        4.469       27.892       13.263       19.640      777.960      175.915      385.724        0.077        0.067       13.574       14.334        1.115      336.998        8.674      859.585
05/24/2013  00:48:00       10.708      -16.083        3.778       27.550       25.438       16.942      759.010      647.091      287.030        0.104        0.085       19.322       15.381        0.634      336.989        8.658      859.596
05/24/2013  00:49:00      -53.269      -62.858        0.567       52.378       36.782       27.716     2743.412     1352.910      768.186        0.583        0.243       82.394       25.943        0.099      336.995        8.667      859.595
05/24/2013  00:50:00      -72.337      -72.496       -5.619       38.432       32.274       23.233     1477.025     1041.619      539.781        0.679        0.153      102.413       14.031        0.019      336.997        8.674      859.590
05/24/2013  00:51:00      -20.250      -47.703        5.600       23.287       26.496       21.057      542.306      702.014      443.410        0.220        0.084       51.823       18.411        0.126      337.016        8.705      859.586
05/24/2013  00:52:00      -71.053      -64.175       -9.833       31.186       44.190       18.726      972.537     1952.755      350.668        0.627        0.164       95.745       16.460        0.030      337.194        9.004      859.584
05/24/2013  00:53:00      -50.177      -33.902        3.960       40.282       24.323       18.740     1622.652      591.601      351.199        0.312        0.128       60.556        9.093        0.023      337.062        8.782      859.574
05/24/2013  00:54:00      -44.509      -54.377        5.151       54.840       43.549       21.410     3007.468     1896.499      458.402        0.516        0.268       70.270       25.393        0.131      337.046        8.755      859.575
05/24/2013  00:55:00     -114.222     -108.273      -11.102       36.595       39.571       27.370     1339.206     1565.847      749.135        1.427        0.183      157.385       21.992        0.020      337.032        8.732      859.578
05/24/2013  00:56:00      -95.300      -93.995        7.421       51.162       51.846       34.911     2617.561     2688.036     1218.750        1.225        0.326      133.855       27.916        0.043      336.977        8.642      859.572
05/24/2013  00:57:00     -103.148      -81.952       -5.151       44.035       35.354       22.750     1939.065     1249.873      517.559        1.054        0.185      131.740       21.012        0.025      336.942        8.582      859.561
05/24/2013  00:58:00      -93.921      -89.644       -2.969       36.424       34.667       27.473     1326.689     1201.792      754.788        1.007        0.164      129.835       14.664        0.013      336.888        8.491      859.567
05/24/2013  00:59:00     -105.119      -89.373      -12.026       50.756       31.489       18.932     2576.162      991.566      358.406        1.155        0.196      137.977       16.939        0.015      336.919        8.542      859.589
05/24/2013  01:00:00     -102.906      -84.836        1.281       42.492       48.488       26.548     1805.545     2351.055      704.794        1.132        0.243      133.367       27.039        0.041      336.814        8.368      859.600
05/24/2013  01:01:00      -98.211      -45.928        0.771       42.728       23.116       20.025     1825.695      534.371      401.013        0.726        0.138      108.419       20.505        0.036      336.834        8.402      859.604
05/24/2013  01:02:00      -76.541      -23.488       -4.740       47.550       24.622       20.093     2261.010      606.261      403.721        0.485        0.164       80.064       22.900        0.082      336.733        8.233      859.604
05/24/2013  01:03:00      -79.870        4.528       -2.922       43.476       33.612       25.664     1890.182     1129.781      658.624        0.504        0.184       79.998       26.718        0.112      336.441        7.744      859.608
05/24/2013  01:04:00      -85.776        1.312       -2.365       45.315       37.626       24.142     2053.486     1415.698      582.849        0.571        0.203       85.786       16.446        0.037      336.330        7.559      859.605
05/24/2013  01:05:00      -74.629      -20.922        3.936       34.880       40.332       21.603     1216.633     1626.634      466.672        0.467        0.165       77.506       19.558        0.064      336.294        7.498      859.604
05/24/2013  01:06:00      -54.970       -7.960        0.601       30.079       25.172       15.942      904.749      633.654      254.147        0.244        0.090       55.544        8.859        0.025      336.311        7.528      859.613
05/24/2013  01:07:00      -94.381      -30.563       -4.208       32.963       23.733       20.353     1086.589      563.241      414.232        0.596        0.103       99.207       20.578        0.043      336.430        7.729      859.628
05/24/2013  01:08:00     -101.369      -38.698      -13.708       17.521       15.809       15.717      306.980      249.915      247.014        0.638        0.040      108.505        9.762        0.008      336.498        7.840      859.634
05/24/2013  01:09:00     -112.983      -51.276       -4.322       21.942       25.165       14.800      481.463      633.254      219.029        0.837        0.067      124.074       12.203        0.010      336.496        7.837      859.626
05/24/2013  01:10:00     -119.793      -26.477       -7.628       32.740       28.905       15.701     1071.932      835.482      246.535        0.863        0.108      122.684       16.516        0.018      336.279        7.474      859.620
05/24/2013  01:11:00     -119.602      -17.059        1.200       39.094       38.768       24.509     1528.329     1502.948      600.700        0.911        0.182      120.813       21.366        0.031      336.185        7.316      859.617
05/24/2013  01:12:00     -126.084      -42.141        2.165       54.934       50.692       20.807     3017.779     2569.635      432.928        1.185        0.301      132.940       15.955        0.014      336.273        7.465      859.608
05/24/2013  01:13:00     -131.795      -61.985       -0.862       48.064       35.085       21.911     2310.128     1230.968      480.080        1.262        0.201      145.643       16.749        0.013      336.293        7.497      859.596
05/24/2013  01:14:00     -160.598      -83.575       -4.723       50.676       39.673       28.297     2568.076     1573.926      800.731        1.887        0.247      181.042       27.845        0.024      336.204        7.347      859.594
05/24/2013  01:15:00     -138.008      -48.595       -4.310       32.709       24.684       19.424     1069.856      609.294      377.311        1.174        0.103      146.314       17.624        0.015      336.196        7.336      859.592
05/24/2013  01:16:00      -95.947      -54.089       -2.009       35.038       35.698       19.640     1227.655     1274.323      385.728        0.751        0.144      110.143       18.915        0.029      336.198        7.338      859.587
05/24/2013  01:17:00      -67.653      -38.000        0.174       57.313       25.636       23.834     3284.802      657.215      568.061        0.526        0.226       77.595       25.080        0.104      336.199        7.340      859.583
05/24/2013  01:18:00      -71.666      -31.893        1.532       42.425       24.454       20.544     1799.840      597.982      422.043        0.449        0.141       78.443       14.063        0.032      336.147        7.251      859.581
05/24/2013  01:19:00      -89.927      -23.578       -8.389       17.314       22.361       15.752      299.770      500.016      248.127        0.488        0.052       92.966        8.573        0.009      336.209        7.358      859.578
05/24/2013  01:20:00      -91.423      -29.667      -11.457       33.783       31.931       19.344     1141.262     1019.586      374.202        0.595        0.127       96.116       19.609        0.042      336.113        7.197      859.585
05/24/2013  01:21:00     -102.828       -9.035       -0.476       35.798       41.642       24.945     1281.507     1734.072      622.231        0.715        0.182      103.225       23.559        0.052      336.022        7.045      859.594
05/24/2013  01:22:00      -68.053      -61.758       -6.362       37.998       24.595       22.008     1443.829      604.925      484.350        0.551        0.127       91.898       20.264        0.049      336.031        7.059      859.584
05/24/2013  01:23:00     -111.402      -49.547      -13.793       22.458       25.981       14.487      504.380      674.994      209.864        0.822        0.069      121.924       12.055        0.010      336.045        7.084      859.582
05/24/2013  01:24:00      -69.645      -53.297        2.322       56.037       28.569       25.433     3140.100      816.207      646.841        0.615        0.230       87.698       27.145        0.096      336.063        7.112      859.557
05/24/2013  01:25:00     -131.275      -49.474      -15.756       28.286       21.040       19.911      800.072      442.700      396.437        1.078        0.082      140.288       16.679        0.014      336.020        7.042      859.543
05/24/2013  01:26:00     -125.568        5.989       -8.372       40.196       26.182       21.930     1615.737      685.486      480.923        0.933        0.139      125.711       21.100        0.028      335.968        6.956      859.525
05/24/2013  01:27:00     -114.824      -13.418       -1.791       47.783       33.971       26.380     2283.182     1154.011      695.911        0.875        0.207      115.605       28.476        0.061      335.850        6.759      859.498
05/24/2013  01:28:00      -82.963      -30.446        0.899       47.682       35.260       21.530     2273.610     1243.272      463.552        0.589        0.199       88.373       22.818        0.067      335.852        6.762      859.482
05/24/2013  01:29:00     -128.434      -27.659       -2.023       47.829       36.238       23.917     2287.659     1313.227      571.999        1.072        0.209      131.379       24.478        0.035      335.836        6.734      859.463
05/24/2013  01:30:00     -137.107      -19.403       -8.750       47.915       26.706       22.797     2295.883      713.198      519.683        1.139        0.176      138.473       24.726        0.032      335.861        6.777      859.458
05/24/2013  01:31:00     -114.828      -26.487       -2.477       34.790       24.597       18.836     1210.359      605.029      354.799        0.803        0.109      117.844       18.321        0.024      335.897        6.837      859.443
05/24/2013  01:32:00     -119.550      -13.381      -10.439       26.886       28.156       18.115      722.844      792.780      328.169        0.821        0.092      120.297       14.848        0.015      335.902        6.844      859.428
05/24/2013  01:33:00      -67.586      -12.422        3.165       36.303       28.697       18.635     1317.920      823.519      347.246        0.361        0.124       68.718       19.085        0.077      335.773        6.631      859.432
05/24/2013  01:34:00      -77.735        5.690       -4.552       26.828       24.880       20.286      719.747      619.006      411.504        0.392        0.088       77.943       13.811        0.031      335.750        6.592      859.415
05/24/2013  01:35:00     -111.654       10.003      -13.499       37.789       29.008       17.788     1427.991      841.476      316.400        0.767        0.129      112.101       14.407        0.017      335.730        6.558      859.414
05/24/2013  01:36:00     -159.052        8.544      -22.084       29.366       20.726       11.982      862.388      429.577      143.570        1.365        0.072      159.282        7.143        0.002      335.698        6.503      859.422
05/24/2013  01:37:00     -119.009       -6.375      -16.202       29.309       28.944       19.460      859.032      837.784      378.699        0.827        0.104      119.180       12.421        0.011      335.709        6.524      859.409
05/24/2013  01:38:00     -154.329       -2.698      -15.389       49.245       33.151       24.632     2425.110     1098.993      606.717        1.410        0.207      154.353       20.710        0.018      335.629        6.391      859.415
05/24/2013  01:39:00     -141.453       16.640      -13.075       38.372       37.293       24.831     1472.416     1390.753      616.559        1.197        0.174      142.428       20.703        0.021      335.578        6.304      859.408
05/24/2013  01:40:00     -102.537      -13.560      -14.525       34.845       46.916       22.887     1214.179     2201.065      523.817        0.742        0.197      103.429       10.167        0.010      335.602        6.347      859.407
05/24/2013  01:41:00     -113.478       -6.622       -5.948       40.850       37.819       24.699     1668.691     1430.302      610.064        0.833        0.185      113.671       20.456        0.032      335.617        6.372      859.414
05/24/2013  01:42:00      -99.149      -22.535        4.249       49.063       61.621       30.572     2407.141     3797.133      934.646        0.875        0.357      101.678       28.771        0.080      335.611        6.361      859.409
05/24/2013  01:43:00     -142.674      -15.455       -3.484       50.396       42.000       28.476     2539.751     1763.978      810.898        1.286        0.256      143.509       24.789        0.030      335.579        6.307      859.413
05/24/2013  01:44:00     -116.819      -27.740       -1.336       56.111       45.468       26.238     3148.460     2067.298      688.418        1.016        0.295      120.068       22.915        0.036      335.608        6.355      859.415
05/24/2013  01:45:00     -122.900      -66.945        2.593       42.093       34.469       19.410     1771.850     1188.131      376.759        1.146        0.167      139.950       18.907        0.018      335.586        6.320      859.434
05/24/2013  01:46:00      -74.692      -62.027       -2.527       55.217       40.514       24.859     3048.919     1641.371      617.962        0.737        0.265       97.089       20.028        0.043      335.718        6.540      859.471
05/24/2013  01:47:00      -58.935      -58.369       -2.900       41.319       35.304       19.455     1707.244     1246.355      378.487        0.511        0.167       82.948       17.984        0.047      335.867        6.786      859.496
05/24/2013  01:48:00      -75.380      -82.910       -1.430       39.266       36.995       22.832     1541.836     1368.662      521.302        0.799        0.172      112.054       12.462        0.012      335.943        6.914      859.529
05/24/2013  01:49:00      -88.097      -60.411       -4.649       60.707       39.979       26.540     3685.309     1598.346      704.345        0.871        0.299      106.820       35.628        0.111      335.847        6.753      859.533
05/24/2013  01:50:00     -111.850      -88.906       -4.369       26.607       29.963       15.659      707.926      897.758      245.209        1.114        0.093      142.879       10.583        0.005      335.805        6.683      859.532
05/24/2013  01:51:00     -102.321      -64.718        0.433       55.128       45.402       28.090     3039.127     2061.305      789.039        1.027        0.294      121.070       28.572        0.056      335.821        6.710      859.517
05/24/2013  01:52:00     -104.399      -89.114       -0.809       52.785       35.380       23.858     2786.223     1251.731      569.187        1.172        0.230      137.260       26.425        0.037      335.821        6.709      859.496
05/24/2013  01:53:00     -127.458      -61.716       -4.026       42.762       43.906       21.226     1828.598     1927.760      450.540        1.214        0.210      141.614       16.251        0.013      335.858        6.771      859.481
05/24/2013  01:54:00      -98.254      -16.928        0.400       43.954       27.483       21.279     1931.967      755.331      452.798        0.654        0.157       99.702       20.642        0.043      335.790        6.659      859.455
05/24/2013  01:55:00     -120.842      -10.019      -10.045       35.758       29.413       21.033     1278.619      865.109      442.375        0.869        0.129      121.257       19.990        0.027      335.837        6.737      859.421
05/24/2013  01:56:00     -138.062      -17.341       -4.663       41.101       25.418       23.562     1689.314      646.056      555.176        1.114        0.145      139.147       24.473        0.031      335.697        6.503      859.405
05/24/2013  01:57:00     -152.789       -8.952       -8.682       45.323       35.111       25.945     2054.187     1232.783      673.130        1.373        0.198      153.051       20.772        0.018      335.597        6.339      859.374
05/24/2013  01:58:00     -164.811        8.103      -17.679       17.375       21.660       13.971      301.894      469.173      195.184        1.425        0.048      165.011        4.944        0.001      335.706        6.520      859.365
05/24/2013  01:59:00     -129.149        2.448      -10.909       46.396       28.575       24.635     2152.617      816.554      606.905        1.019        0.179      129.173       27.398        0.045      335.727        6.553      859.362
05/24/2013  02:00:00     -123.011      -19.020       -6.365       21.096       36.733       16.387      445.039     1349.330      268.535        0.880        0.103      124.473        8.668        0.005      335.719        6.542      859.365
05/24/2013  02:01:00     -146.142      -17.535      -13.844       34.985       28.517       19.188     1223.974      813.234      368.179        1.213        0.120      147.190       19.293        0.017      335.727        6.554      859.373
05/24/2013  02:02:00     -155.413      -43.464      -18.440       29.686       27.751       14.681      881.270      770.123      215.544        1.412        0.093      161.376       15.501        0.009      335.718        6.539      859.390
05/24/2013  02:03:00      -93.466      -67.261       -3.637       38.116       22.066       18.969     1452.803      486.893      359.810        0.779        0.115      115.151       19.646        0.029      335.728        6.556      859.404
05/24/2013  02:04:00      -23.077      -68.170        8.810       35.620       38.795       26.502     1268.800     1505.066      702.360        0.437        0.174       71.970       20.979        0.085      335.891        6.826      859.423
05/24/2013  02:05:00      -40.985      -65.804       -0.055       36.377       33.540       27.549     1323.319     1124.924      758.965        0.461        0.160       77.524       15.168        0.038      335.907        6.852      859.435
05/24/2013  02:06:00     -105.837      -84.565       -8.433       57.104       41.039       24.641     3260.877     1684.214      607.171        1.199        0.278      135.472       14.867        0.012      335.854        6.765      859.434
05/24/2013  02:07:00     -115.039      -93.017       -3.461       66.882       47.692       33.093     4473.200     2274.524     1095.177        1.487        0.392      147.940       27.568        0.035      335.794        6.665      859.436
05/24/2013  02:08:00     -141.146     -107.964        1.922       59.296       51.851       38.517     3516.049     2688.518     1483.570        1.963        0.384      177.703       34.209        0.037      335.722        6.543      859.445
05/24/2013  02:09:00     -101.911     -102.481        1.275       69.649       77.301       38.422     4850.972     5975.464     1476.265        1.659        0.615      144.527       37.171        0.066      335.789        6.655      859.436
05/24/2013  02:10:00     -102.850      -95.492       -0.693       63.763       49.738       29.488     4065.705     2473.842      869.566        1.355        0.370      140.345       32.693        0.054      335.861        6.775      859.438
05/24/2013  02:11:00      -87.272      -94.190        5.352       53.423       49.983       30.202     2853.987     2498.299      912.173        1.139        0.313      128.406       24.395        0.036      335.777        6.638      859.441
05/24/2013  02:12:00      -85.854      -74.681        3.379       44.811       44.632       23.508     2007.991     1991.993      552.638        0.876        0.228      113.790       22.130        0.038      335.809        6.690      859.443
05/24/2013  02:13:00     -110.911      -88.647       -7.109       32.270       30.654       20.417     1041.381      939.686      416.838        1.130        0.120      141.984       14.965        0.011      335.811        6.694      859.460
05/24/2013  02:14:00      -90.735      -54.765      -15.372       23.494       23.273       20.952      551.949      541.618      438.987        0.650        0.077      105.982        9.985        0.009      335.785        6.649      859.461
05/24/2013  02:15:00      -57.045      -72.008       -7.608       26.544       21.884       17.388      704.610      478.924      302.356        0.499        0.074       91.865       11.354        0.015      335.837        6.736      859.459
05/24/2013  02:16:00      -14.867      -40.635        2.936       20.612       26.007       16.887      424.874      676.382      285.161        0.163        0.069       43.269       18.925        0.191      335.839        6.739      859.466
05/24/2013  02:17:00      -56.407      -51.963        7.520       50.505       36.046       23.792     2550.718     1299.323      566.045        0.518        0.221       76.693       21.846        0.081      335.762        6.614      859.453
05/24/2013  02:18:00     -112.103      -71.730       -0.489       48.584       44.465       26.315     2360.369     1977.108      692.465        1.137        0.251      133.087       25.832        0.038      335.753        6.596      859.449
05/24/2013  02:19:00     -105.500      -79.163        0.775       42.584       23.626       28.508     1813.408      558.193      812.694        1.029        0.159      131.898       27.498        0.043      335.704        6.516      859.448
05/24/2013  02:20:00      -99.635      -46.967       -7.962       31.037       18.827       15.861      963.311      354.456      251.560        0.688        0.078      110.150        6.823        0.004      335.692        6.497      859.435
05/24/2013  02:21:00      -96.556      -54.145       -5.761       26.461       28.378       18.520      700.206      805.311      343.008        0.707        0.092      110.701       13.353        0.015      335.693        6.496      859.420
05/24/2013  02:22:00     -133.036      -13.055       -5.943       32.612       29.282       22.145     1063.528      857.432      490.395        1.016        0.121      133.675       18.545        0.019      335.613        6.362      859.398
05/24/2013  02:23:00     -118.533      -34.856        2.949       37.418       25.364       16.893     1400.140      643.342      285.372        0.880        0.116      123.552       15.586        0.016      335.496        6.168      859.385
05/24/2013  02:24:00     -143.706      -48.482        1.831       26.282       35.685       17.878      690.730     1273.438      319.635        1.264        0.114      151.664       11.496        0.006      335.547        6.254      859.374
05/24/2013  02:25:00     -105.565      -62.639        1.913       46.679       32.286       21.504     2178.890     1042.382      462.430        0.938        0.184      122.750       20.708        0.028      335.621        6.377      859.383
05/24/2013  02:26:00     -126.986      -52.046       -0.611       31.782       28.196       17.909     1010.110      795.026      320.743        1.048        0.106      137.238       15.574        0.013      335.585        6.319      859.366
05/24/2013  02:27:00     -112.298      -45.884       -4.022       33.060       32.655       17.528     1092.984     1066.372      307.225        0.860        0.123      121.310       16.201        0.018      335.589        6.323      859.352
05/24/2013  02:28:00     -103.192        7.564       -8.376       38.775       34.205       22.704     1503.498     1169.974      515.459        0.698        0.159      103.468       19.909        0.037      335.432        6.061      859.357
05/24/2013  02:29:00     -113.171      -18.674      -12.023       30.493       17.901       16.239      929.805      320.454      263.702        0.741        0.076      114.701       16.631        0.021      335.430        6.058      859.365
05/24/2013  02:30:00     -116.207      -24.991      -15.884       39.063       40.671       18.385     1525.904     1654.128      338.005        0.895        0.176      118.864       18.672        0.025      335.403        6.012      859.374
05/24/2013  02:31:00     -151.990      -27.335       -9.606       48.985       28.464       19.878     2399.525      810.203      395.150        1.377        0.180      154.428       17.044        0.012      335.347        5.921      859.376
05/24/2013  02:32:00     -111.849      -33.051       -3.948       36.563       31.855       23.560     1336.850     1014.711      555.083        0.826        0.145      116.630       22.508        0.037      335.264        5.782      859.380
05/24/2013  02:33:00     -105.961        1.648       -9.976       44.753       30.374       23.642     2002.843      922.568      558.947        0.741        0.174      105.974       23.585        0.050      335.268        5.788      859.367
05/24/2013  02:34:00     -142.574      -10.497      -20.277       39.715       29.965       21.879     1577.253      897.921      478.710        1.190        0.148      142.960       20.179        0.020      335.232        5.727      859.374
05/24/2013  02:35:00     -138.709      -21.196      -18.719       34.542       38.525       18.334     1193.149     1484.140      336.138        1.153        0.151      140.319       16.412        0.014      335.249        5.756      859.384
05/24/2013  02:36:00     -176.010       -0.962      -19.589       42.055       31.671       19.008     1768.610     1003.029      361.315        1.725        0.157      176.013       18.866        0.011      335.121        5.546      859.391
05/24/2013  02:37:00      -82.163      -28.373       -2.792       48.534       39.231       24.682     2355.545     1539.089      609.196        0.603        0.225       86.924       22.749        0.068      335.121        5.544      859.387
05/24/2013  02:38:00     -114.591      -22.331      -13.604       34.706       27.006       20.184     1204.504      729.300      407.407        0.808        0.117      116.747       19.097        0.027      335.144        5.584      859.390
05/24/2013  02:39:00     -121.217      -47.046       -8.065       25.174       28.232       14.893      633.745      797.035      221.787        0.931        0.083      130.026       11.916        0.008      335.134        5.568      859.382
05/24/2013  02:40:00     -129.158        5.474      -16.666       43.336       26.784       19.939     1878.001      717.362      397.546        0.999        0.150      129.274       16.124        0.016      335.120        5.545      859.359
05/24/2013  02:41:00     -151.230      -13.120       -9.805       69.745       39.314       26.005     4864.386     1545.606      676.261        1.511        0.354      151.798       28.663        0.036      335.101        5.511      859.342
05/24/2013  02:42:00     -153.467        0.587      -12.604       65.671       31.812       22.763     4312.705     1011.978      518.161        1.478        0.292      153.468       27.868        0.033      335.082        5.481      859.325
05/24/2013  02:43:00     -144.780        3.898       -5.235       44.887       45.549       23.584     2014.863     2074.756      556.197        1.282        0.232      144.832       19.455        0.018      335.046        5.420      859.300
05/24/2013  02:44:00     -132.449      -45.849       -7.488       45.581       37.344       23.317     2077.664     1394.558      543.699        1.186        0.201      140.160       23.293        0.028      335.099        5.509      859.280
05/24/2013  02:45:00     -148.934      -42.044      -18.591       42.516       31.972       19.002     1807.630     1022.206      361.060        1.374        0.160      154.755       18.613        0.014      335.147        5.589      859.271
05/24/2013  02:46:00      -87.033      -54.246       -2.752       35.138       23.121       20.530     1234.702      534.601      421.469        0.636        0.110      102.554       13.659        0.018      335.172        5.627      859.270
05/24/2013  02:47:00     -114.528      -38.815       -0.299       27.423       36.703       22.028      752.026     1347.096      485.226        0.860        0.129      120.927       16.349        0.018      335.171        5.628      859.257
05/24/2013  02:48:00      -96.366      -56.510        0.256       38.822       28.417       21.360     1507.175      807.527      456.235        0.762        0.139      111.713       18.164        0.026      335.190        5.658      859.255
05/24/2013  02:49:00      -99.736      -64.270        0.826       37.305       30.821       24.479     1391.678      949.942      599.197        0.851        0.147      118.650       23.498        0.039      335.233        5.728      859.244
05/24/2013  02:50:00     -114.078      -44.583       -2.643       31.732       25.252       19.792     1006.922      637.650      391.711        0.852        0.102      122.480       17.804        0.021      335.243        5.745      859.248
05/24/2013  02:51:00     -125.264      -46.091       -7.839       24.451       32.187       18.750      597.838     1035.982      351.550        0.993        0.099      133.475       14.499        0.012      335.269        5.788      859.252
05/24/2013  02:52:00     -124.392      -59.441       -5.415       41.963       32.950       20.788     1760.907     1085.683      432.144        1.116        0.164      137.865       17.386        0.016      335.220        5.709      859.234
05/24/2013  02:53:00     -152.732      -54.972       -0.612       49.222       28.713       21.558     2422.803      824.456      464.751        1.503        0.186      162.324       23.108        0.020      335.096        5.503      859.220
05/24/2013  02:54:00     -133.898      -58.490       -5.584       28.936       33.454       18.042      837.297     1119.154      325.500        1.183        0.114      146.116       16.947        0.013      335.057        5.439      859.219
05/24/2013  02:55:00      -95.415      -63.218       -0.708       47.250       30.370       20.799     2232.602      922.316      432.595        0.834        0.179      114.457       22.502        0.039      334.985        5.321      859.230
05/24/2013  02:56:00     -128.999      -60.116       -4.861       42.539       33.985       21.479     1809.561     1154.999      461.367        1.185        0.171      142.319       10.782        0.006      335.020        5.378      859.238
05/24/2013  02:57:00      -61.650      -66.338       -5.990       53.789       37.317       24.423     2893.274     1392.527      596.492        0.656        0.244       90.561       24.115        0.071      335.095        5.502      859.242
05/24/2013  02:58:00      -86.557      -54.934       -2.043       55.312       43.020       28.017     3059.366     1850.719      784.968        0.810        0.285      102.517       24.606        0.058      335.061        5.446      859.259
05/24/2013  02:59:00     -127.459      -62.151        6.158       75.778       46.797       32.686     5742.241     2190.000     1068.404        1.457        0.450      141.804       38.182        0.073      334.977        5.305      859.259
05/24/2013  03:00:00     -163.228      -79.059       -1.970       35.647       26.584       19.525     1270.723      706.728      381.239        1.763        0.118      181.366       12.424        0.005      334.999        5.342      859.253
05/24/2013  03:01:00      -84.739      -53.141       -0.335       43.498       38.016       25.665     1892.106     1445.238      658.673        0.700        0.200      100.023       15.314        0.023      335.017        5.372      859.263
05/24/2013  03:02:00     -111.596      -47.871       -9.076       45.522       44.980       24.775     2072.263     2023.204      613.781        0.977        0.235      121.430       22.482        0.034      335.047        5.421      859.265
05/24/2013  03:03:00     -104.788      -36.201       -5.674       43.042       35.513       22.123     1852.626     1261.204      489.441        0.796        0.180      110.865       15.948        0.021      335.115        5.537      859.265
05/24/2013  03:04:00      -77.328      -36.167        3.585       54.975       37.037       27.032     3022.268     1371.732      730.753        0.621        0.256       85.368       32.713        0.147      335.111        5.529      859.264
05/24/2013  03:05:00     -192.405      -27.630      -14.807       41.253       52.475       28.203     1701.843     2753.629      795.384        2.163        0.263      194.378       25.719        0.018      335.104        5.516      859.275
05/24/2013  03:06:00     -169.791      -39.845       -7.856       71.265       38.344       27.982     5078.694     1470.267      782.997        1.890        0.367      174.404       28.292        0.026      335.135        5.565      859.279
05/24/2013  03:07:00     -177.319      -64.481       -2.706       49.331       47.567       25.914     2433.515     2262.632      671.532        2.049        0.268      188.679       22.608        0.014      335.112        5.528      859.287
05/24/2013  03:08:00     -155.133      -66.567       -4.447       59.028       35.743       29.732     3484.307     1277.577      883.968        1.708        0.282      168.812       24.241        0.021      335.226        5.719      859.300
05/24/2013  03:09:00     -109.244      -45.811       -6.980       50.147       41.952       27.858     2514.677     1759.999      776.044        0.957        0.253      118.460       24.498        0.043      335.299        5.840      859.297
05/24/2013  03:10:00     -105.780      -68.002       -2.870       60.542       52.126       28.193     3665.281     2717.104      794.860        1.150        0.359      125.753       23.999        0.036      335.422        6.045      859.285
05/24/2013  03:11:00      -99.101      -49.738        1.236       49.921       36.983       24.730     2492.093     1367.756      611.568        0.838        0.224      110.882       23.686        0.046      335.380        5.974      859.284
05/24/2013  03:12:00      -76.792      -62.474       -1.892       43.982       35.534       21.160     1934.373     1262.669      447.745        0.672        0.182       98.995       20.831        0.044      335.366        5.952      859.263
05/24/2013  03:13:00     -107.404      -66.376       -4.546       41.359       21.387       13.974     1710.562      457.390      195.263        0.916        0.118      126.260       17.001        0.018      335.443        6.081      859.247
05/24/2013  03:14:00     -103.279      -92.537        1.353       42.678       35.808       31.409     1821.370     1282.203      986.502        1.166        0.205      138.671       26.079        0.035      335.436        6.068      859.241
05/24/2013  03:15:00      -91.977      -76.189       -2.453       40.522       32.613       24.240     1642.008     1063.592      587.592        0.878        0.165      119.434       24.994        0.044      335.372        5.961      859.224
05/24/2013  03:16:00      -96.653      -55.438       -5.363       40.314       24.676       20.221     1625.214      608.927      408.896        0.754        0.132      111.424       21.137        0.036      335.466        6.118      859.217
05/24/2013  03:17:00      -69.712      -63.983        4.175       44.943       36.251       22.466     2019.844     1314.158      504.732        0.640        0.192       94.623       22.820        0.058      335.439        6.075      859.225
05/24/2013  03:18:00     -118.417       -9.792      -10.370       50.274       30.912       20.697     2527.442      955.551      428.378        0.907        0.196      118.822       21.004        0.031      335.371        5.959      859.219
05/24/2013  03:19:00     -102.125      -37.272        0.262       64.987       34.403       23.481     4223.307     1183.578      551.339        0.889        0.298      108.713       30.430        0.078      335.348        5.922      859.220
05/24/2013  03:20:00     -133.878      -45.571       -0.361       45.853       36.436       16.006     2102.534     1327.589      256.181        1.184        0.184      141.421       17.680        0.016      335.396        6.000      859.236
05/24/2013  03:21:00     -117.786      -26.146       -0.781       38.754       23.179       20.760     1501.902      537.270      430.996        0.851        0.124      120.653       21.668        0.032      335.393        5.997      859.243
05/24/2013  03:22:00      -47.575      -50.112        6.304       40.628       41.460       22.177     1650.657     1718.894      491.841        0.434        0.193       69.098       21.879        0.100      335.392        5.993      859.250
05/24/2013  03:23:00     -105.017      -52.179       -3.380       36.872       24.522       13.720     1359.551      601.309      188.238        0.796        0.107      117.265        7.413        0.004      335.441        6.076      859.252
05/24/2013  03:24:00     -121.495      -44.891       -2.285       35.447       27.738       20.470     1256.461      769.405      419.023        0.961        0.122      129.523       17.791        0.019      335.382        5.978      859.271
05/24/2013  03:25:00     -109.705      -39.553       -7.446       24.643       24.230       15.153      607.299      587.113      229.619        0.754        0.071      116.617       12.455        0.011      335.432        6.061      859.267
05/24/2013  03:26:00     -119.848      -41.069        0.490       45.508       34.732       23.947     2071.014     1206.289      573.454        0.995        0.193      126.689       19.653        0.024      335.356        5.936      859.265
05/24/2013  03:27:00     -143.281      -41.552        3.813       50.604       33.162       24.310     2560.776     1099.706      590.974        1.326        0.213      149.185       23.313        0.024      335.303        5.847      859.260
05/24/2013  03:28:00     -125.972      -18.499        1.130       50.420       27.083       20.091     2542.177      733.514      403.658        0.995        0.184      127.323       22.191        0.030      335.299        5.840      859.261
05/24/2013  03:29:00      -99.921      -43.013        2.169       26.876       21.906       16.601      722.298      479.891      275.592        0.666        0.074      108.785       13.597        0.016      335.316        5.869      859.263
05/24/2013  03:30:00     -107.781      -37.938       -2.122       29.555       28.423       16.786      873.527      807.863      281.755        0.751        0.098      114.264       15.996        0.020      335.368        5.955      859.258
05/24/2013  03:31:00      -74.239      -70.518        1.002       77.016       52.100       29.859     5931.480     2714.358      891.564        1.001        0.477      102.393       37.495        0.134      335.403        6.011      859.251
05/24/2013  03:32:00     -139.196      -65.407       -1.676       42.832       36.532       25.861     1834.590     1334.582      668.790        1.375        0.192      153.797       26.898        0.031      335.404        6.015      859.248
05/24/2013  03:33:00      -98.631      -56.362       -5.970       44.246       29.568       22.496     1957.685      874.289      506.058        0.814        0.167      113.599       23.451        0.043      335.406        6.018      859.248
05/24/2013  03:34:00      -76.078      -55.213       -1.472       53.125       31.550       24.502     2822.290      995.381      600.356        0.663        0.221       94.002       28.821        0.094      335.440        6.074      859.255
05/24/2013  03:35:00      -77.093      -62.357        4.918       52.524       32.370       23.465     2758.761     1047.836      550.616        0.711        0.218       99.155       23.218        0.055      335.374        5.964      859.247
05/24/2013  03:36:00      -88.590      -52.269        1.572       48.480       40.198       25.990     2350.280     1615.840      675.471        0.761        0.232      102.860       23.995        0.054      335.351        5.926      859.232
05/24/2013  03:37:00     -106.752      -64.301        2.671       50.753       30.782       23.839     2575.847      947.529      568.283        0.981        0.205      124.622       21.890        0.031      335.321        5.877      859.229
05/24/2013  03:38:00     -118.619      -45.403       -6.241       23.530       20.843       14.880      553.678      434.424      221.425        0.869        0.060      127.012        9.731        0.006      335.322        5.878      859.230
05/24/2013  03:39:00      -93.669      -35.149       -2.371       31.280       31.189       15.555      978.456      972.747      241.960        0.610        0.110      100.046       12.912        0.017      335.373        5.963      859.233
05/24/2013  03:40:00      -51.967      -25.493        4.881       29.823       23.869       16.564      889.437      569.713      274.364        0.255        0.087       57.884       15.872        0.075      335.387        5.986      859.226
05/24/2013  03:41:00      -58.591      -64.600        6.258       37.371       32.037       19.125     1396.578     1026.373      365.777        0.522        0.139       87.213       14.965        0.029      335.432        6.062      859.223
05/24/2013  03:42:00      -70.166      -71.984       -4.021       35.313       32.994       19.155     1246.977     1088.628      366.905        0.641        0.135      100.524       14.264        0.020      335.449        6.089      859.217
05/24/2013  03:43:00      -67.177      -67.216       -3.734       36.606       28.404       18.055     1339.976      806.793      325.979        0.576        0.124       95.030       17.371        0.033      335.358        5.940      859.218
05/24/2013  03:44:00      -67.628      -17.759       -1.947       13.672       16.603       10.205      186.919      275.652      104.136        0.273        0.028       69.921        6.237        0.008      335.408        6.020      859.226
05/24/2013  03:45:00      -45.755      -14.425        3.408       12.696       14.099       11.036      161.184      198.794      121.791        0.140        0.024       47.975        9.789        0.042      335.339        5.907      859.227
05/24/2013  03:46:00      -62.020      -34.376        5.191       23.109       20.106       13.764      534.011      404.237      189.460        0.309        0.056       70.909       14.415        0.041      335.295        5.833      859.220
05/24/2013  03:47:00      -69.491      -31.352       -4.950       22.072       17.012       13.295      487.193      289.424      176.769        0.339        0.048       76.236        9.750        0.016      335.299        5.839      859.216
05/24/2013  03:48:00      -65.303      -20.670      -11.696       24.442       23.635       15.137      597.409      558.595      229.137        0.311        0.069       68.496       12.315        0.032      335.191        5.660      859.213
05/24/2013  03:49:00      -84.463        5.732       -4.707       40.155       24.651       21.815     1612.435      607.655      475.907        0.494        0.135       84.657       19.679        0.054      335.020        5.378      859.202
05/24/2013  03:50:00     -114.781      -11.226        7.664       46.890       40.444       31.481     2198.705     1635.704      991.026        0.909        0.241      115.329       26.663        0.053      334.921        5.212      859.200
05/24/2013  03:51:00     -112.575      -53.237        6.934       54.389       31.586       19.180     2958.147      997.662      367.876        0.994        0.216      124.529       20.375        0.027      334.936        5.237      859.194
05/24/2013  03:52:00     -111.746      -48.650       -2.906       34.924       25.916       18.850     1219.714      671.620      355.305        0.855        0.112      121.877       15.103        0.015      335.035        5.402      859.194
05/24/2013  03:53:00      -72.223      -23.288       -2.717       34.938       25.272       18.082     1220.662      638.676      326.964        0.398        0.109       75.884       17.871        0.055      335.094        5.500      859.186
05/24/2013  03:54:00      -65.969      -38.323      -15.923       28.086       26.709       17.038      788.807      713.376      290.301        0.393        0.090       76.292       12.840        0.028      335.125        5.551      859.188
05/24/2013  03:55:00      -23.245      -23.155        7.761       45.923       17.668       18.194     2108.914      312.158      331.019        0.194        0.138       32.810       19.434        0.351      335.094        5.502      859.187
05/24/2013  03:56:00      -95.252      -42.595       -6.924       15.207       15.546       11.001      231.267      241.691      121.023        0.576        0.030      104.342        8.870        0.007      335.074        5.468      859.195
05/24/2013  03:57:00      -96.928      -40.583       -5.117       16.961       19.751       11.537      287.692      390.120      133.095        0.594        0.041      105.081       11.129        0.011      335.123        5.549      859.190
05/24/2013  03:58:00     -106.965      -35.481      -10.085       12.990       14.636       11.410      168.747      214.210      130.199        0.666        0.026      112.696        6.519        0.003      335.121        5.545      859.193
05/24/2013  03:59:00      -86.924      -42.324       -2.565       21.402       23.431       13.717      458.033      549.014      188.161        0.527        0.060       96.680       11.832        0.015      335.105        5.517      859.197
05/24/2013  04:00:00      -47.483      -39.910        5.184       30.610       22.744       18.415      936.985      517.292      339.103        0.283        0.090       62.028       16.965        0.075      335.128        5.556      859.205
05/24/2013  04:01:00      -57.649      -75.268       -1.734       24.665       19.510       14.284      608.367      380.639      204.040        0.509        0.060       94.809        7.634        0.006      335.117        5.539      859.209
05/24/2013  04:02:00      -45.380      -42.760        3.553       35.804       21.564       17.569     1281.935      464.986      308.655        0.298        0.103       62.352       19.814        0.101      335.067        5.456      859.202
05/24/2013  04:03:00      -53.704      -55.439       -1.303       26.664       16.713       15.305      710.954      279.315      234.237        0.359        0.061       77.185       16.483        0.046      335.137        5.571      859.194
05/24/2013  04:04:00      -38.068      -37.400        8.618       39.636       17.515       17.281     1571.028      306.770      298.645        0.255        0.109       53.366       20.603        0.149      335.132        5.563      859.188
05/24/2013  04:05:00      -78.714      -54.820       -3.986       23.107       27.426       16.855      533.928      752.167      284.108        0.539        0.079       95.922       15.283        0.025      335.191        5.660      859.188
05/24/2013  04:06:00      -81.033      -42.347       -9.382       33.512       17.288       13.551     1123.071      298.860      183.619        0.503        0.080       91.431       12.253        0.018      335.129        5.558      859.191
05/24/2013  04:07:00      -96.446      -45.679       -8.467       12.647       16.782       11.670      159.945      281.635      136.189        0.602        0.029      106.717        7.298        0.005      335.077        5.472      859.183
05/24/2013  04:08:00      -82.125      -49.482      -10.817       21.340       16.775       11.405      455.381      281.385      130.065        0.509        0.043       95.880        5.784        0.004      335.049        5.427      859.174
05/24/2013  04:09:00      -92.974      -39.040      -10.175       23.502       11.793        8.303      552.341      139.081       68.933        0.552        0.038      100.838        5.373        0.003      335.062        5.449      859.168
05/24/2013  04:10:00      -88.505      -25.068       -7.531       12.555       12.857       12.542      157.629      165.298      157.294        0.450        0.024       91.986        5.104        0.003      335.040        5.410      859.159
05/24/2013  04:11:00      -91.978      -34.502       -8.022       17.186       13.984       12.228      295.372      195.560      149.524        0.518        0.032       98.236       10.391        0.011      334.995        5.335      859.154
05/24/2013  04:12:00      -82.844      -28.212       -4.763       22.366       25.298       13.430      500.240      639.990      180.367        0.450        0.066       87.516       12.593        0.021      334.945        5.253      859.154
05/24/2013  04:13:00      -80.611      -26.306       -3.064       22.207       16.434       12.776      493.148      270.060      163.225        0.406        0.046       84.795       14.958        0.031      334.936        5.237      859.150
05/24/2013  04:14:00      -82.602      -42.597       -6.162       29.168       21.927       14.119      850.801      480.780      199.352        0.510        0.077       92.939       16.075        0.030      334.928        5.224      859.154
05/24/2013  04:15:00      -97.218      -36.850       -6.274       20.275       18.921       12.843      411.078      357.994      164.932        0.589        0.047      103.967       12.266        0.014      334.928        5.224      859.149
05/24/2013  04:16:00      -38.508      -27.325        0.767       27.232       21.882       15.949      741.571      478.810      254.383        0.185        0.074       47.218       10.097        0.046      334.945        5.252      859.141
05/24/2013  04:17:00      -28.210      -39.788        6.637       28.451       27.405       15.959      809.445      751.043      254.684        0.212        0.091       48.774       16.498        0.114      334.928        5.224      859.134
05/24/2013  04:18:00      -87.489      -53.916       -4.668       37.707       23.986       15.448     1421.793      575.335      238.645        0.641        0.112      102.768       16.043        0.024      334.943        5.250      859.125
05/24/2013  04:19:00      -61.324      -60.859       -0.525       31.826       30.175       20.417     1012.878      910.531      416.868        0.490        0.117       86.397       16.055        0.035      334.907        5.189      859.109
05/24/2013  04:20:00      -68.541      -43.190       -1.726       26.644       22.477       19.352      709.928      505.211      374.492        0.408        0.079       81.014       15.829        0.038      334.897        5.173      859.100
05/24/2013  04:21:00      -67.916      -30.102       -0.611       35.440       18.348       16.138     1255.977      336.657      260.446        0.369        0.093       74.288       16.193        0.048      334.805        5.023      859.102
05/24/2013  04:22:00      -52.687      -57.592        5.781       38.508       26.932       15.294     1482.900      725.346      233.893        0.428        0.122       78.056       15.134        0.038      334.860        5.112      859.108
05/24/2013  04:23:00      -79.676      -59.311        2.562       36.745       29.842       23.221     1350.176      890.520      539.212        0.633        0.139       99.328       22.731        0.052      334.821        5.047      859.117
05/24/2013  04:24:00      -83.530      -50.657       -1.356       36.362       32.852       21.289     1322.169     1079.226      453.211        0.620        0.143       97.690       17.245        0.031      334.757        4.941      859.125
05/24/2013  04:25:00      -78.495      -44.688        4.161       44.960       25.401       23.512     2021.399      645.200      552.824        0.570        0.161       90.324       23.835        0.070      334.831        5.063      859.126
05/24/2013  04:26:00     -109.884      -67.003        3.234       43.605       37.037       22.651     1901.430     1371.722      513.063        1.018        0.189      128.701       23.529        0.033      334.762        4.947      859.120
05/24/2013  04:27:00     -128.426      -62.896       -4.133       30.739       25.432       20.273      944.872      646.770      411.013        1.123        0.100      143.000       17.697        0.015      334.725        4.886      859.118
05/24/2013  04:28:00     -112.393      -75.812       -7.915       35.204       21.727       17.924     1239.302      472.069      321.284        1.024        0.102      135.572       14.812        0.012      334.688        4.827      859.121
05/24/2013  04:29:00      -90.906      -48.555        1.446       35.851       34.346       19.938     1285.310     1179.682      397.529        0.674        0.143      103.060       19.127        0.034      334.635        4.736      859.128
05/24/2013  04:30:00      -70.885      -59.453       -1.475       40.031       25.674       23.137     1602.516      659.145      535.321        0.568        0.140       92.516        6.573        0.005      334.698        4.842      859.131
05/24/2013  04:31:00     -103.299      -43.188       -1.894       24.714       27.250       15.434      610.794      742.583      238.200        0.707        0.080      111.964        9.029        0.007      334.699        4.844      859.122
05/24/2013  04:32:00     -101.641      -47.116       -4.105       29.943       18.012       15.317      896.579      324.448      234.603        0.701        0.073      112.031       12.168        0.012      334.656        4.772      859.113
05/24/2013  04:33:00     -104.550      -36.775       -1.242       32.377       22.421       18.173     1048.274      502.693      330.261        0.708        0.094      110.829       18.780        0.029      334.653        4.767      859.101
05/24/2013  04:34:00      -91.016      -17.995        0.712       37.656       25.548       18.213     1418.006      652.711      331.699        0.550        0.120       92.778       18.718        0.041      334.571        4.631      859.088
05/24/2013  04:35:00      -93.069      -17.098        0.625       28.332       27.107       19.296      802.691      734.777      372.336        0.543        0.095       94.626       16.143        0.029      334.528        4.560      859.089
05/24/2013  04:36:00      -79.108      -18.704        1.779       37.453       23.578       19.671     1402.730      555.930      386.953        0.448        0.117       81.289       21.637        0.071      334.478        4.477      859.089
05/24/2013  04:37:00      -85.610       -6.159       -5.754       29.427       23.939       16.762      865.948      573.089      280.965        0.456        0.086       85.831       16.580        0.037      334.480        4.481      859.094
05/24/2013  04:38:00      -74.261      -20.967        2.129       30.384       20.395       14.080      923.215      415.967      198.249        0.375        0.077       77.164       13.155        0.029      334.393        4.338      859.095
05/24/2013  04:39:00      -41.091      -32.554        3.734       23.877       24.923       15.224      570.131      621.148      231.762        0.209        0.071       52.423       10.691        0.042      334.534        4.570      859.103
05/24/2013  04:40:00      -67.751       -4.614        0.200       24.158       17.874       14.226      583.623      319.491      202.369        0.286        0.055       67.908       13.609        0.040      334.503        4.519      859.117
05/24/2013  04:41:00      -75.874      -12.738       -2.667       20.683       18.449       11.864      427.803      340.348      140.750        0.342        0.045       76.936       10.008        0.017      334.551        4.597      859.118
05/24/2013  04:42:00      -59.176      -20.930        3.150       20.895       18.311       10.483      436.584      335.290      109.887        0.242        0.044       62.768        6.352        0.010      334.483        4.485      859.102
05/24/2013  04:43:00      -85.623      -20.498       -8.094       13.772       11.706       10.207      189.655      137.038      104.192        0.412        0.022       88.042        4.647        0.003      334.580        4.645      859.095
05/24/2013  04:44:00      -92.446      -28.299       -6.563       21.606       27.120       11.511      466.811      735.488      132.495        0.536        0.067       96.681        9.789        0.010      334.566        4.622      859.092
05/24/2013  04:45:00     -119.995      -30.191       -5.532       26.793       21.855       19.334      717.877      477.650      373.817        0.845        0.078      123.735       16.263        0.017      334.470        4.464      859.115
05/24/2013  04:46:00     -103.445      -37.973        2.132       32.478       24.219       18.656     1054.803      586.570      348.054        0.707        0.099      110.195       18.876        0.029      334.348        4.261      859.127
05/24/2013  04:47:00      -81.106      -27.437       -1.645       29.030       27.440       16.031      842.766      752.949      257.002        0.459        0.093       85.621       11.989        0.020      334.353        4.270      859.130
05/24/2013  04:48:00      -62.211      -27.640       -6.153       17.312       20.763       10.003      299.709      431.110      100.070        0.275        0.042       68.075        4.515        0.004      334.370        4.299      859.137
05/24/2013  04:49:00      -64.446      -13.940       -4.288       15.426       17.064       10.628      237.966      291.184      112.949        0.250        0.032       65.936        7.460        0.013      334.351        4.266      859.137
05/24/2013  04:50:00      -34.176      -25.082        3.261       18.909       21.322       12.182      357.533      454.610      148.392        0.138        0.048       42.392        9.592        0.051      334.386        4.325      859.140
05/24/2013  04:51:00      -26.448      -24.761       12.038       23.382       18.152       12.826      546.708      329.478      164.503        0.125        0.052       36.230       12.265        0.115      334.538        4.576      859.129
05/24/2013  04:52:00      -50.883      -10.636        1.870       24.953       17.053       12.268      622.663      290.788      150.505        0.188        0.053       51.982       10.618        0.042      334.459        4.445      859.109
05/24/2013  04:53:00      -87.467      -27.551       -9.018       20.504       22.458       14.243      420.408      504.383      202.872        0.481        0.056       91.704        9.068        0.010      334.495        4.505      859.095
05/24/2013  04:54:00      -99.157      -22.485       -2.340       30.949       22.489       18.780      957.855      505.773      352.702        0.608        0.091      101.675        9.931        0.010      334.390        4.331      859.095
05/24/2013  04:55:00     -128.894      -44.244       -5.032       23.802       29.118       15.698      566.519      847.871      246.433        1.013        0.083      136.276       11.441        0.007      334.357        4.277      859.086
05/24/2013  04:56:00     -107.579      -19.082       -1.228       43.737       30.785       21.137     1912.908      947.694      446.775        0.762        0.165      109.258       18.314        0.028      334.298        4.179      859.065
05/24/2013  04:57:00     -128.950      -13.996       -0.504       37.546       26.942       25.311     1409.692      725.874      640.640        0.980        0.139      129.708       20.395        0.025      334.235        4.073      859.054
05/24/2013  04:58:00     -114.450      -58.731       -4.151       37.213       24.385       18.075     1384.828      594.615      326.716        0.944        0.115      128.640        4.292        0.001      334.306        4.192      859.058
05/24/2013  04:59:00      -90.856      -25.981        4.120       27.357       23.785       16.968      748.385      565.744      287.900        0.527        0.080       94.498       15.582        0.027      334.309        4.198      859.060
05/24/2013  05:00:00      -24.171      -40.822        9.347       38.933       26.966       18.167     1515.798      727.178      330.043        0.246        0.129       47.441       14.736        0.096      334.432        4.401      859.061
05/24/2013  05:01:00      -45.217      -62.992        0.125       53.584       41.071       25.409     2871.256     1686.854      645.603        0.561        0.260       77.540       24.249        0.098      334.419        4.378      859.070
05/24/2013  05:02:00      -13.041      -47.510       19.168       46.584       36.583       24.209     2170.072     1338.352      586.095        0.344        0.205       49.268       22.202        0.203      334.353        4.269      859.092
05/24/2013  05:03:00        2.233      -40.024       17.305       31.457       31.367       23.551      989.567      983.862      554.652        0.222        0.126       40.087       18.323        0.209      334.352        4.270      859.095
05/24/2013  05:04:00      -52.167      -50.801       17.428       59.256       36.458       30.046     3511.269     1329.169      902.777        0.567        0.287       72.816       33.704        0.214      334.314        4.206      859.076
05/24/2013  05:05:00      -87.391      -93.762       -4.266       60.428       44.756       31.797     3651.487     2003.082     1011.039        1.155        0.333      128.173       27.652        0.047      334.362        4.285      859.074
05/24/2013  05:06:00      -78.817     -112.380       -2.482       49.307       45.770       31.234     2431.207     2094.847      975.552        1.217        0.275      137.264       19.350        0.020      334.356        4.275      859.098
05/24/2013  05:07:00     -125.874      -95.945        7.524       59.829       56.554       34.665     3579.493     3198.338     1201.653        1.654        0.399      158.272       37.633        0.057      334.272        4.133      859.100
05/24/2013  05:08:00     -101.460     -108.809       -0.237       53.858       45.700       35.104     2900.688     2088.522     1232.286        1.418        0.311      148.773       32.430        0.048      334.275        4.139      859.089
05/24/2013  05:09:00      -73.649     -109.605      -11.867       37.806       51.107       24.945     1429.286     2611.925      622.251        1.112        0.233      132.051       14.002        0.011      334.302        4.185      859.100
05/24/2013  05:10:00      -81.104      -93.333        5.897       57.874       47.556       29.984     3349.344     2261.530      899.046        1.092        0.325      123.649       31.700        0.066      334.283        4.154      859.105
05/24/2013  05:11:00      -97.693      -50.698       -6.965       80.852       34.794       26.924     6537.100     1210.599      724.914        1.032        0.424      110.064       16.906        0.024      334.271        4.134      859.095
05/24/2013  05:12:00      -23.151      -54.338        8.242       44.961       38.261       32.640     2021.485     1463.874     1065.370        0.405        0.228       59.064       19.062        0.104      334.282        4.154      859.070
05/24/2013  05:13:00      -62.323      -26.114       21.853       43.626       47.395       31.189     1903.219     2246.239      972.743        0.508        0.256       67.573       23.584        0.122      334.197        4.011      859.057
05/24/2013  05:14:00     -115.235      -69.771        6.716       68.982       44.770       36.889     4758.584     2004.315     1360.766        1.316        0.406      134.711       40.354        0.090      334.202        4.018      859.054
05/24/2013  05:15:00     -131.525     -106.989       -2.283       46.272       41.330       26.857     2141.125     1708.184      721.307        1.666        0.229      169.545       20.263        0.014      334.203        4.021      859.042
05/24/2013  05:16:00     -108.201      -79.858       -2.496       43.796       43.573       29.035     1918.060     1898.617      843.032        1.137        0.233      134.479       26.324        0.038      334.186        3.991      859.030
05/24/2013  05:17:00      -82.789      -54.636       -2.160       38.334       27.981       21.760     1469.523      782.937      473.510        0.628        0.136       99.192       20.651        0.043      334.218        4.046      859.037
05/24/2013  05:18:00      -99.060      -98.771       -9.115       50.321       39.230       30.432     2532.222     1538.985      926.118        1.232        0.250      139.887       34.429        0.061      334.222        4.052      859.049
05/24/2013  05:19:00      -78.693      -90.103        1.884       44.738       35.274       30.123     2001.515     1244.283      907.421        0.923        0.208      119.629       32.078        0.072      334.191        4.002      859.055
05/24/2013  05:20:00      -50.909      -67.547       -6.229       30.396       48.892       19.066      923.901     2390.430      363.515        0.543        0.184       84.583       10.623        0.016      334.249        4.099      859.045
05/24/2013  05:21:00      -50.019       -7.694       -1.599       20.260       29.064       12.669      410.482      844.697      160.498        0.199        0.071       50.607       11.287        0.050      334.116        3.878      859.049
05/24/2013  05:22:00      -87.152       -7.615      -10.539       22.356       12.112       12.305      499.790      146.709      151.425        0.428        0.040       87.484        5.826        0.004      334.107        3.861      859.068
05/24/2013  05:23:00     -100.479      -43.192      -11.811       30.894       22.699       15.513      954.460      515.224      240.662        0.691        0.086      109.369       14.608        0.018      334.198        4.013      859.083
05/24/2013  05:24:00     -104.195      -24.286       -0.959       25.539       25.823       15.229      652.261      666.815      231.910        0.650        0.078      106.987        9.383        0.008      334.129        3.898      859.096
05/24/2013  05:25:00      -52.592      -20.850        1.656       48.143       29.024       21.890     2317.722      842.418      479.155        0.342        0.182       56.574       26.243        0.215      334.000        3.684      859.079
05/24/2013  05:26:00     -101.172       13.313       -7.383       44.303       25.490       21.493     1962.725      649.723      461.949        0.677        0.154      102.045       15.587        0.023      333.885        3.493      859.065
05/24/2013  05:27:00     -120.930       -0.251      -12.363       29.926       25.086       14.493      895.553      629.331      210.039        0.826        0.087      120.930       10.032        0.007      333.918        3.549      859.064
05/24/2013  05:28:00     -125.372      -43.510      -10.023       24.920       32.844       18.642      621.017     1078.742      347.536        0.988        0.102      132.708       13.203        0.010      333.937        3.581      859.066
05/24/2013  05:29:00     -131.050      -40.387       -6.588       47.312       33.081       25.587     2238.433     1094.343      654.709        1.142        0.199      137.132       28.575        0.043      333.816        3.378      859.065
05/24/2013  05:30:00     -133.935      -44.616        2.948       27.493       31.792       19.176      755.884     1010.754      367.706        1.104        0.107      141.171       15.749        0.012      333.838        3.416      859.066
05/24/2013  05:31:00     -101.954      -42.330       -0.340       23.325       18.417       14.885      544.051      339.172      221.573        0.665        0.055      110.392       13.917        0.016      333.885        3.492      859.076
05/24/2013  05:32:00      -87.259      -38.495        3.885       35.881       32.669       18.703     1287.469     1067.248      349.799        0.591        0.135       95.373       12.769        0.018      333.888        3.498      859.087
05/24/2013  05:33:00     -117.546      -33.187       -5.511       23.955       41.924       16.348      573.865     1757.627      267.257        0.877        0.130      122.141        9.174        0.006      333.972        3.637      859.102
05/24/2013  05:34:00     -102.252       -4.086       -1.626       47.904       31.813       22.743     2294.817     1012.048      517.237        0.715        0.191      102.334       23.880        0.054      333.826        3.395      859.108
05/24/2013  05:35:00     -122.318       10.138      -11.793       29.392       18.275       18.074      863.900      333.960      326.670        0.836        0.076      122.737       15.470        0.016      333.779        3.316      859.108
05/24/2013  05:36:00     -111.123       -8.232       -5.998       22.514       17.258       13.728      506.869      297.849      188.466        0.672        0.050      111.428        9.166        0.007      333.809        3.367      859.108
05/24/2013  05:37:00     -121.205      -21.149      -12.382       26.361       25.355       14.760      694.900      642.900      217.844        0.842        0.078      123.036       14.307        0.014      333.859        3.451      859.106
05/24/2013  05:38:00     -138.341      -64.625       -3.520       24.899       23.012       14.097      619.984      529.530      198.724        1.234        0.067      152.691       10.578        0.005      333.865        3.459      859.100
05/24/2013  05:39:00     -122.754      -50.969        3.232       40.249       27.665       21.784     1619.954      765.378      474.552        1.027        0.143      132.915       17.172        0.017      333.884        3.490      859.110
05/24/2013  05:40:00     -113.649      -23.666       -7.763       22.290       18.866       12.193      496.855      355.921      148.671        0.727        0.050      116.087        7.069        0.004      333.878        3.482      859.101
05/24/2013  05:41:00      -77.696      -23.476       -7.572       15.557       17.926       10.951      242.024      321.326      119.917        0.366        0.034       81.165        5.298        0.004      333.946        3.595      859.088
05/24/2013  05:42:00      -57.730      -31.782      -12.353       34.745       20.823       13.833     1207.214      433.580      191.356        0.316        0.092       65.900       10.506        0.025      333.994        3.674      859.091
05/24/2013  05:43:00     -104.003      -42.623        0.139       30.619       26.845       19.352      937.516      720.642      374.497        0.733        0.102      112.398       19.126        0.029      333.869        3.468      859.116
05/24/2013  05:44:00      -69.782      -42.994       -5.682       41.119       27.490       16.433     1690.810      755.702      270.039        0.473        0.136       81.963       21.520        0.069      334.011        3.702      859.125
05/24/2013  05:45:00      -10.644      -39.441        3.841       28.542       21.076       14.934      814.648      444.215      223.029        0.158        0.074       40.852        8.833        0.047      334.130        3.899      859.115
05/24/2013  05:46:00      -52.620      -34.297       -3.126       46.338       30.954       21.886     2147.214      958.153      478.989        0.377        0.179       62.810       17.703        0.079      334.087        3.828      859.098
05/24/2013  05:47:00      -83.293      -30.145       -4.238       25.530       24.046       15.735      651.806      578.206      247.606        0.467        0.074       88.580        9.444        0.011      334.045        3.758      859.078
05/24/2013  05:48:00     -105.002      -38.539       -5.113       23.762       20.805       12.380      564.631      432.864      153.270        0.684        0.058      111.851        9.836        0.008      334.054        3.773      859.065
05/24/2013  05:49:00     -134.627      -55.373       -4.200       32.441       32.471       17.296     1052.389     1054.398      299.151        1.181        0.120      145.570       12.976        0.008      334.004        3.691      859.064
05/24/2013  05:50:00     -133.662      -50.146        0.005       34.075       46.334       20.710     1161.093     2146.868      428.917        1.206        0.187      142.759       14.134        0.010      333.986        3.661      859.065
05/24/2013  05:51:00     -110.155      -40.397        0.607       44.006       27.643       18.948     1936.505      764.132      359.010        0.841        0.153      117.329       18.272        0.024      333.997        3.679      859.062
05/24/2013  05:52:00      -99.474      -21.392      -11.914       20.980       48.902       19.750      440.149     2391.390      390.063        0.686        0.161      101.748       13.552        0.018      333.975        3.643      859.038
05/24/2013  05:53:00     -100.826      -33.668       -4.518       33.229       34.276       19.182     1104.142     1174.855      367.961        0.698        0.132      106.299       16.975        0.026      333.930        3.569      859.032
05/24/2013  05:54:00      -96.161      -71.740       -5.407       35.050       32.466       16.792     1228.527     1054.016      281.974        0.849        0.128      119.973       13.530        0.013      333.938        3.581      859.050
05/24/2013  05:55:00      -79.808      -40.066       -4.405       26.284       30.474       14.860      690.830      928.653      220.825        0.492        0.092       89.300       11.397        0.016      334.003        3.689      859.069
05/24/2013  05:56:00     -123.804      -58.620       -1.601       38.021       30.848       21.200     1445.565      951.587      449.458        1.081        0.142      136.981       21.353        0.024      333.951        3.602      859.080
05/24/2013  05:57:00     -108.516      -26.989       -2.466       36.386       33.522       21.417     1323.952     1123.732      458.706        0.771        0.145      111.821       20.537        0.034      333.885        3.492      859.083
05/24/2013  05:58:00     -143.653       -7.751      -10.307       38.575       30.553       25.655     1488.050      933.456      658.202        1.194        0.154      143.862       19.782        0.019      333.795        3.343      859.076
05/24/2013  05:59:00     -141.484       -6.708       -9.018       40.558       30.212       19.723     1644.950      912.759      388.982        1.154        0.147      141.643       20.635        0.021      333.710        3.203      859.071
05/24/2013  06:00:00     -128.260        7.806       -0.408       51.985       32.606       24.188     2702.409     1063.180      585.041        1.043        0.218      128.497       27.596        0.046      333.972        3.637      859.074
05/24/2013  06:01:00     -116.056      -18.839       -7.001       31.022       29.395       21.911      962.379      864.063      480.107        0.809        0.115      117.575       19.415        0.027      333.934        3.574      859.079
05/24/2013  06:02:00     -130.396      -17.882       -9.002       22.950       18.317       14.181      526.711      335.518      201.091        0.923        0.053      131.617        8.924        0.005      333.907        3.531      859.086
05/24/2013  06:03:00      -93.960      -18.227       -4.750       24.051       24.252       15.689      578.455      588.172      246.154        0.530        0.071       95.712       12.087        0.016      333.916        3.546      859.097
05/24/2013  06:04:00      -54.376      -19.191        4.139       38.745       22.025       18.054     1501.181      485.086      325.935        0.283        0.116       57.663       20.124        0.122      333.880        3.486      859.103
05/24/2013  06:05:00      -62.594       -4.576        1.617       23.050       26.539       22.620      531.308      704.294      511.674        0.284        0.087       62.761       15.900        0.064      333.848        3.432      859.103
05/24/2013  06:06:00      -99.256        4.132       -8.084       16.646       19.293       11.494      277.099      372.208      132.113        0.536        0.039       99.342        7.689        0.006      333.913        3.540      859.096
05/24/2013  06:07:00      -93.611       -9.131      -11.056       22.057       19.064       15.115      486.493      363.428      228.451        0.502        0.054       94.055       13.414        0.020      333.921        3.555      859.108
05/24/2013  06:08:00     -104.559        3.434       -8.700       17.061       27.520       12.170      291.062      757.350      148.111        0.611        0.060      104.616       10.850        0.011      333.896        3.512      859.120
05/24/2013  06:09:00      -86.931       20.470       -7.321       17.274       17.211        8.986      298.381      296.218       80.741        0.435        0.034       89.309        9.501        0.011      333.920        3.551      859.125
05/24/2013  06:10:00      -80.136      -12.138      -11.044       15.283       11.719        8.493      233.577      137.346       72.132        0.357        0.022       81.050        4.280        0.003      334.036        3.745      859.128
05/24/2013  06:11:00      -32.466      -34.520      -11.084       20.079       11.993       12.242      403.149      143.824      149.860        0.153        0.035       47.388        9.031        0.036      334.153        3.937      859.112
05/24/2013  06:12:00      -31.453      -32.138        0.741       34.642       17.050       17.466     1200.057      290.688      305.045        0.191        0.090       44.968       21.118        0.221      334.267        4.128      859.106
05/24/2013  06:13:00      -17.141      -54.623       -6.156       17.293       13.928       12.456      299.056      193.981      155.151        0.198        0.032       57.249        8.885        0.024      334.270        4.133      859.104
05/24/2013  06:14:00      -12.438      -48.369       -8.223       18.567       18.124       12.944      344.752      328.482      167.543        0.170        0.042       49.942        9.739        0.038      334.377        4.311      859.110
05/24/2013  06:15:00       -7.057      -55.363        4.194       19.919       31.731       14.743      396.749     1006.862      217.343        0.238        0.081       55.811       12.065        0.047      334.461        4.448      859.119
05/24/2013  06:16:00      -27.677      -20.961        5.735       16.237       17.833       12.938      263.650      318.009      167.390        0.099        0.037       34.719        9.409        0.073      334.478        4.476      859.116
05/24/2013  06:17:00      -14.643      -38.260       -0.694       17.964       13.905       14.186      322.689      193.354      201.232        0.120        0.036       40.966        4.834        0.014      334.597        4.675      859.130
05/24/2013  06:18:00      -34.728      -27.981       -3.159       15.687       23.291       16.380      246.095      542.487      268.321        0.153        0.053       44.598       14.026        0.099      334.549        4.594      859.124
05/24/2013  06:19:00      -30.085        7.620        0.168       12.419       14.736       10.969      154.226      217.143      120.313        0.073        0.025       31.035        9.913        0.102      334.542        4.584      859.138
05/24/2013  06:20:00      -40.527      -24.641        2.765       36.536       20.813       18.620     1334.886      433.184      346.706        0.219        0.106       47.430       16.013        0.114      334.515        4.539      859.136
05/24/2013  06:21:00      -11.924      -25.118        7.234       22.760       21.228       19.499      518.010      450.632      380.199        0.109        0.067       27.805       15.806        0.323      334.539        4.579      859.153
05/24/2013  06:22:00      -38.850      -62.269       -7.341       34.447       27.306       21.642     1186.619      745.625      468.390        0.392        0.120       73.394       10.943        0.022      334.415        4.373      859.155
05/24/2013  06:23:00      -68.337      -26.097        4.448       32.809       27.986       19.312     1076.460      783.212      372.941        0.380        0.112       73.151       19.216        0.069      334.401        4.350      859.160
05/24/2013  06:24:00      -67.114      -25.382        0.937       38.845       22.305       18.412     1508.911      497.533      338.992        0.375        0.117       71.753       17.954        0.063      334.324        4.222      859.166
05/24/2013  06:25:00      -82.908      -37.758        1.145       28.241       27.037       15.119      797.535      730.983      228.582        0.503        0.088       91.101       10.931        0.014      334.434        4.403      859.188
05/24/2013  06:26:00      -77.146      -52.429        0.617       37.218       24.490       15.836     1385.164      599.781      250.785        0.547        0.112       93.275       13.603        0.021      334.410        4.364      859.203
05/24/2013  06:27:00      -60.059      -43.410       -1.392       41.411       23.682       16.879     1714.911      560.842      284.913        0.403        0.128       74.105       17.646        0.057      334.379        4.312      859.222
05/24/2013  06:28:00      -40.981      -27.211       -4.873       17.893       16.810       12.254      320.146      282.572      150.151        0.160        0.038       49.192       12.074        0.060      334.441        4.416      859.226
05/24/2013  06:29:00      -19.597      -46.696       -1.747       27.951       26.473       14.894      781.276      700.812      221.824        0.214        0.085       50.641        6.644        0.017      334.538        4.578      859.225
05/24/2013  06:30:00      -62.652      -42.210       -6.825       35.943       20.545       18.664     1291.889      422.096      348.327        0.391        0.103       75.544       18.002        0.057      334.531        4.564      859.233
05/24/2013  06:31:00      -40.772      -64.038       -4.452       20.462       18.949       13.592      418.707      359.083      184.751        0.337        0.048       75.916       10.512        0.019      334.514        4.537      859.235
05/24/2013  06:32:00      -63.458      -30.494       -6.638       30.177       18.720       10.098      910.646      350.444      101.965        0.318        0.068       70.405        9.234        0.017      334.647        4.759      859.249
05/24/2013  06:33:00      -76.820       -2.299       -4.763       37.361       18.169       15.044     1395.811      330.099      226.329        0.394        0.098       76.855       20.307        0.070      334.518        4.544      859.266
05/24/2013  06:34:00      -89.957       14.402       -5.344       38.201       32.504       19.134     1459.344     1056.480      366.115        0.560        0.144       91.103       16.614        0.033      334.509        4.528      859.275
05/24/2013  06:35:00     -129.119       21.372      -10.809       36.105       26.692       19.000     1303.571      712.459      361.012        0.981        0.119      130.875       14.867        0.013      334.364        4.290      859.274
05/24/2013  06:36:00     -130.136      -28.616        0.153       42.618       58.196       21.637     1816.253     3386.823      468.155        1.171        0.284      133.245       17.854        0.018      334.427        4.393      859.249
05/24/2013  06:37:00     -165.092      -27.451       -5.034       44.004       33.223       25.291     1936.350     1103.760      639.616        1.586        0.184      167.359       20.856        0.016      334.414        4.370      859.242
05/24/2013  06:38:00     -122.850      -70.547        8.490       61.957       38.399       31.274     3838.681     1474.461      978.055        1.322        0.315      141.665       34.240        0.058      334.581        4.647      859.240
05/24/2013  06:39:00     -116.415      -48.135       -5.101       48.801       29.148       20.772     2381.582      849.579      431.478        0.978        0.183      125.974       23.678        0.035      334.594        4.668      859.233
05/24/2013  06:40:00      -38.572      -28.449        5.712       33.513       20.407       20.540     1123.114      416.439      421.885        0.215        0.098       47.928       18.909        0.156      334.669        4.794      859.214
05/24/2013  06:41:00      -64.302      -14.432        9.290       33.179       35.551       23.159     1100.865     1263.876      536.323        0.366        0.145       65.901       21.138        0.103      334.797        5.006      859.212
05/24/2013  06:42:00      -19.942        0.897        1.754       21.632       17.727       15.066      467.926      314.237      226.979        0.071        0.050       19.962       12.652        0.402      335.027        5.389      859.201
05/24/2013  06:43:00      -33.661      -20.647        0.528       19.281       17.480       12.805      371.741      305.560      163.960        0.120        0.042       39.489       12.163        0.095      334.925        5.218      859.188
05/24/2013  06:44:00      -27.481       -2.142        1.750       14.551        9.609       11.201      211.728       92.342      125.468        0.060        0.021       27.565       10.305        0.140      334.894        5.169      859.189
05/24/2013  06:45:00      -12.564        0.189        6.840       17.531       13.118       18.590      307.351      172.088      345.598        0.051        0.041       12.565       14.566        1.344      335.378        5.973      859.183
05/24/2013  06:46:00       -2.121       10.920       24.069        7.066       18.468       15.018       49.930      341.052      225.555        0.066        0.031       11.124       15.310        1.894      335.793        6.663      859.167
05/24/2013  06:47:00      -15.966       19.991        4.904       13.641       18.983       14.492      186.069      360.364      210.018        0.072        0.038       25.585        9.815        0.147      335.230        5.726      859.156
05/24/2013  06:48:00      -16.684      -11.520       -4.419        5.437        9.166        4.674       29.560       84.010       21.846        0.028        0.007       20.275        3.289        0.026      335.059        5.443      859.154
05/24/2013  06:49:00      -10.786       -9.888        3.867       11.471       11.881       11.000      131.584      141.158      121.007        0.031        0.020       14.632       10.218        0.488      335.270        5.792      859.163
05/24/2013  06:50:00      -50.871      -37.294        4.422       26.276       13.389       14.067      690.412      179.264      197.887        0.253        0.053       63.077       15.282        0.059      335.134        5.568      859.177
05/24/2013  06:51:00      -54.297      -33.105       -1.269       12.144       11.042        5.829      147.479      121.922       33.973        0.217        0.015       63.594        2.428        0.001      335.105        5.519      859.177
05/24/2013  06:52:00      -45.008      -16.558       -0.388       10.221        7.149        7.619      104.477       51.106       58.055        0.126        0.011       47.957        6.546        0.019      335.138        5.573      859.184
05/24/2013  06:53:00      -31.992        1.511        3.271       14.971       11.554       10.640      224.122      133.504      113.220        0.075        0.024       32.028       10.180        0.101      335.487        6.154      859.194
05/24/2013  06:54:00      -12.570      -13.756        6.504       12.095       21.805       14.723      146.285      475.477      216.772        0.061        0.042       18.634       11.029        0.350      335.863        6.780      859.188
05/24/2013  06:55:00      -23.325      -35.871        0.974       14.780       17.202        9.602      218.456      295.913       92.202        0.122        0.030       42.788        6.321        0.022      335.378        5.972      859.191
05/24/2013  06:56:00      -25.683      -21.778        3.330       12.597       29.450       15.026      158.697      867.327      225.774        0.120        0.063       33.673       12.241        0.132      335.500        6.175      859.191
05/24/2013  06:57:00        9.261      -19.122       21.518       25.754       18.758       20.376      663.270      351.865      415.183        0.117        0.072       21.247       16.885        0.632      335.949        6.926      859.194
05/24/2013  06:58:00      -18.218      -59.010        5.615       17.558       31.126       15.232      308.282      968.800      232.012        0.268        0.075       61.758       17.954        0.085      335.692        6.495      859.194
05/24/2013  06:59:00      -25.046      -38.559       -6.107       19.723       28.007       14.189      388.989      784.405      201.316        0.176        0.069       45.980       11.425        0.062      335.495        6.165      859.200
05/24/2013  07:00:00      -24.204      -81.058        4.968       17.253       15.267       12.618      297.655      233.089      159.207        0.394        0.034       84.594        9.374        0.012      335.450        6.089      859.195
05/24/2013  07:01:00      -30.146      -74.941       -2.618       22.996       16.336       15.592      528.809      266.850      243.122        0.379        0.052       80.777       13.317        0.027      335.439        6.073      859.191
05/24/2013  07:02:00      -35.663      -73.335       -9.637       32.459       23.987       15.184     1053.591      575.384      230.553        0.430        0.093       81.547        6.471        0.006      335.506        6.186      859.188
05/24/2013  07:03:00      -37.750      -38.989       -5.412       22.447       14.838       14.662      503.847      220.162      214.974        0.196        0.047       54.270        4.526        0.007      335.520        6.209      859.194
05/24/2013  07:04:00      -13.433       -7.554        3.714       21.787       13.947       11.755      474.653      194.522      138.179        0.053        0.040       15.411        7.877        0.261      335.830        6.725      859.204
05/24/2013  07:05:00      -37.147      -11.592        0.137       32.698       20.679       15.156     1069.161      427.640      229.709        0.162        0.086       38.914       12.652        0.106      335.739        6.574      859.217
05/24/2013  07:06:00      -46.844      -22.792        2.260       22.046       19.616       13.935      486.014      384.795      194.182        0.189        0.053       52.094       11.573        0.049      335.684        6.484      859.224
05/24/2013  07:07:00      -45.632      -10.386       -0.968       26.882       24.201       13.296      722.631      585.683      176.794        0.184        0.074       46.799        8.965        0.037      335.668        6.455      859.220
05/24/2013  07:08:00      -36.576      -30.960       -4.932       12.897       25.586       10.298      166.339      654.627      106.041        0.162        0.046       47.921        6.808        0.020      335.551        6.260      859.226
05/24/2013  07:09:00      -32.054        7.188        2.388       27.296       22.878       26.674      745.051      523.407      711.523        0.153        0.099       32.850       22.519        0.470      335.852        6.763      859.224
05/24/2013  07:10:00      -32.366        7.573       19.906       23.100       19.971       18.053      533.622      398.856      325.916        0.138        0.063       33.240       12.878        0.150      336.190        7.327      859.222
05/24/2013  07:11:00      -52.863      -36.763       -0.268       42.286       37.320       18.121     1788.070     1392.797      328.353        0.383        0.175       64.390       21.730        0.114      335.821        6.712      859.220
05/24/2013  07:12:00      -70.118      -79.463       -2.249       24.316       27.614       14.371      591.287      762.512      206.535        0.640        0.078      105.976       14.542        0.019      335.564        6.281      859.225
05/24/2013  07:13:00      -83.426      -57.093       -1.156       38.577       30.769       21.686     1488.214      946.715      470.279        0.656        0.145      101.092       21.082        0.043      335.590        6.326      859.237
05/24/2013  07:14:00      -37.967      -44.698        8.794       24.018       29.540       17.774      576.866      872.640      315.906        0.264        0.088       58.646       15.486        0.070      335.697        6.504      859.243
05/24/2013  07:15:00      -53.788      -40.488        3.493       39.952       26.254       15.376     1596.199      689.277      236.436        0.353        0.126       67.323       13.769        0.042      335.748        6.588      859.257
05/24/2013  07:16:00      -68.836      -19.895        2.427       33.467       22.816       17.410     1120.025      520.565      303.120        0.354        0.097       71.653       20.271        0.080      335.787        6.655      859.266
05/24/2013  07:17:00      -86.326      -36.777        0.507       25.140       23.681       16.322      632.007      560.808      266.415        0.513        0.073       93.833        8.692        0.009      335.664        6.449      859.282
05/24/2013  07:18:00      -45.244      -37.287        2.582       18.820       20.098        9.932      354.181      403.929       98.637        0.215        0.043       58.629        4.934        0.007      335.758        6.605      859.298
05/24/2013  07:19:00      -61.089      -33.216       -5.509       21.463       27.662       11.347      460.659      765.169      128.748        0.311        0.068       69.536        6.981        0.010      335.884        6.814      859.299
05/24/2013  07:20:00      -48.245      -40.291       -2.859       23.686       20.806       13.294      561.030      432.888      176.730        0.256        0.059       62.856        8.232        0.017      335.817        6.704      859.294
05/24/2013  07:21:00      -36.905      -20.886      -11.858       19.915        7.816        8.796      396.591       61.085       77.366        0.124        0.027       42.405        9.555        0.051      335.787        6.654      859.289
05/24/2013  07:22:00      -15.260      -46.546       -2.094       22.012       16.825       19.418      484.516      283.071      377.073        0.177        0.057       48.984       11.263        0.053      335.902        6.845      859.283
05/24/2013  07:23:00       -4.846      -26.814       -3.934       11.157       11.337       11.293      124.470      128.528      127.541        0.057        0.019       27.248        9.390        0.119      335.922        6.878      859.282
05/24/2013  07:24:00      -28.488       -7.983        1.826       15.560       12.859       11.376      242.122      165.366      129.407        0.071        0.027       29.585        4.955        0.028      336.109        7.190      859.280
05/24/2013  07:25:00      -34.975      -33.738        0.021       21.613       19.444       10.260      467.114      378.050      105.274        0.166        0.048       48.595       10.475        0.046      336.011        7.026      859.277
05/24/2013  07:26:00      -35.907      -43.117       -3.144       13.334       19.103       14.843      177.799      364.928      220.315        0.196        0.038       56.110        9.049        0.026      335.951        6.928      859.285
05/24/2013  07:27:00      -27.343      -28.989       -3.919       12.372       17.148       11.014      153.061      294.069      121.304        0.109        0.028       39.849        7.760        0.038      336.063        7.113      859.287
05/24/2013  07:28:00      -14.467       -1.171       21.495       17.351       16.504       12.217      301.053      272.380      149.267        0.070        0.036       14.515        9.230        0.404      337.006        8.690      859.280
05/24/2013  07:29:00      -25.709       15.200        5.647        9.487        8.960       10.230       89.996       80.285      104.662        0.060        0.014       29.867        5.032        0.028      336.301        7.511      859.278
05/24/2013  07:30:00       43.789       47.838       18.650       30.900       28.400       17.816      954.814      806.580      317.420        0.332        0.104       64.854       16.317        0.063      336.538        7.907      859.276
05/24/2013  07:31:00       13.341       31.256       46.734       27.172       28.064       23.042      738.290      787.564      530.952        0.270        0.103       33.984       21.052        0.384      336.857        8.440      859.282
05/24/2013  07:32:00       -2.959       43.430       72.134       21.487       28.051       16.953      461.685      786.871      287.418        0.432        0.077       43.530       14.071        0.104      336.874        8.470      859.290
05/24/2013  07:33:00       34.264       30.840       41.631       25.948       20.973       14.465      673.273      439.848      209.242        0.259        0.066       46.099        8.430        0.033      336.513        7.865      859.290
05/24/2013  07:34:00       43.078       57.207       43.311       38.534       36.632       34.738     1484.865     1341.882     1206.702        0.552        0.202       71.612       22.181        0.096      336.637        8.073      859.289
05/24/2013  07:35:00       55.018       47.381       26.720       24.001       26.183       26.558      576.033      685.567      705.334        0.398        0.098       72.608       12.224        0.028      336.342        7.580      859.289
05/24/2013  07:36:00       67.575       46.035       17.396       13.247       15.577       11.982      175.476      242.635      143.562        0.377        0.028       81.766       10.225        0.016      336.197        7.338      859.292
05/24/2013  07:37:00       51.142       20.190       16.477       20.069       22.667       27.752      402.749      513.787      770.146        0.249        0.084       54.983       16.925        0.095      336.357        7.605      859.298
05/24/2013  07:38:00       38.950       46.985       25.927       17.270       17.616       17.036      298.260      310.312      290.236        0.265        0.045       61.030       11.303        0.034      336.390        7.659      859.308
05/24/2013  07:39:00        5.231       14.211       13.340       19.797       23.371       15.394      391.907      546.202      236.972        0.079        0.059       15.143        8.422        0.309      336.730        8.227      859.302
05/24/2013  07:40:00       33.785       22.195       41.356       40.324       28.567       22.147     1626.064      816.062      490.494        0.314        0.147       40.423        9.000        0.050      336.843        8.417      859.293
05/24/2013  07:41:00        5.936       44.634       67.105       40.423       59.770       31.461     1634.034     3572.457      989.809        0.636        0.310       45.027       20.097        0.199      337.259        9.113      859.275
05/24/2013  07:42:00       43.258       36.559       37.047       42.089       31.633       30.602     1771.444     1000.631      936.510        0.414        0.185       56.638       20.946        0.137      336.821        8.379      859.289
05/24/2013  07:43:00      102.022       79.380       28.910       41.294       24.941       42.222     1705.192      622.032     1782.712        1.083        0.205      129.266       22.458        0.030      336.570        7.962      859.285
05/24/2013  07:44:00      102.090       98.291       34.189       36.911       35.789       43.143     1362.406     1280.883     1861.287        1.288        0.225      141.717       11.197        0.006      336.711        8.196      859.292
05/24/2013  07:45:00       55.797       50.312       -1.909       28.470       19.679       25.384      810.546      387.249      644.330        0.374        0.092       75.130       14.396        0.037      336.696        8.171      859.301
05/24/2013  07:46:00       40.139       29.624        9.120       20.911       18.441       23.324      437.269      340.081      543.996        0.195        0.066       49.887        3.398        0.005      336.806        8.356      859.308
05/24/2013  07:47:00       47.545       37.143       19.676       22.404       20.726       21.579      501.920      429.566      465.665        0.271        0.070       60.334       13.259        0.048      336.756        8.271      859.310
05/24/2013  07:48:00       46.959       48.925        9.363       41.780       28.920       24.228     1745.575      836.386      587.009        0.393        0.158       67.814       20.040        0.087      336.751        8.263      859.301
05/24/2013  07:49:00       32.507       55.949       12.029       45.080       42.904       28.318     2032.163     1840.728      801.899        0.450        0.234       64.707       19.376        0.090      336.849        8.426      859.280
05/24/2013  07:50:00        0.144       62.485        1.741       21.888       30.833       27.097      479.106      950.647      734.223        0.304        0.108       62.485       19.253        0.095      337.085        8.822      859.280
05/24/2013  07:51:00       85.215       55.085       10.947       29.657       31.532       24.726      879.566      994.263      611.360        0.645        0.124      101.469        8.611        0.007      336.725        8.219      859.275
05/24/2013  07:52:00       76.749       51.786        2.971       25.582       20.423       26.314      654.437      417.085      692.403        0.517        0.088       92.586        3.905        0.002      336.654        8.103      859.286
05/24/2013  07:53:00       73.683       60.377        5.456       17.618       12.849       21.257      310.386      165.100      451.845        0.502        0.046       95.261       16.186        0.029      336.529        7.894      859.296
05/24/2013  07:54:00       53.106        4.150       13.284       32.611       28.041       22.584     1063.480      786.315      510.042        0.269        0.118       53.268       10.149        0.036      336.827        8.390      859.304
05/24/2013  07:55:00       21.952      -35.592       18.054       31.485       43.039       31.875      991.293     1852.356     1016.023        0.297        0.193       41.817       29.508        0.498      337.381        9.318      859.299
05/24/2013  07:56:00       -2.611        6.885       42.366       12.989       22.453       18.272      168.705      504.125      333.880        0.143        0.050        7.363       16.291        4.895      337.888       10.167      859.283
05/24/2013  07:57:00       13.318       55.249       61.554       37.642       38.447       32.853     1416.935     1478.136     1079.310        0.550        0.199       56.832       25.652        0.204      337.486        9.493      859.268
05/24/2013  07:58:00       15.886       44.767       50.160       45.759       38.716       37.168     2093.877     1498.898     1381.443        0.487        0.249       47.502       35.752        0.566      337.414        9.372      859.248
05/24/2013  07:59:00       43.980       60.218       28.554       41.819       35.748       44.892     1748.856     1277.931     2015.279        0.571        0.252       74.569        7.579        0.010      337.343        9.254      859.238
05/24/2013  08:00:00       52.673       61.985        0.345       24.009       23.409       30.102      576.435      547.990      906.119        0.432        0.102       81.343       15.457        0.036      336.839        8.411      859.225
05/24/2013  08:01:00       81.628       69.246        6.515       30.772       24.308       27.476      946.901      590.865      754.913        0.690        0.115      107.043        9.200        0.007      337.006        8.690      859.211
05/24/2013  08:02:00       -8.957       53.637        1.367       32.678       46.321       30.080     1067.824     2145.676      904.807        0.354        0.206       54.380       20.964        0.149      337.515        9.541      859.208
05/24/2013  08:03:00        7.993      128.085      -13.583       33.172       35.668       23.333     1100.405     1272.196      544.432        0.979        0.146      128.334       17.402        0.018      337.121        8.882      859.203
05/24/2013  08:04:00       -4.329       56.875       -1.833       19.946       31.287       23.177      397.834      978.889      537.166        0.259        0.096       57.039       15.893        0.078      337.498        9.514      859.193
05/24/2013  08:05:00      -10.261       72.083        9.581       19.230       33.047       25.248      369.790     1092.096      637.467        0.375        0.105       72.809       20.125        0.076      337.705        9.862      859.194
05/24/2013  08:06:00       -6.820        8.928       23.310       20.651       24.259       19.437      426.463      588.510      377.806        0.103        0.070       11.235       13.054        1.350      337.951       10.273      859.195
05/24/2013  08:07:00      -12.020       21.904       21.376       16.944       22.089       20.744      287.116      487.910      430.314        0.114        0.060       24.985       15.380        0.379      338.102       10.527      859.195
05/24/2013  08:08:00      -13.827       22.112       20.282       19.717       23.192       22.088      388.741      537.875      487.883        0.125        0.071       26.079       12.141        0.217      337.706        9.862      859.206
05/24/2013  08:09:00      -21.654       41.204        4.527       30.171       28.163       22.667      910.306      793.140      513.811        0.220        0.111       46.547       16.872        0.131      337.579        9.648      859.209
05/24/2013  08:10:00        0.090       47.677       14.418       21.958       43.375       24.348      482.141     1881.364      592.834        0.272        0.148       47.677       23.634        0.246      338.054       10.445      859.199
05/24/2013  08:11:00       -2.453       44.488        6.119       16.929       23.502       23.001      286.577      552.340      529.042        0.170        0.068       44.555       16.663        0.140      337.883       10.159      859.208
05/24/2013  08:12:00       -2.104       30.610        8.528       17.748       30.834       22.538      314.984      950.723      507.970        0.139        0.089       30.682       16.667        0.295      338.132       10.576      859.219
05/24/2013  08:13:00      -22.123       29.680       24.428       19.509       25.831       24.680      380.592      667.222      609.079        0.181        0.083       37.018        9.651        0.068      337.875       10.146      859.223
05/24/2013  08:14:00      -38.618       37.035        5.938       20.137       15.303       26.648      405.484      234.174      710.097        0.212        0.067       53.506       14.354        0.072      337.594        9.674      859.226
05/24/2013  08:15:00      -34.926       38.316        2.620       35.494       23.167       21.769     1259.811      536.719      473.903        0.248        0.114       51.845       13.664        0.069      337.618        9.715      859.229
05/24/2013  08:16:00        6.987       15.623       28.894       44.784       30.741       29.485     2005.572      945.039      869.351        0.247        0.191       17.114       18.326        1.147      338.027       10.401      859.224
05/24/2013  08:17:00      108.357       68.971       18.412       42.189       44.428       28.848     1779.885     1973.867      832.217        1.071        0.229      128.446       22.753        0.031      337.450        9.433      859.222
05/24/2013  08:18:00       69.724       59.688       10.534       39.951       42.210       24.174     1596.070     1781.664      584.361        0.625        0.198       91.782        8.868        0.009      337.468        9.462      859.229
05/24/2013  08:19:00        2.160       16.597       40.013       26.493       35.414       28.224      701.900     1254.130      796.611        0.232        0.138       16.737       15.149        0.819      338.315       10.885      859.232
05/24/2013  08:20:00      -13.128       32.756       66.442       16.488       31.286       22.939      271.854      978.798      526.186        0.372        0.089       35.289       21.068        0.356      338.400       11.026      859.240
05/24/2013  08:21:00       11.475       68.745       84.404       53.952       47.713       39.579     2910.774     2276.527     1566.509        0.937        0.338       69.696       36.926        0.281      337.937       10.249      859.246
05/24/2013  08:22:00       89.365       54.684        7.074       41.328       35.227       34.996     1708.020     1240.910     1224.742        0.760        0.209      104.769       20.413        0.038      337.442        9.418      859.259
05/24/2013  08:23:00       69.182       33.508        5.246       26.591       30.468       29.357      707.099      928.306      861.860        0.422        0.125       76.869       18.176        0.056      337.516        9.544      859.267
05/24/2013  08:24:00       17.320       18.846       46.439       29.274       55.075       36.827      856.963     3033.287     1356.255        0.403        0.262       25.596       41.203        2.591      337.930       10.238      859.265
05/24/2013  08:25:00       15.075      -52.924       25.141       26.053       46.733       30.018      678.776     2184.017      901.054        0.371        0.188       55.029       27.871        0.257      338.268       10.805      859.249
05/24/2013  08:26:00       -2.760       61.130       26.973       42.588       55.765       32.609     1813.741     3109.774     1063.317        0.523        0.299       61.192       29.034        0.225      338.192       10.677      859.241
05/24/2013  08:27:00       80.552       53.355       -4.475       78.811       32.547       27.729     6211.102     1059.315      768.925        0.870        0.402       96.619       24.717        0.065      338.011       10.372      859.230
05/24/2013  08:28:00      118.893       63.598       -2.216       56.021       40.921       44.697     3138.298     1674.501     1997.785        1.250        0.341      134.834       21.919        0.026      337.854       10.110      859.225
05/24/2013  08:29:00       82.730       65.786        0.449       42.615       39.320       29.000     1816.006     1546.045      841.009        0.769        0.210      105.698       22.498        0.045      338.261       10.793      859.223
05/24/2013  08:30:00       87.003       83.423        2.370       40.899       31.472       32.341     1672.722      990.483     1045.966        0.912        0.185      120.536       15.726        0.017      337.838       10.083      859.221
05/24/2013  08:31:00       52.136       38.354       18.796       44.983       29.789       27.194     2023.435      887.381      739.490        0.410        0.183       64.723       19.745        0.093      337.928       10.233      859.222
05/24/2013  08:32:00      110.753       90.507       22.439       39.456       27.185       27.164     1556.765      739.000      737.874        1.200        0.152      143.031       13.638        0.009      337.626        9.727      859.225
05/24/2013  08:33:00       39.913       53.940       46.738       37.702       37.523       35.431     1421.411     1408.004     1255.362        0.539        0.204       67.101       19.367        0.083      338.182       10.661      859.228
05/24/2013  08:34:00       14.683       24.564       55.908       32.521       33.246       29.705     1057.583     1105.329      882.394        0.349        0.152       28.618       18.580        0.422      338.883       11.838      859.224
05/24/2013  08:35:00       43.194       13.529       17.643       44.403       20.551       37.595     1971.599      422.348     1413.365        0.308        0.190       45.263       27.915        0.380      338.259       10.789      859.229
05/24/2013  08:36:00       41.377       41.391       -9.414       31.114       33.268       28.101      968.058     1106.748      789.676        0.319        0.143       58.526       14.943        0.065      337.945       10.263      859.231
05/24/2013  08:37:00       -1.828       -5.497        3.369       15.275       20.504       25.449      233.310      420.401      647.670        0.067        0.065        5.793       17.316        8.934      338.184       10.663      859.227
05/24/2013  08:38:00       21.909       47.133        8.296       24.121       34.708       27.323      581.847     1204.645      746.562        0.265        0.127       51.977       23.990        0.213      338.225       10.731      859.220
05/24/2013  08:39:00       19.439       77.298        1.177       33.710       39.986       30.634     1136.369     1598.855      938.456        0.501        0.184       79.705       24.629        0.095      338.272       10.811      859.213
05/24/2013  08:40:00       42.253       76.892       11.567       62.630       47.039       34.689     3922.538     2212.714     1203.348        0.758        0.367       87.737       26.570        0.092      338.500       11.195      859.197
05/24/2013  08:41:00       75.401       78.248       59.897       44.981       39.704       40.697     2023.319     1576.371     1656.206        1.032        0.263      108.665       25.606        0.056      338.164       10.630      859.190
05/24/2013  08:42:00       33.411       34.073       70.862       31.745       27.617       20.929     1007.730      762.700      438.037        0.475        0.110       47.721       13.230        0.077      338.193       10.679      859.177
05/24/2013  08:43:00       -0.530      -43.180       32.068       31.870       49.993       23.170     1015.717     2499.329      536.839        0.347        0.203       43.183       16.586        0.148      338.356       10.952      859.170
05/24/2013  08:44:00       -4.697      -30.895       26.208       29.512       35.201       29.531      870.929     1239.106      872.103        0.232        0.149       31.250       17.111        0.300      338.796       11.693      859.168
05/24/2013  08:45:00      -30.803       -2.598       23.848       17.832       16.020       20.182      317.995      256.639      407.322        0.125        0.049       30.912       13.317        0.186      338.593       11.351      859.179
05/24/2013  08:46:00        8.783      -52.441       14.108       25.064       37.591       29.256      628.184     1413.092      855.929        0.296        0.145       53.171       23.146        0.190      338.702       11.533      859.172
05/24/2013  08:47:00      -27.577      -14.540       -4.199       16.364       16.383       17.629      267.796      268.392      310.769        0.092        0.042       31.176        6.616        0.045      338.214       10.714      859.176
05/24/2013  08:48:00      -34.111       11.284       -0.190       14.199       15.989       12.247      201.614      255.657      149.987        0.095        0.030       35.929        5.053        0.020      338.103       10.527      859.177
05/24/2013  08:49:00      -10.148       10.229       40.721       11.254       18.457       22.733      126.645      340.665      516.810        0.142        0.049       14.409       11.422        0.628      339.462       12.813      859.158
05/24/2013  08:50:00       -1.993       42.158       71.014       36.984       39.897       27.576     1367.827     1591.777      760.455        0.527        0.186       42.205       23.303        0.305      339.424       12.748      859.143
05/24/2013  08:51:00       56.187       10.102       64.822       50.482       63.060       38.589     2548.457     3976.551     1489.085        0.774        0.401       57.088       44.129        0.598      338.388       11.006      859.139
05/24/2013  08:52:00       45.642      -57.460        6.535       34.224       51.071       37.339     1171.267     2608.281     1394.164        0.530        0.259       73.381       35.219        0.230      338.712       11.552      859.128
05/24/2013  08:53:00       -6.319       -8.564       30.160       26.964       22.457       17.657      727.048      504.310      311.759        0.128        0.077       10.643        6.911        0.422      339.215       12.398      859.120
05/24/2013  08:54:00      -21.882      -12.681        9.648       19.901       14.591       11.978      396.044      212.897      143.484        0.074        0.038       25.291        8.361        0.109      338.830       11.751      859.125
05/24/2013  08:55:00       -0.990        3.989       27.548       19.327       16.091       16.811      373.528      258.933      282.626        0.085        0.046        4.110       13.834       11.331      339.803       13.388      859.134
05/24/2013  08:56:00      -28.704        2.323       13.095       18.047       17.874       18.305      325.711      319.484      335.076        0.099        0.049       28.798        8.017        0.077      339.064       12.143      859.140
05/24/2013  08:57:00      -18.903       26.185       18.945       20.955       26.162       24.215      439.095      684.442      586.347        0.156        0.085       32.295       16.719        0.268      339.139       12.269      859.141
05/24/2013  08:58:00       -2.733       44.257       76.327       22.603       55.929       42.180      510.898     3128.083     1779.145        0.660        0.271       44.341       44.748        1.018      339.254       12.462      859.131
05/24/2013  08:59:00       72.736       90.317       76.288       59.129       34.720       47.832     3496.219     1205.490     2287.946        1.313        0.349      115.964       37.922        0.107      338.418       11.056      859.125
05/24/2013  09:00:00       44.876      109.693       98.926       54.136       48.379       48.455     2930.716     2340.482     2347.923        1.572        0.381      118.517       33.860        0.082      338.503       11.198      859.131
05/24/2013  09:01:00       70.731       80.715       38.991       49.772       26.080       42.222     2477.293      680.163     1782.696        0.899        0.247      107.320       37.998        0.125      338.648       11.441      859.138
05/24/2013  09:02:00       -2.739       47.842       92.044       21.987       50.597       28.285      483.427     2560.009      800.023        0.731        0.192       47.920       29.494        0.379      339.213       12.393      859.144
05/24/2013  09:03:00       -0.790       -3.065       44.481       37.165       41.788       35.593     1381.273     1746.255     1266.843        0.319        0.220        3.166       16.996       28.825      339.477       12.839      859.151
05/24/2013  09:04:00       -6.712      -27.653       43.982       32.809       52.622       38.309     1076.444     2769.114     1467.569        0.403        0.266       28.456       25.059        0.775      339.271       12.491      859.145
05/24/2013  09:05:00       10.732       25.847       68.726       27.716       36.888       20.856      768.179     1360.701      434.961        0.403        0.128       27.987       16.442        0.345      339.546       12.954      859.144
05/24/2013  09:06:00      -25.252      -25.136       25.642       21.113       42.032       27.757      445.754     1766.652      770.429        0.245        0.149       35.630       22.243        0.390      339.307       12.551      859.150
05/24/2013  09:07:00       20.213       44.130       78.244       35.662       29.532       21.650     1271.765      872.154      468.712        0.554        0.131       48.539       17.710        0.133      338.845       11.774      859.145
05/24/2013  09:08:00       38.855       53.928       77.690       43.540       43.899       31.469     1895.715     1927.087      990.291        0.763        0.241       66.468       33.690        0.257      338.894       11.857      859.149
05/24/2013  09:09:00       20.968       -8.522        6.870       18.590       23.362       22.709      345.586      545.804      515.686        0.098        0.070       22.634       15.562        0.473      338.748       11.611      859.155
05/24/2013  09:10:00       62.644       22.448       12.653       35.815       27.789       31.677     1282.705      772.202     1003.406        0.382        0.153       66.545       19.047        0.082      338.786       11.675      859.147
05/24/2013  09:11:00        6.492      -14.838       28.165       15.721       26.508       19.529      247.136      702.671      381.370        0.119        0.067       16.196       16.320        1.015      339.604       13.053      859.149
05/24/2013  09:12:00      -20.024       20.210       -6.592       46.597       39.972       23.206     2171.249     1597.775      538.513        0.258        0.215       28.450       16.204        0.324      338.843       11.770      859.151
05/24/2013  09:13:00       46.134       55.976       18.145       42.829       42.461       39.082     1834.301     1802.907     1527.391        0.538        0.258       72.537       23.817        0.108      338.961       11.969      859.146
05/24/2013  09:14:00      116.131       81.352       13.638       36.807       35.316       38.980     1354.758     1247.216     1519.441        1.221        0.206      141.790       25.787        0.033      338.973       11.989      859.137
05/24/2013  09:15:00      151.581       82.489        0.033       41.641       39.104       34.085     1733.996     1529.092     1161.794        1.710        0.221      172.572       16.779        0.009      338.705       11.537      859.140
05/24/2013  09:16:00      129.130      108.708       13.422       53.475       46.508       38.009     2859.590     2162.949     1444.675        1.757        0.323      168.796       23.748        0.020      338.979       11.997      859.145
05/24/2013  09:17:00       67.918       74.965       47.180       52.716       53.512       35.489     2778.963     2863.542     1259.443        0.968        0.345      101.157       17.988        0.032      339.380       12.674      859.147
05/24/2013  09:18:00       39.183       78.881        1.834       31.568       42.424       38.110      996.518     1799.838     1452.354        0.600        0.212       88.076       28.434        0.104      339.223       12.410      859.152
05/24/2013  09:19:00       28.804       48.416       10.766       28.536       46.613       34.725      814.311     2172.758     1205.804        0.374        0.210       56.336       30.310        0.289      339.375       12.666      859.145
05/24/2013  09:20:00       28.891       57.427       27.091       50.201       44.790       41.159     2520.109     2006.188     1694.026        0.554        0.311       64.285       32.079        0.249      339.488       12.856      859.142
05/24/2013  09:21:00       93.596       72.767        5.471       48.181       37.649       35.223     2321.411     1417.481     1240.670        0.953        0.249      118.554       18.748        0.025      339.155       12.295      859.127
05/24/2013  09:22:00      154.646      110.390       24.398       52.005       44.029       36.405     2704.491     1938.557     1325.294        2.133        0.298      190.003       11.353        0.004      338.901       11.866      859.127
05/24/2013  09:23:00       22.940       49.062       11.708       38.913       40.149       25.928     1514.252     1611.923      672.242        0.343        0.190       54.161       27.831        0.264      339.185       12.346      859.129
05/24/2013  09:24:00      -20.081       37.011       17.405       27.992       39.866       23.635      783.562     1589.332      558.592        0.250        0.147       42.107       22.928        0.296      340.010       13.737      859.119
05/24/2013  09:25:00      -85.781       75.206       -9.373       25.186       42.442       22.550      634.355     1801.330      508.490        0.802        0.147      114.080       16.957        0.022      338.994       12.024      859.130
05/24/2013  09:26:00      -99.041       63.681      -13.759       27.163       33.648       24.685      737.806     1132.168      609.357        0.827        0.124      117.747       18.559        0.025      338.819       11.731      859.141
05/24/2013  09:27:00      -58.412       85.246      -10.160       34.057       35.057       28.933     1159.890     1229.020      837.104        0.700        0.161      103.338       16.146        0.024      338.996       12.027      859.144
05/24/2013  09:28:00      -82.526        0.863      -17.727       53.120       47.277       30.399     2821.738     2235.152      924.093        0.655        0.299       82.530       16.571        0.040      338.805       11.706      859.149
05/24/2013  09:29:00      -37.007      -20.900       12.704       37.171       38.930       32.143     1381.706     1515.575     1033.195        0.295        0.197       42.501       34.228        0.649      339.370       12.659      859.127
05/24/2013  09:30:00      -27.106       25.469       21.518       38.522       29.363       26.754     1483.922      862.193      715.774        0.245        0.153       37.194       14.793        0.158      339.775       13.341      859.128
05/24/2013  09:31:00       36.487       71.721        4.314       41.428       32.027       31.045     1716.261     1025.757      963.774        0.510        0.185       80.469       25.697        0.102      339.539       12.943      859.135
05/24/2013  09:32:00       84.396       65.304       23.879       27.164       23.851       32.716      737.858      568.848     1070.346        0.717        0.119      106.711       15.255        0.020      339.144       12.276      859.132
05/24/2013  09:33:00       84.860       49.602        3.065       37.495       27.929       23.089     1405.858      780.040      533.107        0.619        0.136       98.293       14.841        0.023      339.015       12.060      859.125
05/24/2013  09:34:00       73.638       25.045        6.188       54.776       37.233       35.663     3000.360     1386.312     1271.829        0.587        0.283       77.781       14.767        0.036      339.365       12.651      859.124
05/24/2013  09:35:00       -9.128       -0.779       24.463       18.646       16.232       15.312      347.666      263.476      234.468        0.076        0.042        9.162       10.505        1.315      340.393       14.383      859.121
05/24/2013  09:36:00        4.122       14.340       31.735       21.709       19.686       19.554      471.262      387.543      382.358        0.124        0.062       14.921       10.704        0.515      340.547       14.644      859.119
05/24/2013  09:37:00        9.262       42.705        4.790       31.958       35.606       29.622     1021.313     1267.774      877.491        0.255        0.158       43.698       22.242        0.259      340.049       13.802      859.104
05/24/2013  09:38:00      -36.374        9.973       -3.917       15.596       21.894       19.028      243.223      479.365      362.068        0.126        0.054       37.717       14.199        0.142      339.488       12.855      859.092
05/24/2013  09:39:00      -74.565      -35.188       -1.452       76.159       48.626       29.051     5800.193     2364.508      843.941        0.790        0.450       82.451       34.365        0.174      339.512       12.894      859.092
05/24/2013  09:40:00      -50.530      -40.279        2.829       78.843       39.022       32.170     6216.200     1522.690     1034.900        0.648        0.439       64.619       42.332        0.429      339.698       13.210      859.080
05/24/2013  09:41:00      -99.496      -24.565      -11.034       43.290       18.402       21.303     1874.014      338.636      453.838        0.665        0.133      102.484       17.029        0.028      339.227       12.416      859.069
05/24/2013  09:42:00      -36.455      -41.398       -6.006       61.880       24.531       21.712     3829.195      601.773      471.400        0.399        0.245       55.161       25.383        0.212      339.565       12.986      859.058
05/24/2013  09:43:00       19.525      -47.990        0.506       20.832       44.848       29.259      433.980     2011.300      856.072        0.299        0.165       51.810       26.606        0.264      339.872       13.504      859.048
05/24/2013  09:44:00       31.399      118.377      -12.867       37.548       59.717       39.106     1409.852     3566.066     1529.269        1.083        0.325      122.471       36.118        0.087      339.474       12.832      859.056
05/24/2013  09:45:00      -29.299      103.795        5.353       43.111       58.794       38.282     1858.547     3456.762     1465.506        0.922        0.339      107.851       33.710        0.098      339.767       13.326      859.047
05/24/2013  09:46:00      -13.093       87.133        6.898       28.409       53.813       33.032      807.075     2895.810     1091.118        0.630        0.240       88.111       27.038        0.094      340.204       14.065      859.042
05/24/2013  09:47:00      -11.956       83.571        9.209       32.594       51.906       35.050     1062.367     2694.184     1228.529        0.610        0.249       84.422       27.343        0.105      340.236       14.119      859.032
05/24/2013  09:48:00       12.478      184.186       -8.673       47.605       99.203       49.025     2266.215     9841.155     2403.457        2.433        0.726      184.608       53.206        0.083      339.934       13.606      859.030
05/24/2013  09:49:00      -21.761      165.549      -11.531       37.569       58.782       41.779     1411.439     3455.372     1745.496        1.731        0.331      166.973       37.309        0.050      339.726       13.255      859.040
05/24/2013  09:50:00      -22.574       87.488       10.214       37.087       55.191       32.455     1375.420     3046.015     1053.347        0.687        0.274       90.353       34.030        0.142      340.290       14.211      859.035
05/24/2013  09:51:00       50.945       68.444       11.794       43.302       58.889       31.219     1875.106     3467.857      974.638        0.687        0.316       85.323       21.645        0.064      340.158       13.987      859.043
05/24/2013  09:52:00       29.682       76.104      114.562       48.628       52.435       31.168     2364.652     2749.420      971.445        1.294        0.304       81.688       29.592        0.131      339.886       13.527      859.026
05/24/2013  09:53:00       16.554       44.480       77.805       43.174       38.826       37.042     1864.018     1507.479     1372.073        0.652        0.237       47.461       29.753        0.393      339.925       13.593      859.019
05/24/2013  09:54:00       35.007       18.860       25.173       31.169       46.148       56.712      971.513     2129.657     3216.236        0.427        0.316       39.764       31.048        0.610      340.103       13.893      859.030
05/24/2013  09:55:00       98.906       49.558       42.907       64.730       41.150       42.035     4190.001     1693.338     1766.931        1.086        0.383      110.627       32.261        0.085      340.054       13.812      859.024
05/24/2013  09:56:00       74.739       49.868        8.122       58.357       54.312       41.877     3405.518     2949.777     1753.675        0.812        0.405       89.848       34.001        0.143      339.827       13.427      859.009
05/24/2013  09:57:00       64.084       55.102       15.350       90.223       43.262       42.168     8140.168     1871.567     1778.142        0.958        0.589       84.516       33.467        0.157      340.017       13.749      859.001
05/24/2013  09:58:00       57.752       78.208       -2.319       54.889       72.073       34.775     3012.761     5194.560     1209.292        0.944        0.471       97.220       32.950        0.115      339.864       13.489      858.981
05/24/2013  09:59:00       36.413       90.491       12.636       53.458       65.878       51.560     2857.771     4339.884     2658.382        0.976        0.493       97.543       46.916        0.231      340.266       14.169      858.963
05/24/2013  10:00:00      119.996       80.567        7.755       70.962       48.907       39.727     5035.639     2391.902     1578.228        1.498        0.450      144.534       22.498        0.024      340.134       13.943      858.960
05/24/2013  10:01:00      186.779      118.879       29.831       56.666       52.154       38.181     3211.012     2719.992     1457.822        2.865        0.369      221.402       34.592        0.024      339.848       13.457      858.934
05/24/2013  10:02:00      102.084       81.403       12.659       45.806       34.971       30.713     2098.147     1222.964      943.299        1.074        0.213      130.566       24.561        0.035      339.938       13.614      858.917
05/24/2013  10:03:00      142.780      129.058       85.524       75.324       56.139       62.555     5673.730     3151.569     3913.124        2.855        0.637      192.464       54.738        0.081      340.289       14.204      858.899
05/24/2013  10:04:00       94.533       72.641       42.558       53.530       63.909       36.687     2865.501     4084.418     1345.941        1.216        0.415      119.219       25.287        0.045      339.912       13.569      858.888
05/24/2013  10:05:00      101.566       95.601       22.768       47.668       37.853       39.999     2272.285     1432.848     1599.927        1.264        0.265      139.482       24.400        0.031      340.124       13.929      858.875
05/24/2013  10:06:00      101.591       93.733       53.305       63.538       34.250       44.967     4037.088     1173.085     2021.997        1.459        0.362      138.227       43.131        0.097      339.961       13.652      858.865
05/24/2013  10:07:00       80.333       61.335        8.802       69.437       53.370       38.359     4821.528     2848.333     1471.383        0.972        0.457      101.071       23.279        0.053      340.116       13.914      858.848
05/24/2013  10:08:00       26.123       -8.585       62.867       46.812       91.941       49.622     2191.329     8453.082     2462.307        0.891        0.655       27.497       50.844        3.419      340.956       15.335      858.844
05/24/2013  10:09:00       66.757      109.767      106.183       53.525       47.064       47.690     2864.940     2215.066     2274.296        1.757        0.368      128.473       32.511        0.064      340.435       14.453      858.844
05/24/2013  10:10:00       63.172       66.491       72.744       68.693       63.431       39.222     4718.722     4023.432     1538.384        1.199        0.514       91.715       44.318        0.233      340.221       14.092      858.841
05/24/2013  10:11:00       15.144      -32.596        0.493       45.743       60.806       30.284     2092.467     3697.401      917.102        0.400        0.335       35.942       32.542        0.820      340.249       14.141      858.832
05/24/2013  10:12:00      -42.866       16.867        2.129       38.411       21.358       26.965     1475.439      456.170      727.117        0.239        0.133       46.065       11.975        0.068      340.537       14.625      858.820
05/24/2013  10:13:00       -1.871       45.017      -38.824       33.958       63.615       29.394     1153.164     4046.885      864.001        0.480        0.303       45.056       28.156        0.391      340.339       14.290      858.815
05/24/2013  10:14:00      -33.628       25.715      -22.674       33.960       25.494       27.689     1153.280      649.922      766.683        0.244        0.128       42.333        7.819        0.034      340.456       14.489      858.797
05/24/2013  10:15:00      -36.172       22.686       -3.518       31.805       27.968       30.919     1011.549      782.228      956.000        0.229        0.137       42.697       22.108        0.268      340.682       14.872      858.794
05/24/2013  10:16:00      -19.339      -11.813        1.819       26.556       13.737       20.561      705.228      188.714      422.764        0.092        0.066       22.662       15.167        0.448      340.773       15.026      858.798
05/24/2013  10:17:00       19.755       27.364       41.243       57.927       67.277       64.652     3355.586     4526.235     4179.939        0.745        0.603       33.750       52.722        2.440      340.982       15.380      858.771
05/24/2013  10:18:00      156.421      105.715       61.138       89.813       58.296       49.619     8066.364     3398.462     2462.067        2.665        0.696      188.794       38.837        0.042      340.639       14.797      858.761
05/24/2013  10:19:00      186.830      141.264       39.758       68.207       63.032       67.730     4652.240     3973.073     4587.352        3.482        0.661      234.224       44.953        0.037      340.481       14.527      858.761
05/24/2013  10:20:00      144.920      109.491       38.892       70.642       58.607       48.452     4990.272     3434.785     2347.581        2.264        0.539      181.632       29.280        0.026      340.594       14.720      858.759
05/24/2013  10:21:00      134.377       91.509        1.412       88.439       47.463       35.485     7821.423     2252.759     1259.176        1.888        0.567      162.577       28.749        0.031      340.390       14.377      858.763
05/24/2013  10:22:00       59.940       45.961       40.978       47.326       45.997       44.952     2239.704     2115.722     2020.705        0.688        0.319       75.532       33.279        0.194      340.905       15.249      858.765
05/24/2013  10:23:00       -0.652       31.979       73.656       37.590       49.955       25.337     1413.007     2495.504      641.985        0.550        0.228       31.985       24.801        0.601      341.169       15.696      858.755
05/24/2013  10:24:00       98.903       74.965       25.069       71.937       42.105       43.044     5174.955     1772.840     1852.825        1.241        0.440      124.103       22.144        0.032      341.079       15.542      858.741
05/24/2013  10:25:00      131.720       78.958       11.680       72.987       38.644       48.165     5327.071     1493.370     2319.891        1.643        0.457      153.573       22.748        0.022      340.770       15.021      858.740
05/24/2013  10:26:00       84.488       92.420        6.976       50.079       43.958       39.742     2507.937     1932.297     1579.390        1.087        0.301      125.218       22.792        0.033      340.840       15.138      858.731
05/24/2013  10:27:00       37.942       80.879       60.592       61.794       57.390       65.953     3818.530     3293.666     4349.853        1.156        0.573       89.337       34.100        0.146      341.245       15.824      858.728
05/24/2013  10:28:00      115.583       95.446       64.390       79.480       50.973       48.510     6317.018     2598.267     2353.202        1.894        0.563      149.898       45.769        0.093      340.927       15.284      858.735
05/24/2013  10:29:00      151.367       84.045       -2.833       53.640       59.666       35.486     2877.280     3560.035     1259.282        1.884        0.385      173.135       25.761        0.022      340.345       14.299      858.735
05/24/2013  10:30:00       14.492       48.091      -11.450       44.031       49.288       28.111     1938.758     2429.319      790.246        0.391        0.258       50.227       24.056        0.229      340.608       14.747      858.724
05/24/2013  10:31:00       95.531       92.307        4.622       54.171       40.915       32.058     2934.502     1674.035     1027.726        1.165        0.282      132.841       22.532        0.029      340.683       14.871      858.723
05/24/2013  10:32:00       90.803       69.025       10.781       55.825       41.629       41.034     3116.439     1732.933     1683.799        0.983        0.327      114.059       21.708        0.036      340.889       15.220      858.715
05/24/2013  10:33:00      177.192       60.323       23.922       61.016       42.485       46.990     3722.973     1804.948     2208.105        2.167        0.387      187.179       24.939        0.018      340.673       14.853      858.725
05/24/2013  10:34:00       44.300       48.021      -12.140       36.583       23.312       27.530     1338.310      543.470      757.884        0.353        0.132       65.334        8.213        0.016      340.781       15.038      858.718
05/24/2013  10:35:00       96.156       83.588       57.677       74.207       57.736       75.021     5506.705     3333.482     5628.203        1.701        0.723      127.408       32.091        0.063      341.037       15.471      858.709
05/24/2013  10:36:00       55.209      -48.555       22.599       55.134      143.844       41.485     3039.725    20691.203     1720.977        1.568        1.273       73.523       55.678        0.573      341.059       15.508      858.720
05/24/2013  10:37:00       66.189       -5.484       62.874       64.787      151.743       76.434     4197.316    23026.002     5842.120        2.071        1.653       66.416       96.616        2.116      341.254       15.838      858.712
05/24/2013  10:38:00       68.834        2.617       44.700       71.423      104.636       65.031     5101.280    10948.722     4229.087        1.351        1.014       68.883       74.691        1.176      341.300       15.915      858.710
05/24/2013  10:39:00      167.845      104.635       62.371       78.983       63.692       58.891     6238.362     4056.610     3468.123        2.838        0.688      197.789       40.533        0.042      340.728       14.946      858.714
05/24/2013  10:40:00      146.696      101.779       28.624       77.898       60.851       53.008     6068.110     3702.809     2809.803        2.264        0.629      178.546       40.103        0.050      341.047       15.487      858.704
05/24/2013  10:41:00       86.106       69.117       73.353       90.802       73.184       53.627     8244.947     5355.852     2875.853        1.702        0.824      110.415       57.822        0.274      341.414       16.109      858.686
05/24/2013  10:42:00       36.827       72.326       91.954       55.224       73.745       47.788     3049.637     5438.276     2283.650        1.291        0.539       81.162       37.106        0.209      341.565       16.365      858.691
05/24/2013  10:43:00      136.221      110.622       33.555       66.080       54.991       52.640     4366.615     3024.025     2771.012        2.104        0.508      175.481        9.814        0.003      340.898       15.235      858.699
05/24/2013  10:44:00      124.015       89.346       10.837       54.178       44.986       34.744     2935.212     2023.740     1207.113        1.482        0.308      152.848       24.562        0.026      340.832       15.125      858.683
05/24/2013  10:45:00      -63.750       -4.487       -2.530       70.453       61.595       30.120     4963.588     3793.990      907.233        0.688        0.483       63.908       19.048        0.089      341.144       15.653      858.680
05/24/2013  10:46:00       79.269     -141.728       -0.175       59.744       67.613       47.729     3569.358     4571.564     2278.070        1.839        0.521      162.390       45.518        0.079      341.331       15.969      858.679
05/24/2013  10:47:00       78.327     -140.330       -2.625       61.387      104.159       50.562     3768.352    10849.056     2556.522        2.150        0.859      160.709       64.300        0.160      341.227       15.793      858.672
05/24/2013  10:48:00       84.065     -128.181       -4.817       80.907       99.800       66.405     6545.896     9960.117     4409.582        2.221        1.046      153.288       63.513        0.172      341.290       15.899      858.660
05/24/2013  10:49:00       50.273      -80.376        0.736       55.395       74.296       36.272     3068.587     5519.822     1315.693        0.944        0.495       94.804       39.531        0.174      341.330       15.966      858.652
05/24/2013  10:50:00        7.990      -10.842       47.452       35.477       67.546       38.283     1258.585     4562.414     1465.558        0.486        0.364       13.468       41.983        9.716      341.827       16.809      858.632
05/24/2013  10:51:00       59.340     -107.431        7.260       68.015      103.952       62.156     4626.106    10805.940     3863.375        1.720        0.965      122.731       68.145        0.308      341.484       16.227      858.617
05/24/2013  10:52:00       25.872      -25.561       51.530       49.353       86.535       55.769     2435.736     7488.224     3110.139        0.850        0.652       36.370       43.586        1.436      341.917       16.963      858.607
05/24/2013  10:53:00      126.044       90.784       46.816       87.793       89.867       82.246     7707.609     8076.124     6764.429        2.443        1.127      155.335       56.889        0.134      341.496       16.248      858.605
05/24/2013  10:54:00       49.038      -12.344       37.580       70.446      104.035       75.694     4962.569    10823.362     5729.574        1.274        1.076       50.568       58.911        1.357      341.631       16.477      858.596
05/24/2013  10:55:00       76.015       48.749       39.402       86.452       67.745       62.091     7473.999     4589.402     3855.273        1.281        0.796       90.304       50.245        0.310      341.881       16.902      858.600
05/24/2013  10:56:00       48.009       69.133        6.793       74.442       76.348       56.774     5541.649     5829.087     3223.232        1.086        0.730       84.168       47.759        0.322      341.628       16.472      858.594
05/24/2013  10:57:00       60.502       19.163        6.896       84.064       71.969       42.476     7066.816     5179.605     1804.215        0.906        0.703       63.464       36.320        0.328      341.959       17.034      858.585
05/24/2013  10:58:00       74.211      -11.029       18.409       61.044       81.900       45.136     3726.421     6707.691     2037.240        0.922        0.624       75.026       32.637        0.189      341.861       16.868      858.572
05/24/2013  10:59:00      123.321       34.659       40.084       84.608       98.103       66.409     7158.515     9624.227     4410.113        1.960        1.060      128.099       18.794        0.022      341.801       16.765      858.568
05/24/2013  11:00:00      165.645     -156.556       26.778       94.852      155.900       77.919     8996.947    24304.955     6071.386        4.601        1.969      227.922      103.483        0.206      341.426       16.127      858.578
05/24/2013  11:01:00      110.003        7.501       68.305       99.102      114.168       79.745     9821.278    13034.429     6359.215        2.301        1.461      110.258       78.913        0.512      341.627       16.471      858.560
05/24/2013  11:02:00       38.425       79.446      119.128       74.669       99.357       65.424     5575.456     9871.839     4280.299        2.085        0.986       88.251       66.559        0.569      341.697       16.589      858.560
05/24/2013  11:03:00       71.009      -63.177       38.413       97.604      175.577       99.623     9526.495    30827.223     9924.731        3.039        2.514       95.045      125.015        1.730      341.549       16.337      858.560
05/24/2013  11:04:00      193.618     -211.132      -42.668       67.668       95.839       48.474     4579.003     9185.136     2349.746        5.000        0.806      286.469       49.188        0.029      341.263       15.852      858.553
05/24/2013  11:05:00       82.534     -180.183      -40.590       73.963       87.074       65.196     5470.505     7581.867     4250.535        2.911        0.865      198.186       55.194        0.078      341.409       16.099      858.539
05/24/2013  11:06:00       20.498      -23.933       36.994       43.344       93.824       52.261     1878.665     8803.010     2731.258        0.788        0.671       31.511       61.344        3.790      341.783       16.736      858.536
05/24/2013  11:07:00      109.877     -112.933       12.691      102.485      140.786       77.445    10503.199    19820.765     5997.782        3.065        1.816      157.566       94.265        0.358      341.642       16.495      858.524
05/24/2013  11:08:00      114.197      -99.383       17.821       65.680      113.586       72.250     4313.805    12901.802     5220.077        2.283        1.122      151.387       79.851        0.278      341.524       16.295      858.521
05/24/2013  11:09:00       61.557        2.010       50.072       54.458       68.814       45.615     2965.665     4735.349     2080.725        0.804        0.489       61.590       47.935        0.606      341.505       16.264      858.516
05/24/2013  11:10:00       16.223        3.774       15.323       37.975       22.624       20.651     1442.132      511.827      426.453        0.145        0.119       16.656        9.191        0.304      341.746       16.674      858.512
05/24/2013  11:11:00       16.445       -1.412       36.793       43.995       53.959       36.204     1935.592     2911.520     1310.754        0.389        0.308       16.506       22.110        1.794      341.836       16.826      858.502
05/24/2013  11:12:00      118.776       91.590       53.068       98.882       57.293       64.596     9777.661     3282.533     4172.690        2.127        0.862      149.988       55.924        0.139      341.819       16.795      858.507
05/24/2013  11:13:00       38.259       66.062       80.765       60.699       73.559       42.231     3684.384     5410.858     1783.433        1.161        0.544       76.341       40.954        0.288      341.884       16.905      858.522
05/24/2013  11:14:00        9.381      -53.184       32.823       55.792       48.660       30.199     3112.712     2367.830      911.967        0.519        0.320       54.005       22.719        0.177      341.633       16.481      858.525
05/24/2013  11:15:00        4.488       36.446       19.278       35.825       33.548       29.260     1283.404     1125.484      856.131        0.249        0.163       36.721       18.519        0.254      342.160       17.375      858.537
05/24/2013  11:16:00       49.991       70.410       50.768       43.150       51.483       45.941     1861.905     2650.494     2110.537        0.833        0.331       86.352       21.029        0.059      341.956       17.030      858.542
05/24/2013  11:17:00       87.751       57.677       26.267       68.516       50.362       40.672     4694.374     2536.285     1654.174        1.030        0.444      105.010       18.208        0.030      341.704       16.602      858.538
05/24/2013  11:18:00       26.499       32.213        4.404       43.273       49.575       33.252     1872.567     2457.711     1105.678        0.360        0.272       41.712       19.759        0.224      341.629       16.476      858.545
05/24/2013  11:19:00       17.231       44.418        6.127       27.250       44.423       25.655      742.562     1973.372      658.181        0.284        0.169       47.643       25.197        0.280      341.624       16.465      858.535
05/24/2013  11:20:00      -71.697       45.579       -5.938       21.364       21.957       24.047      456.405      482.130      578.271        0.438        0.076       84.959       19.068        0.050      341.409       16.104      858.521
05/24/2013  11:21:00     -123.941       21.939       -9.055       48.340       22.916       15.417     2336.800      525.164      237.670        0.951        0.155      125.868       14.349        0.013      341.161       15.682      858.501
05/24/2013  11:22:00     -220.224      -12.338      -11.634       33.282       51.919       29.311     1107.707     2695.614      859.144        2.672        0.233      220.569       23.913        0.012      341.200       15.743      858.471
05/24/2013  11:23:00     -164.597      -10.212      -10.696       51.856       58.126       30.415     2689.062     3378.646      925.078        1.715        0.350      164.913       30.446        0.034      341.436       16.148      858.462
05/24/2013  11:24:00      -81.628        7.561        1.504       72.700       52.773       31.815     5285.279     2785.005     1012.189        0.790        0.454       81.977       30.476        0.138      341.758       16.692      858.463
05/24/2013  11:25:00      -41.201      -25.505        2.302       26.157       26.941       16.961      684.191      725.826      287.682        0.203        0.085       48.457       16.449        0.115      341.973       17.058      858.443
05/24/2013  11:26:00      -17.880      -15.060       14.431       29.910       34.676       26.249      894.599     1202.420      688.989        0.177        0.139       23.378       16.965        0.527      342.444       17.859      858.427
05/24/2013  11:27:00       16.279        6.744       20.822       47.193       50.285       28.006     2227.151     2528.554      784.333        0.314        0.277       17.621       14.436        0.671      342.240       17.510      858.398
05/24/2013  11:28:00     -104.060      -70.095        7.784       78.942       68.249       30.986     6231.895     4657.947      960.149        1.382        0.592      125.466       29.001        0.053      342.009       17.119      858.358
05/24/2013  11:29:00      -76.098      -31.639       21.543       84.629       32.533       28.759     7162.059     1058.425      827.086        0.815        0.452       82.413       41.889        0.258      342.228       17.493      858.355
05/24/2013  11:30:00      -37.221      -35.547       -1.467       43.511       39.484       30.290     1893.170     1558.960      917.496        0.351        0.218       51.469       26.893        0.273      341.889       16.916      858.338
05/24/2013  11:31:00      -39.861       17.404        2.905       30.579       27.386       32.025      935.101      750.018     1025.572        0.231        0.136       43.495       17.417        0.160      342.199       17.442      858.322
05/24/2013  11:32:00        0.678       -5.714       25.519       47.833       51.352       39.865     2287.957     2636.985     1589.188        0.360        0.326        5.754       30.600       28.283      342.841       18.532      858.300
05/24/2013  11:33:00       27.152       11.133       31.338       33.979       37.364       37.020     1154.596     1396.062     1370.502        0.288        0.196       29.345       20.626        0.494      342.728       18.340      858.295
05/24/2013  11:34:00       43.348       43.009       61.725       42.534       42.812       35.479     1809.171     1832.899     1258.753        0.622        0.245       61.064       20.682        0.115      342.308       17.626      858.277
05/24/2013  11:35:00       19.335       41.417       58.969       31.483       39.433       33.644      991.187     1554.965     1131.887        0.462        0.184       45.708       24.241        0.281      342.134       17.331      858.274
05/24/2013  11:36:00       -4.856      -59.148       13.702       53.284       74.579       39.843     2839.153     5562.035     1587.502        0.685        0.499       59.347       39.911        0.452      342.496       17.946      858.273
05/24/2013  11:37:00      -41.547      -11.340       32.770       84.616       52.490       40.854     7159.881     2755.222     1669.021        0.725        0.579       43.066       50.666        1.384      342.539       18.018      858.274
05/24/2013  11:38:00       49.146      -28.676       -3.873       57.268       66.657       42.337     3279.622     4443.122     1792.401        0.638        0.476       56.901       45.247        0.632      342.153       17.364      858.280
05/24/2013  11:39:00        6.688      -13.055       31.404       36.801       45.278       35.978     1354.326     2050.109     1294.400        0.295        0.235       14.668       28.256        3.711      342.647       18.203      858.265
05/24/2013  11:40:00       38.771       26.926       41.755       42.257       42.547       32.519     1785.686     1810.206     1057.494        0.431        0.233       47.203       30.601        0.420      342.257       17.540      858.262
05/24/2013  11:41:00       31.038       72.355       81.172       63.041       57.232       43.741     3974.200     3275.545     1913.298        1.097        0.458       78.732       35.910        0.208      342.559       18.054      858.252
05/24/2013  11:42:00       45.670       63.127       14.779       52.948       49.480       42.771     2803.540     2448.250     1829.392        0.668        0.354       77.915       27.373        0.123      342.469       17.902      858.250
05/24/2013  11:43:00      -29.831       35.907        0.932       34.126       53.675       30.850     1164.602     2880.952      951.697        0.359        0.250       46.682       21.839        0.219      342.430       17.834      858.233
05/24/2013  11:44:00       34.016       14.371       30.359       46.806       26.406       29.689     2190.797      697.295      881.413        0.303        0.188       36.927       12.086        0.107      342.688       18.273      858.212
05/24/2013  11:45:00       43.663       32.580       48.872       42.255       67.179       49.701     1785.462     4512.991     2470.164        0.706        0.438       54.479       46.175        0.718      342.486       17.930      858.194
05/24/2013  11:46:00        3.226       21.829       55.519       47.652       48.999       34.875     2270.724     2400.918     1216.258        0.473        0.294       22.066       30.515        1.912      342.962       18.740      858.164
05/24/2013  11:47:00       46.290      -46.830       44.267       63.438       97.989       65.209     4024.361     9601.759     4252.150        1.208        0.894       65.847       69.035        1.099      342.364       17.723      858.142
05/24/2013  11:48:00       75.503      -55.855       39.959       89.603      123.358       63.357     8028.705    15217.315     4014.047        1.883        1.363       93.917       80.177        0.729      342.582       18.092      858.133
05/24/2013  11:49:00       29.820       55.309       69.070       74.396      121.676       88.532     5534.823    14805.067     7837.921        1.844        1.409       62.835       73.803        1.380      342.591       18.106      858.110
05/24/2013  11:50:00       16.362        3.890       46.674       52.757       41.098       34.031     2783.265     1689.046     1158.087        0.404        0.282       16.818       30.265        3.238      342.837       18.527      858.125
05/24/2013  11:51:00       26.864       87.913       -3.391       44.538       77.531       35.307     1983.672     6011.131     1246.575        0.885        0.462       91.926       34.666        0.142      342.327       17.660      858.117
05/24/2013  11:52:00       13.271       50.927       13.638       37.606       31.723       29.122     1414.213     1006.349      848.065        0.311        0.163       52.628       23.409        0.198      342.628       18.172      858.113
05/24/2013  11:53:00      -28.274       47.564        5.667       37.573       39.903       31.633     1411.694     1592.288     1000.660        0.355        0.200       55.333       22.590        0.167      342.984       18.776      858.094
05/24/2013  11:54:00      -87.715       64.894      -13.580       44.655       43.491       28.841     1994.073     1891.467      831.794        0.840        0.236      109.111       27.930        0.066      342.296       17.607      858.091
05/24/2013  11:55:00      -89.051       26.582        1.362       38.345       30.171       36.299     1470.324      910.291     1317.622        0.617        0.185       92.934       30.228        0.106      342.376       17.743      858.073
05/24/2013  11:56:00       33.105      -13.840       39.597       76.905       78.347       47.755     5914.332     6138.178     2280.546        0.859        0.717       35.882       47.314        1.739      343.151       19.062      858.076
05/24/2013  11:57:00       56.686      -10.211       20.442       94.037       50.177       33.446     8842.999     2517.690     1118.607        0.811        0.624       57.599       37.505        0.424      342.898       18.629      858.074
05/24/2013  11:58:00        8.464        4.518       57.045       43.617       84.586       59.931     1902.436     7154.798     3591.714        0.800        0.632        9.594       63.510       43.819      343.053       18.895      858.073
05/24/2013  11:59:00       46.130       -6.023       55.759       65.990      121.370       66.356     4354.694    14730.698     4403.143        1.438        1.174       46.521       82.419        3.139      342.633       18.178      858.047
05/24/2013  12:00:00      131.766     -178.278        5.183       91.233      112.410       76.411     8323.447    12635.977     5838.568        3.798        1.340      221.688       79.959        0.130      342.756       18.386      858.021
05/24/2013  12:01:00       30.891       36.423      106.436       64.193      116.545       70.740     4120.683    13582.651     5004.108        1.815        1.135       47.759       68.646        2.066      342.720       18.326      858.008
05/24/2013  12:02:00       90.202       33.662       62.816       94.331       64.938       58.213     8898.337     4216.989     3388.780        1.486        0.825       96.278       54.138        0.316      342.398       17.779      858.002
05/24/2013  12:03:00       35.221      -18.725       45.841       85.335      100.905       56.716     7282.138    10181.736     3216.759        1.218        1.034       39.889       60.264        2.283      342.579       18.087      857.989
05/24/2013  12:04:00      167.857      -78.797       39.382       95.727       89.554       70.931     9163.753     8019.925     5031.206        2.907        1.111      185.432       65.072        0.123      342.464       17.891      857.986
05/24/2013  12:05:00      168.421       27.930       58.712      120.261       81.486       73.235    14462.599     6639.924     5363.363        2.952        1.323      170.721       63.997        0.141      342.387       17.760      857.990
05/24/2013  12:06:00      146.225     -126.326       -4.277       86.526       64.777       53.816     7486.753     4196.015     2896.166        2.597        0.729      193.235       38.181        0.039      342.305       17.619      857.971
05/24/2013  12:07:00      139.035       37.506       25.892       66.975      111.164       54.781     4485.714    12357.531     3001.001        2.062        0.992      144.004       53.955        0.140      342.201       17.443      857.965
05/24/2013  12:08:00      114.634       89.339       23.848       69.127       65.520       46.073     4778.565     4292.902     2122.764        1.644        0.560      145.335       19.479        0.018      342.780       18.428      857.929
05/24/2013  12:09:00       27.067        6.919       22.572       51.039       53.298       45.694     2604.958     2840.709     2087.899        0.441        0.377       27.938       25.549        0.836      342.833       18.520      857.939
05/24/2013  12:10:00        8.919        9.891       54.493       38.858       66.002       51.802     1509.912     4356.214     2683.405        0.585        0.427       13.318       52.872       15.760      342.540       18.022      857.943
05/24/2013  12:11:00       62.820       17.430       72.661       72.016       82.269       52.810     5186.236     6768.166     2788.865        1.213        0.737       65.193       50.561        0.601      342.620       18.156      857.909
05/24/2013  12:12:00       22.724      -46.121       32.636       37.638       67.491       41.707     1416.638     4555.043     1739.436        0.571        0.386       51.416       38.137        0.550      342.922       18.671      857.911
05/24/2013  12:13:00      158.887     -181.196      -19.567       92.496       87.532       65.492     8555.439     7661.910     4289.202        3.948        1.025      240.991       63.374        0.069      342.775       18.417      857.908
05/24/2013  12:14:00      113.517     -111.518       -8.526      112.238      112.310       75.302    12597.419    12613.479     5670.442        2.813        1.544      159.130       73.151        0.211      342.931       18.683      857.891
05/24/2013  12:15:00       47.761      -34.082       17.729       80.803       79.649       62.945     6529.126     6344.005     3962.096        1.029        0.842       58.675       57.138        0.948      343.653       19.917      857.896
05/24/2013  12:16:00       48.850     -102.671        4.023       59.159       73.917       49.292     3499.785     5463.747     2429.666        1.217        0.570      113.700       43.908        0.149      343.166       19.087      857.887
05/24/2013  12:17:00       65.399      -40.193       53.166       65.562       99.765       60.783     4298.419     9952.989     3694.569        1.333        0.897       76.763       67.465        0.772      343.118       19.003      857.865
05/24/2013  12:18:00       35.618      -13.087       50.800       80.935       70.023       53.388     6550.524     4903.267     2850.274        0.916        0.715       37.947       40.005        1.111      342.988       18.784      857.861
05/24/2013  12:19:00      -74.149      -22.347       15.275       50.519       43.454       29.768     2552.179     1888.258      886.163        0.578        0.266       77.443       27.766        0.129      343.005       18.812      857.845
05/24/2013  12:20:00      -25.681        5.311       15.834       40.379       34.902       33.104     1630.477     1218.160     1095.849        0.244        0.197       26.224       24.284        0.857      343.146       19.053      857.824
05/24/2013  12:21:00       38.366       52.720      102.596       74.062       73.917       57.518     5485.201     5463.727     3308.311        1.451        0.713       65.202       46.401        0.506      343.235       19.204      857.819
05/24/2013  12:22:00      108.671       49.421       57.629       50.305       58.707       53.256     2530.553     3446.499     2836.229        1.319        0.441      119.381       20.973        0.031      342.689       18.274      857.826
05/24/2013  12:23:00       31.382       40.595       19.409       79.594       68.430       39.449     6335.193     4682.700     1556.228        0.779        0.629       51.310       41.590        0.657      342.950       18.720      857.797
05/24/2013  12:24:00       87.970       67.422       96.688       80.788       74.106       49.569     6526.624     5491.688     2457.068        1.805        0.724      110.835       41.596        0.141      343.102       18.976      857.758
05/24/2013  12:25:00      120.641     -192.951      -14.185      108.042       94.683       50.740    11672.992     8964.868     2574.519        3.759        1.161      227.561       64.622        0.081      343.062       18.907      857.745
05/24/2013  12:26:00       58.903       22.509       79.518       76.084       99.855       64.473     5788.713     9970.928     4156.704        1.510        0.996       63.057       68.426        1.178      343.294       19.304      857.736
05/24/2013  12:27:00       71.020      -31.555       55.477       81.587       96.541       72.793     6656.450     9320.097     5298.858        1.519        1.064       77.715       64.203        0.683      343.253       19.234      857.707
05/24/2013  12:28:00       83.966      -72.801       17.750       70.437       79.670       46.705     4961.343     6347.288     2181.388        1.308        0.675      111.132       42.984        0.150      343.070       18.922      857.711
05/24/2013  12:29:00       43.287       37.361       63.166       65.731       71.011       45.549     4320.527     5042.605     2074.670        0.935        0.572       57.180       29.176        0.260      343.258       19.243      857.699
05/24/2013  12:30:00      145.766       86.795       12.582       90.701       56.381       64.966     8226.729     3178.826     4220.597        2.228        0.781      169.650       35.396        0.044      342.880       18.598      857.683
05/24/2013  12:31:00       80.249       40.138       15.000       74.974       75.183       48.910     5621.056     5652.515     2392.192        1.097        0.683       89.727       24.814        0.076      343.164       19.082      857.675
05/24/2013  12:32:00       43.858       49.078       72.165      100.622       89.947       73.283    10124.830     8090.546     5370.399        1.656        1.179       65.819       67.209        1.043      342.986       18.780      857.675
05/24/2013  12:33:00        9.368      -42.647       -0.857       28.891       39.059       33.596      834.715     1525.612     1128.661        0.270        0.174       43.664       24.534        0.316      342.859       18.565      857.661
05/24/2013  12:34:00       16.488       12.950       48.701       37.877       72.242       40.884     1434.671     5218.893     1671.513        0.557        0.416       20.966       46.341        4.886      343.535       19.715      857.643
05/24/2013  12:35:00      -51.251     -126.775        4.187       87.083       81.046       47.984     7583.525     6568.427     2302.493        1.758        0.823      136.743       27.887        0.042      343.221       19.178      857.627
05/24/2013  12:36:00     -171.262     -160.334      -26.576       61.912       63.093       37.225     3833.111     3980.668     1385.699        3.247        0.460      234.602       34.690        0.022      342.739       18.357      857.622
05/24/2013  12:37:00      -68.999      -80.204      -11.790      114.523       96.131       51.415    13115.545     9241.166     2643.550        1.816        1.250      105.800       46.145        0.190      343.136       19.035      857.620
05/24/2013  12:38:00       44.103      -41.750       58.657       72.088      158.160      103.112     5196.629    25014.666    10632.104        2.398        2.042       60.730      105.353        3.009      343.467       19.599      857.635
05/24/2013  12:39:00       51.315       72.737      104.546       60.728       64.200       46.796     3687.943     4121.659     2189.878        1.442        0.500       89.016       46.378        0.271      342.774       18.420      857.660
05/24/2013  12:40:00        3.279       10.596        7.795       43.586       36.901       29.590     1899.739     1361.700      875.547        0.216        0.207       11.092       21.596        3.791      342.762       18.399      857.645
05/24/2013  12:41:00       31.578       26.802        5.799       29.544       38.018       23.540      872.863     1445.343      554.148        0.231        0.144       41.419       20.597        0.247      342.982       18.773      857.622
05/24/2013  12:42:00       40.484      -95.191       -7.740       33.705       57.040       26.296     1136.029     3253.605      691.483        0.792        0.254      103.442       18.776        0.033      342.571       18.076      857.630
05/24/2013  12:43:00       -5.192      -66.106      -10.392       60.567       57.363       36.517     3668.394     3290.544     1333.484        0.640        0.415       66.309       24.412        0.136      343.180       19.111      857.614
05/24/2013  12:44:00       -9.769      -72.109       -6.614       46.680       64.151       26.172     2179.007     4115.298      684.991        0.616        0.349       72.768       24.771        0.116      343.217       19.174      857.598
05/24/2013  12:45:00       45.084      -79.351       27.149       58.808       97.477       50.026     3458.373     9501.857     2502.559        1.226        0.773       91.264       54.504        0.357      343.234       19.201      857.592
05/24/2013  12:46:00      -89.620       32.566       16.888       58.744       48.083       53.398     3450.801     2311.944     2851.310        0.899        0.431       95.353       53.525        0.315      343.135       19.035      857.539
05/24/2013  12:47:00      -17.735        9.168       16.652       48.656       33.014       29.447     2367.382     1089.926      867.134        0.250        0.216       19.964       19.740        0.978      343.625       19.869      857.507
05/24/2013  12:48:00      -26.692      -74.985       -6.665       51.554       68.278       26.660     2657.823     4661.848      710.736        0.720        0.402       79.594       11.825        0.022      343.223       19.183      857.511
05/24/2013  12:49:00      127.454     -231.022       -4.431      119.708      118.179       68.270    14330.106    13966.168     4660.764        5.129        1.648      263.848       65.052        0.061      343.291       19.297      857.486
05/24/2013  12:50:00      123.831     -203.516      -22.950      108.168      141.724       93.731    11700.406    20085.722     8785.539        4.892        2.029      238.228       91.403        0.147      343.355       19.403      857.495
05/24/2013  12:51:00       82.079      -54.322        4.990      113.384      114.672       71.858    12855.853    13149.722     5163.539        2.044        1.558       98.427       57.426        0.340      343.311       19.333      857.514
05/24/2013  12:52:00       62.351       -6.737       33.102       52.836       42.180       34.736     2791.624     1779.129     1206.613        0.540        0.289       62.714       34.275        0.299      343.328       19.363      857.484
05/24/2013  12:53:00       17.414      -70.269       33.674       41.052       99.545       37.031     1685.300     9909.120     1371.320        0.967        0.648       72.394       43.060        0.354      343.408       19.498      857.451
05/24/2013  12:54:00      -22.349      -60.793       13.778       28.696       62.960       23.812      823.440     3964.011      567.018        0.487        0.268       64.771        9.520        0.022      343.365       19.425      857.451
05/24/2013  12:55:00      -30.443      -90.885        2.139       38.858       63.104       37.948     1509.918     3982.164     1440.085        0.806        0.347       95.848       28.125        0.086      343.387       19.463      857.449
05/24/2013  12:56:00       85.017     -122.564      -20.400       64.530       57.101       45.704     4164.110     3260.515     2088.887        1.609        0.476      149.164       45.108        0.091      343.318       19.345      857.417
05/24/2013  12:57:00      -75.968        9.823       11.012       65.223       55.374       37.901     4253.976     3066.313     1436.470        0.737        0.438       76.600       37.630        0.241      343.464       19.595      857.377
05/24/2013  12:58:00       65.329        6.023       15.792       44.189       58.683       35.905     1952.678     3443.746     1289.168        0.562        0.334       65.606       19.875        0.092      343.308       19.329      857.358
05/24/2013  12:59:00      131.056     -124.486       27.318      111.253      124.820       73.825    12377.240    15580.017     5450.191        3.341        1.670      180.755       83.740        0.215      343.470       19.603      857.344
05/24/2013  13:00:00       81.423       -2.690       98.422      133.455      158.764       82.056    17810.153    25206.132     6733.263        3.303        2.487       81.468       80.621        0.979      343.873       20.288      857.325
05/24/2013  13:01:00       42.748       87.569      140.593       75.853       98.639       71.395     5753.622     9729.728     5097.291        2.492        1.029       97.446       59.368        0.371      343.404       19.490      857.373
05/24/2013  13:02:00        9.910      -44.413       20.894       78.225      107.490       64.265     6119.151    11554.139     4129.930        1.215        1.090       45.506       72.232        2.520      342.975       18.761      857.351
05/24/2013  13:03:00      120.170       62.570        5.194      122.022       73.939       44.643    14889.346     5467.035     1992.986        2.036        1.117      135.484       30.841        0.052      343.075       18.931      857.307
05/24/2013  13:04:00      119.403      106.294       76.385      107.215       68.117       67.841    11495.100     4639.928     4602.425        2.606        1.037      159.861       44.521        0.078      343.386       19.459      857.301
05/24/2013  13:05:00      186.898      118.456       26.898       84.642       62.011       55.728     7164.302     3845.353     3105.602        3.190        0.706      221.275       43.571        0.039      343.229       19.189      857.286
05/24/2013  13:06:00      193.214      124.747       31.805       81.348       56.386       48.586     6617.416     3179.362     2360.570        3.303        0.608      229.986       31.098        0.018      343.237       19.204      857.267
05/24/2013  13:07:00      188.855      113.046       29.266       90.448       65.268       53.893     8180.779     4259.894     2904.472        3.232        0.767      220.104       26.555        0.015      343.645       19.900      857.252
05/24/2013  13:08:00       90.974       45.074       36.396       83.103       57.647       50.261     6906.089     3323.154     2526.192        1.219        0.638      101.528       25.248        0.062      344.065       20.619      857.239
05/24/2013  13:09:00      154.725       75.618       41.167       79.683       60.558       55.451     6349.348     3667.316     3074.777        2.222        0.655      172.215       24.073        0.020      343.631       19.878      857.234
05/24/2013  13:10:00       97.757      130.370      127.996       79.126       56.808       58.430     6260.984     3227.205     3414.055        2.792        0.645      162.950       46.276        0.081      343.349       19.397      857.239
05/24/2013  13:11:00       92.903      136.625      122.970       72.497       54.084       57.910     5255.745     2925.069     3353.598        2.697        0.577      165.219       32.196        0.038      343.214       19.165      857.207
05/24/2013  13:12:00       68.712      -21.438       45.155      100.480      118.343       68.954    10096.295    14005.024     4754.642        1.803        1.443       71.979       69.969        0.945      343.637       19.888      857.193
05/24/2013  13:13:00       79.316      -85.247        1.008       89.266       93.691       70.892     7968.464     8778.090     5025.710        1.766        1.089      116.439       66.211        0.323      343.551       19.741      857.194
05/24/2013  13:14:00        6.346       59.333       11.103       35.580       67.793       37.162     1265.920     4595.902     1381.028        0.546        0.362       59.672       13.281        0.050      343.368       19.429      857.182
05/24/2013  13:15:00       20.955       28.618       23.198       28.786       39.350       30.682      828.629     1548.417      941.379        0.256        0.166       35.470       26.183        0.545      343.619       19.859      857.157
05/24/2013  13:16:00       37.871       12.340       33.874       28.396       37.418       39.354      806.318     1400.080     1548.725        0.324        0.188       39.830       16.920        0.180      343.435       19.544      857.158
05/24/2013  13:17:00       42.787       62.688       74.787       53.725       58.823       43.933     2886.341     3460.151     1930.140        0.981        0.414       75.897       41.210        0.295      343.771       20.117      857.124
05/24/2013  13:18:00        7.934     -116.373       21.632       98.082      134.457       86.373     9620.164    18078.784     7460.245        2.461        1.758      116.643       88.196        0.572      344.041       20.578      857.095
05/24/2013  13:19:00       28.494       26.519       97.969       72.315      174.884       99.753     5229.515    30584.566     9950.702        2.843        2.288       38.925      123.992       10.147      343.664       19.932      857.080
05/24/2013  13:20:00       17.729       60.686      130.206       56.680      109.368       83.802     3212.654    11961.442     7022.778        2.157        1.110       63.222       83.315        1.737      343.735       20.055      857.069
05/24/2013  13:21:00       30.523      -35.417       55.035       50.199       92.509       39.944     2519.893     8557.962     1595.554        0.894        0.634       46.755       38.665        0.684      344.019       20.541      857.081
05/24/2013  13:22:00      -98.130      -80.904        3.588       73.846       83.328       42.720     5453.290     6943.557     1824.966        1.520        0.711      127.181       47.318        0.138      343.810       20.183      857.078
05/24/2013  13:23:00        6.611      -79.856       26.055       29.588       44.325       25.144      875.451     1964.703      632.201        0.529        0.174       80.129       18.487        0.053      343.601       19.829      857.030
05/24/2013  13:24:00      -34.486      -12.813       25.242       60.230       46.388       25.181     3627.702     2151.832      634.101        0.420        0.321       36.789       30.916        0.706      344.309       21.037      857.017
05/24/2013  13:25:00     -143.995      -95.011        6.279       92.703       70.002       39.744     8593.857     4900.275     1579.608        2.243        0.754      172.515       43.256        0.063      343.913       20.358      857.010
05/24/2013  13:26:00     -209.757     -104.480       -5.193       92.723       79.653       48.021     8597.636     6344.652     2305.970        3.609        0.862      234.338       19.889        0.007      343.708       20.006      856.960
05/24/2013  13:27:00     -143.262      -88.989        3.018       75.807       70.536       36.484     5746.747     4975.302     1331.066        2.025        0.603      168.651       40.242        0.057      343.745       20.072      856.969
05/24/2013  13:28:00     -152.762      -94.394        3.769       89.565       79.097       33.937     8021.861     6256.395     1151.723        2.384        0.771      179.573       30.581        0.029      344.060       20.610      856.974
05/24/2013  13:29:00      -55.989     -204.484        0.134       61.884       76.243       33.347     3829.680     5812.945     1112.048        2.785        0.538      212.011       29.539        0.019      343.755       20.088      856.972
05/24/2013  13:30:00     -102.017     -118.995       -2.911       62.393       62.685       39.133     3892.937     3929.381     1531.380        1.696        0.468      156.739       35.591        0.052      344.032       20.562      856.966
05/24/2013  13:31:00     -168.716      -84.315        0.097       57.035       68.183       35.500     3252.959     4648.894     1260.275        2.237        0.458      188.611       31.892        0.029      344.057       20.604      856.943
05/24/2013  13:32:00      -91.128      -73.386       -0.186      131.271       62.808       41.915    17232.202     3944.828     1756.851        1.831        1.147      117.003       27.313        0.054      343.919       20.369      856.922
05/24/2013  13:33:00       52.996      -45.228       -0.282       60.565       46.944       52.678     3668.170     2203.699     2774.990        0.675        0.432       69.672       32.739        0.221      344.053       20.598      856.900
05/24/2013  13:34:00       12.601        6.752       76.413       64.416       93.712       68.972     4149.443     8781.930     4757.133        1.186        0.884       14.296       44.022        9.482      344.257       20.947      856.852
05/24/2013  13:35:00       73.901      -47.697       74.384      101.425      162.973      129.217    10287.025    26560.302    16696.959        3.340        2.677       87.957      102.789        1.366      344.235       20.908      856.811
05/24/2013  13:36:00       90.517      -92.098       56.302      118.197      210.201      135.795    13970.645    44184.453    18440.379        4.821        3.830      129.133      163.991        1.613      344.071       20.628      856.824
05/24/2013  13:37:00       12.321      -82.430        6.244       71.763       81.853       62.957     5149.975     6699.843     3963.589        1.140        0.791       83.345       49.784        0.357      344.107       20.692      856.821
05/24/2013  13:38:00       48.978       28.144       17.664       58.389       61.022       41.785     3409.330     3723.659     1745.969        0.619        0.444       56.488       29.965        0.281      343.725       20.039      856.787
05/24/2013  13:39:00       68.471       52.113       11.298       59.238       52.349       42.298     3509.161     2740.446     1789.109        0.778        0.402       86.047       24.038        0.078      343.713       20.019      856.765
05/24/2013  13:40:00      106.293       39.299       27.650       74.146       61.003       39.283     5497.584     3721.329     1543.121        1.218        0.538      113.326       40.906        0.130      343.600       19.826      856.775
05/24/2013  13:41:00       23.992      -21.683       22.877       53.604       31.947       29.561     2873.381     1020.628      873.876        0.317        0.238       32.339       13.167        0.166      344.130       20.730      856.758
05/24/2013  13:42:00       21.242      -46.752       10.054       34.362       39.226       39.190     1180.769     1538.666     1535.821        0.350        0.213       51.352       29.172        0.323      344.408       21.205      856.746
05/24/2013  13:43:00       81.514     -114.957      -23.304       85.059       53.378       38.006     7235.041     2849.178     1444.430        1.596        0.576      140.924       39.802        0.080      344.113       20.701      856.739
05/24/2013  13:44:00      -98.187      -60.761        9.268       80.310       82.348       42.301     6449.711     6781.219     1789.406        1.422        0.751      115.467       43.132        0.140      344.477       21.325      856.732
05/24/2013  13:45:00       13.742     -161.607      -14.602      122.335       77.928       51.943    14965.882     6072.730     2698.074        2.512        1.187      162.190       45.175        0.078      344.070       20.626      856.720
05/24/2013  13:46:00      -45.483      -63.718        0.488       55.570       56.727       36.076     3088.010     3217.972     1301.498        0.687        0.380       78.286       31.243        0.159      344.580       21.499      856.725
05/24/2013  13:47:00      -52.708       27.368       -3.516       48.927       52.826       33.137     2393.890     2790.559     1098.055        0.491        0.314       59.389       25.095        0.179      344.307       21.032      856.717
05/24/2013  13:48:00       25.820      -17.512       11.423       43.286       73.445       43.301     1873.720     5394.154     1875.011        0.512        0.457       31.198       16.025        0.264      344.306       21.031      856.698
05/24/2013  13:49:00       -2.733      -78.405       -2.650       47.808       86.974       52.975     2285.585     7564.529     2806.386        0.941        0.633       78.453       38.210        0.237      344.087       20.657      856.717
05/24/2013  13:50:00       -1.917      -48.224       16.019       38.789       46.432       38.109     1504.548     2155.901     1452.299        0.385        0.256       48.263       28.601        0.351      344.391       21.176      856.734
05/24/2013  13:51:00       37.886       40.820       48.255       89.603       91.516       46.124     8028.618     8375.251     2127.461        1.198        0.927       55.692       27.090        0.237      344.027       20.556      856.722
05/24/2013  13:52:00     -136.159      -87.397       16.711      101.305       69.831       43.699    10262.607     4876.331     1909.642        2.175        0.852      161.794       36.223        0.050      344.670       21.653      856.740
05/24/2013  13:53:00     -250.076     -154.920      -17.142      187.674      104.253       63.145    35221.659    10868.686     3987.249        6.845        2.504      294.173       78.419        0.071      344.604       21.537      856.811
05/24/2013  13:54:00     -329.408      -72.658      -43.374      165.038       78.423       54.603    27237.532     6150.230     2981.507        7.601        1.818      337.326       63.794        0.036      344.286       20.994      856.785
05/24/2013  13:55:00     -246.426     -187.597       -3.009      195.430      155.186       91.814    38193.020    24082.589     8429.874        8.330        3.535      309.706      101.309        0.107      344.541       21.429      856.728
05/24/2013  13:56:00     -320.783     -131.806       -7.615      193.036      141.817       84.936    37263.037    20112.090     7214.185        9.245        3.229      346.806       87.177        0.063      344.366       21.131      856.680
05/24/2013  13:57:00     -316.284       15.804       -3.216      197.513      148.943       74.850    39011.580    22184.071     5602.454        8.354        3.340      316.679       97.490        0.095      344.569       21.478      856.643
05/24/2013  13:58:00     -331.445     -103.503       -8.918      172.083      153.745       58.153    29612.516    23637.491     3381.749        8.863        2.832      347.230       42.410        0.015      344.346       21.096      856.639
05/24/2013  13:59:00     -223.822      -49.399       -3.762      156.792      152.823       54.688    24583.695    23354.807     2990.794        5.173        2.546      229.208       61.758        0.073      344.596       21.525      856.654
05/24/2013  14:00:00     -290.251     -209.951       -8.827      185.496      176.358       72.965    34408.724    31102.287     5323.867        9.961        3.542      358.225       77.643        0.047      344.549       21.444      856.704
05/24/2013  14:01:00     -304.344      -68.800       15.716      246.612      152.831       96.012    60817.343    23357.358     9218.333        9.548        4.670      312.024      115.047        0.136      344.544       21.436      856.704
05/24/2013  14:02:00     -257.690     -191.481       -2.442      166.542      134.127       87.471    27736.337    17990.163     7651.124        7.822        2.669      321.044       83.603        0.068      344.368       21.133      856.698
05/24/2013  14:03:00     -370.425     -152.953      -10.632      110.151      111.874       65.293    12133.307    12515.738     4263.126        9.481        1.446      400.761       61.509        0.024      344.267       20.960      856.672
05/24/2013  14:04:00     -274.852     -213.747      -13.950      125.999      104.208       67.956    15875.865    10859.410     4617.994        7.638        1.568      348.183       72.864        0.044      344.298       21.015      856.631
05/24/2013  14:05:00     -304.836     -176.743       -3.468      186.248      158.145       80.941    34688.197    25009.868     6551.490        9.520        3.312      352.368       91.235        0.067      344.515       21.386      856.655
05/24/2013  14:06:00     -454.091     -163.313       -7.409      339.441      185.706       83.139   115219.949    34486.871     6912.091       19.475        7.831      482.565      117.131        0.059      344.567       21.476      856.678
05/24/2013  14:07:00     -500.082      -56.554        0.604      238.353      150.568       84.839    56812.050    22670.712     7197.739       16.997        4.334      503.269      107.347        0.045      344.485       21.334      856.676
05/24/2013  14:08:00     -284.573      -25.406        8.969      223.787      114.347       77.785    50080.576    13075.169     6050.525        7.545        3.460      285.705      102.121        0.128      344.708       21.717      856.638
05/24/2013  14:09:00     -340.566      -27.068       -6.934      217.917      184.103      105.162    47487.949    33894.012    11059.018       10.459        4.622      341.640      117.911        0.119      344.844       21.948      856.601
05/24/2013  14:10:00     -550.269      -80.516      -30.630      257.732      196.586      104.181    66425.970    38646.232    10853.600       21.305        5.796      556.128      123.561        0.049      344.421       21.225      856.619
05/24/2013  14:11:00     -358.417      -48.800      -17.358      206.912      197.643       86.542    42812.691    39062.943     7489.575       11.024        4.468      361.724       78.753        0.047      344.775       21.829      856.502
05/24/2013  14:12:00     -492.321     -178.139       -9.072      287.847      273.129      130.486    82855.914    74599.246    17026.575       22.431        8.724      523.558      132.723        0.064      344.832       21.927      856.562
05/24/2013  14:13:00     -414.320     -109.651        3.104      316.898      240.453      106.838   100424.381    57817.487    11414.453       17.665        8.483      428.584      136.155        0.101      344.796       21.867      856.578
05/24/2013  14:14:00     -617.835       -1.130      -38.567      228.115      135.557       97.854    52036.336    18375.788     9575.321       23.158        3.999      617.836      114.827        0.035      344.617       21.560      856.549
05/24/2013  14:15:00     -771.170      -32.393      -49.393      251.472      233.462      109.134    63238.121    54504.417    11910.162       36.390        6.483      771.850      128.499        0.028      344.434       21.247      856.584
05/24/2013  14:16:00     -592.446     -149.695      -27.665      259.092      228.683      107.965    67128.423    52295.806    11656.480       25.260        6.554      611.065      110.582        0.033      344.583       21.501      856.605
05/24/2013  14:17:00     -608.505     -213.272      -30.779      288.457      235.791      109.627    83207.428    55597.309    12018.002       28.374        7.541      644.797      121.401        0.035      344.419       21.221      856.648
05/24/2013  14:18:00     -406.093      -88.154      -21.157      243.167      196.249       86.596    59130.170    38513.638     7498.846       13.912        5.257      415.551      109.065        0.069      344.587       21.509      856.566
05/24/2013  14:19:00     -598.601     -125.487      -36.920      272.032      285.310       99.134    74001.227    81401.562     9827.602       27.030        8.262      611.612      110.728        0.033      344.447       21.269      856.597
05/24/2013  14:20:00     -382.384     -169.858       -2.914      297.608      210.686      100.764    88570.784    44388.686    10153.323       15.907        7.156      418.413      118.589        0.080      344.576       21.489      856.580
05/24/2013  14:21:00     -595.587     -168.595      -26.754      289.786      203.813      127.640    83975.736    41539.678    16291.975       26.281        7.090      618.990      148.356        0.057      344.496       21.353      856.605
05/24/2013  14:22:00     -540.176     -302.701        2.727      304.384      201.123      102.525    92649.595    40450.296    10511.380       26.349        7.181      619.208      115.432        0.035      344.411       21.208      856.636
05/24/2013  14:23:00     -294.840     -238.249        7.235      245.242      173.994      112.355    60143.488    30273.899    12623.571       12.338        5.152      379.069      115.465        0.093      344.339       21.084      856.538
05/24/2013  14:24:00     -155.935     -113.057       -2.146      147.266      131.637       68.178    21687.314    17328.275     4648.206        4.038        2.183      192.607       65.734        0.116      344.789       21.854      856.500
05/24/2013  14:25:00     -515.361     -117.539      -24.130      241.638      173.170       87.757    58388.870    29988.017     7701.213       18.802        4.804      528.595       85.600        0.026      344.703       21.706      856.509
05/24/2013  14:26:00     -585.506      -90.508      -24.621      267.749      184.463       94.519    71689.316    34026.496     8933.911       23.311        5.732      592.460      102.332        0.030      344.611       21.549      856.525
05/24/2013  14:27:00     -675.625      -52.384      -41.726      231.434      202.269      108.882    53561.757    40912.853    11855.281       28.362        5.316      677.652      117.213        0.030      344.420       21.222      856.552
05/24/2013  14:28:00     -465.406       -9.931      -26.358      186.401      173.080       86.989    34745.409    29956.591     7567.165       14.482        3.613      465.512       99.000        0.045      344.638       21.595      856.529
05/24/2013  14:29:00     -373.195      -86.968      -12.362      194.311      143.961       71.922    37756.941    20724.752     5172.738       10.531        3.183      383.194       78.514        0.042      344.885       22.017      856.534
05/24/2013  14:30:00     -552.620      -60.147      -25.538      255.073      180.059      102.935    65062.171    32421.211    10595.717       20.885        5.404      555.884      116.337        0.044      344.632       21.584      856.575
05/24/2013  14:31:00     -292.615      -91.077       10.741      169.100      179.396       87.012    28594.642    32182.762     7571.174        8.118        3.417      306.461       83.587        0.074      344.766       21.814      856.481
05/24/2013  14:32:00     -430.310      -76.215       -3.188      225.663      150.086       97.631    50923.746    22525.918     9531.886       13.697        4.149      437.007      104.985        0.058      344.767       21.816      856.528
05/24/2013  14:33:00     -732.532     -131.410      -42.173      281.965      229.229      125.716    79504.488    52545.821    15804.513       35.173        7.393      744.225      135.977        0.033      344.427       21.233      856.537
05/24/2013  14:34:00     -630.511     -233.898      -17.449      284.337      179.546      117.799    80847.266    32236.780    13876.722       28.974        6.348      672.498      140.863        0.044      344.427       21.234      856.410
05/24/2013  14:35:00     -369.629     -180.786        8.060      270.630      187.536      128.184    73240.670    35169.797    16431.219       14.709        6.242      411.472      131.418        0.102      344.632       21.585      856.397
05/24/2013  14:36:00     -350.483     -232.493      -29.700      243.201      196.833      110.118    59146.642    38743.333    12125.938       14.388        5.501      420.585      121.157        0.083      344.622       21.568      856.405
05/24/2013  14:37:00     -282.033      -90.462       -0.119      201.708      243.872      105.558    40686.089    59473.459    11142.434        9.950        5.565      296.185      108.245        0.134      344.743       21.776      856.386
05/24/2013  14:38:00     -268.647      -54.877       15.357      234.378      197.652       97.437    54932.936    39066.281     9493.934        8.944        5.175      274.195      113.668        0.172      344.927       22.089      856.382
05/24/2013  14:39:00     -399.395     -206.455       -0.839      320.588      224.639      133.558   102776.651    50462.657    17837.707       18.658        8.554      449.600      159.189        0.125      344.768       21.819      856.394
05/24/2013  14:40:00     -571.656      -71.719      -11.533      244.602      251.144      111.290    59829.974    63073.240    12385.519       23.366        6.764      576.137      120.603        0.044      344.579       21.494      856.424
05/24/2013  14:41:00     -559.459      -90.810      -15.681      216.539      146.765       74.881    46889.061    21540.059     5607.131       19.775        3.702      566.782       73.845        0.017      344.419       21.222      856.426
05/24/2013  14:42:00     -362.244     -134.318      -20.961      172.071      147.281       87.920    29608.329    21691.796     7729.950       10.436        2.952      386.345       92.106        0.057      344.703       21.706      856.387
05/24/2013  14:43:00      -66.523       37.172       20.781      158.638      156.135       88.348    25166.134    24377.985     7805.291        3.178        2.867       76.204       87.768        1.327      345.169       22.505      856.373
05/24/2013  14:44:00     -175.583      -54.117       12.624      186.113      142.534       78.239    34637.964    20316.038     6121.321        4.749        3.054      183.734       68.993        0.141      345.214       22.581      856.438
05/24/2013  14:45:00     -436.964      -90.485      -14.197      350.954      183.100      129.712   123168.650    33525.508    16825.298       18.639        8.676      446.235      158.861        0.127      344.822       21.911      856.442
05/24/2013  14:46:00     -471.812     -166.609      -16.569      352.274      228.189      120.862   124097.247    52070.243    14607.629       22.068        9.539      500.365      161.977        0.105      344.289       20.999      856.457
05/24/2013  14:47:00     -500.327     -158.625       -6.019      346.678      263.057      131.328   120185.697    69198.885    17246.965       24.104       10.332      524.870      157.587        0.090      344.367       21.131      856.442
05/24/2013  14:48:00     -359.782     -139.233       15.961      295.444      252.778      101.935    87287.217    63896.920    10390.673       15.530        8.079      385.783      124.159        0.104      344.664       21.640      856.455
05/24/2013  14:49:00     -691.177       -2.793      -45.519      229.266      200.617       87.387    52562.913    40247.108     7636.525       29.011        5.022      691.183       99.914        0.021      344.616       21.558      856.475
05/24/2013  14:50:00     -455.694       -1.671      -29.131      245.714      176.126      104.158    60375.554    31020.294    10848.880       15.536        5.112      455.697      121.496        0.071      344.769       21.820      856.495
05/24/2013  14:51:00     -461.157     -190.516       -1.036      225.557      231.753      110.487    50875.935    53709.339    12207.450       18.286        5.840      498.961      107.666        0.047      344.600       21.530      856.500
05/24/2013  14:52:00     -448.470     -199.211      -30.977      220.820      175.235       91.957    48761.459    30707.352     8456.044       16.483        4.396      490.724      101.339        0.043      344.270       20.966      856.525
05/24/2013  14:53:00     -330.511      -58.047      -13.682      185.771      166.973       87.322    34510.862    27879.898     7625.194        9.139        3.501      335.570       94.278        0.079      344.538       21.425      856.497
05/24/2013  14:54:00     -348.186       88.938       13.467      250.270      161.731      102.081    62634.887    26156.923    10420.505       11.425        4.961      359.365      117.606        0.107      344.861       21.977      856.506
05/24/2013  14:55:00     -598.114      -86.877      -28.330      232.374      238.318       98.414    53997.669    56795.463     9685.319       24.326        6.024      604.390      100.056        0.027      344.519       21.393      856.500
05/24/2013  14:56:00     -636.686     -112.407      -30.583      216.830      194.064      116.157    47015.164    37660.755    13492.437       25.854        4.908      646.533      106.521        0.027      344.708       21.715      856.390
05/24/2013  14:57:00     -575.429      -58.538      -26.525      256.136      225.738      113.076    65605.441    50957.849    12786.221       23.228        6.467      578.399      120.989        0.044      344.634       21.589      856.407
05/24/2013  14:58:00     -367.262     -125.617        5.372      251.402      150.360       89.457    63203.104    22608.037     8002.515       12.224        4.691      388.151      109.972        0.080      344.722       21.738      856.470
05/24/2013  14:59:00     -495.607       18.721      -25.293      237.659      169.590       98.419    56481.774    28760.864     9686.320       17.076        4.746      495.960      106.866        0.046      344.861       21.976      856.501
05/24/2013  15:00:00     -527.027     -165.793       -8.466      341.662      201.853      127.847   116732.938    40744.515    16344.770       23.954        8.691      552.489      148.482        0.072      344.685       21.676      856.477
05/24/2013  15:01:00     -622.908     -225.530      -11.049      297.047      203.610      113.757    88237.154    41457.200    12940.738       29.079        7.132      662.479      131.911        0.040      344.396       21.182      856.506
05/24/2013  15:02:00     -403.526     -306.312        2.210      302.517      217.325      142.314    91516.258    47230.083    20253.323       20.781        7.950      506.617      174.225        0.118      344.436       21.250      856.505
05/24/2013  15:03:00     -400.842      -55.010       -2.979      173.550      225.117       84.292    30119.495    50677.759     7105.060       12.579        4.395      404.599       84.466        0.044      344.688       21.681      856.495
05/24/2013  15:04:00     -221.477      -32.525       -4.409      138.241      113.686       70.537    19110.665    12924.588     4975.424        4.356        1.851      223.852       66.761        0.089      344.993       22.203      856.485
05/24/2013  15:05:00     -384.921     -137.141        2.994      211.133      179.093       88.181    44577.085    32074.455     7775.896       12.569        4.221      408.622       94.356        0.053      344.965       22.156      856.475
05/24/2013  15:06:00     -277.402      -55.344       -3.983      188.462      201.743       78.172    35517.738    40700.329     6110.903        8.117        4.116      282.869       73.502        0.068      344.948       22.125      856.484
05/24/2013  15:07:00     -638.080      -98.038      -17.862      243.378      217.334      112.584    59232.834    47234.182    12675.123       26.809        5.957      645.567      107.425        0.028      344.525       21.402      856.438
05/24/2013  15:08:00     -444.827       66.142      -12.369      201.948      187.373       92.420    40783.179    35108.550     8541.501       14.340        4.222      449.718       99.344        0.049      344.721       21.738      856.498
05/24/2013  15:09:00     -639.233     -158.164      -40.327      273.090      229.305      126.174    74578.410    52580.987    15919.820       28.915        7.154      658.510      139.599        0.045      344.596       21.523      856.564
05/24/2013  15:10:00     -854.750     -155.425      -32.122      278.463      229.538      118.640    77541.389    52687.479    14075.446       45.002        7.215      868.766      128.576        0.022      344.347       21.097      856.414
05/24/2013  15:11:00     -590.048     -172.544      -22.243      256.267      237.164      109.628    65672.835    56246.778    12018.406       25.616        6.697      614.758      129.209        0.044      344.355       21.112      856.486
05/24/2013  15:12:00     -529.843      -58.288      -20.638      262.904      202.269       95.484    69118.719    40912.590     9117.260       20.183        5.957      533.040       98.348        0.034      344.307       21.029      856.487
05/24/2013  15:13:00     -398.181      -95.282       17.415      244.363      223.188      107.013    59713.473    49812.996    11451.782       14.443        6.049      409.423      128.131        0.098      344.647       21.610      856.454
05/24/2013  15:14:00     -580.146      -45.679      -29.956      199.158      183.031       87.256    39663.783    33500.379     7613.553       21.015        4.039      581.941       90.269        0.024      344.512       21.381      856.449
05/24/2013  15:15:00     -552.121     -125.365       -9.260      257.011      192.162      110.742    66054.650    36926.143    12263.719       21.792        5.762      566.175      113.404        0.040      344.411       21.208      856.463
05/24/2013  15:16:00     -529.980       -7.240      -19.461      281.533      207.526      117.850    79261.052    43066.913    13888.558       20.874        6.811      530.029      145.369        0.075      344.495       21.350      856.431
05/24/2013  15:17:00     -505.266     -215.163        4.180      279.493      214.825      110.396    78116.089    46149.950    12187.322       21.901        6.823      549.171      128.891        0.055      344.445       21.266      856.417
05/24/2013  15:18:00     -373.937      -48.787        6.123      192.595      156.874       97.989    37092.683    24609.599     9601.925       10.676        3.565      377.106      104.475        0.077      344.815       21.898      856.432
05/24/2013  15:19:00     -561.353      -78.256      -12.829      253.778      225.583      102.705    64403.256    50887.894    10548.221       22.360        6.292      566.781      104.621        0.034      344.633       21.586      856.440
05/24/2013  15:20:00     -551.311     -100.137      -19.827      255.354      177.355      110.695    65205.852    31454.867    12253.456       21.162        5.446      560.332      129.144        0.053      344.516       21.387      856.459
05/24/2013  15:21:00     -601.584     -117.641      -37.667      269.873      220.267      102.760    72831.385    48517.623    10559.657       25.451        6.595      612.979      115.360        0.035      344.352       21.106      856.503
05/24/2013  15:22:00     -457.783     -143.003       -9.301      270.378      215.189      102.945    73104.149    46306.236    10597.762       18.003        6.500      479.599      124.215        0.067      344.481       21.327      856.574
05/24/2013  15:23:00     -569.902      -55.158       -7.459      262.029      194.177      104.174    68659.245    37704.528    10852.323       22.253        5.861      572.565      130.857        0.052      344.422       21.226      856.602
05/24/2013  15:24:00     -512.640     -125.039      -19.882      299.029      180.786       97.560    89418.210    32683.656     9517.861       20.520        6.581      527.669      127.677        0.059      344.370       21.138      856.594
05/24/2013  15:25:00     -512.477       -4.286      -29.946      235.386      223.858      107.497    55406.377    50112.298    11555.668       19.029        5.854      512.495      110.353        0.046      344.562       21.464      856.564
05/24/2013  15:26:00     -419.532      -76.385      -18.889      237.216      167.426       87.068    56271.326    28031.326     7580.847       13.703        4.594      426.429       84.188        0.039      344.623       21.569      856.577
05/24/2013  15:27:00     -551.631      -83.337      -36.844      311.638      221.126      118.537    97118.432    48896.871    14051.025       23.631        8.003      557.891      152.308        0.075      344.512       21.378      856.550
05/24/2013  15:28:00     -570.241     -221.319      -19.964      331.538      212.861      115.566   109917.284    45309.663    13355.597       27.154        8.429      611.684      154.083        0.063      344.385       21.162      856.526
05/24/2013  15:29:00     -565.443     -123.761      -27.534      201.259      185.433       90.175    40505.002    34385.270     8131.589       20.940        4.151      578.828      100.841        0.030      344.316       21.045      856.531
05/24/2013  15:30:00     -356.473     -105.829        1.922      162.493      180.838       87.154    26403.822    32702.369     7595.872       10.248        3.335      371.850       86.220        0.054      344.611       21.549      856.526
05/24/2013  15:31:00     -466.610        3.310      -23.166      281.330      168.532       93.795    79146.494    28402.883     8797.479       16.729        5.817      466.621      116.220        0.062      344.753       21.793      856.550
05/24/2013  15:32:00     -549.253      -63.408      -22.065      238.852      249.475      109.879    57050.139    62237.781    12073.418       21.875        6.568      552.901       98.751        0.032      344.392       21.175      856.519
05/24/2013  15:33:00     -398.989     -116.405      -14.628      216.560      184.530      105.672    46898.078    34051.354    11166.664       13.252        4.606      415.622      103.509        0.062      344.637       21.592      856.514
05/24/2013  15:34:00     -368.048      -44.463       -6.013      262.517      107.340       75.273    68915.066    11521.831     5666.083       11.177        4.305      370.724      102.135        0.076      344.952       22.133      856.554
05/24/2013  15:35:00     -647.155     -132.657      -30.615      276.946      198.859      100.687    76699.006    39544.918    10137.823       28.184        6.319      660.611       98.912        0.022      344.320       21.052      856.569
05/24/2013  15:36:00     -630.058     -233.087      -27.403      248.572      160.899       82.629    61788.190    25888.624     6827.548       27.326        4.725      671.791       91.587        0.019      344.179       20.812      856.562
05/24/2013  15:37:00     -465.129     -122.272      -21.602      325.051      188.823      109.953   105658.092    35653.949    12089.643       19.256        7.670      480.931      139.137        0.084      344.542       21.430      856.579
05/24/2013  15:38:00     -736.577     -173.775      -54.646      248.463      258.383      131.943    61733.947    66761.875    17408.886       36.079        7.295      756.798      124.359        0.027      344.189       20.829      856.511
05/24/2013  15:39:00     -458.857     -160.178      -15.957      266.103      182.486      107.318    70810.550    33301.137    11517.216       17.603        5.781      486.011      123.218        0.064      344.463       21.296      856.557
05/24/2013  15:40:00     -601.683     -216.173      -12.679      327.902      194.366      110.326   107519.497    37778.274    12171.875       28.317        7.873      639.338      128.126        0.040      344.318       21.049      856.529
05/24/2013  15:41:00     -569.644     -188.652      -16.031      225.500      200.992      104.876    50850.357    40397.944    10998.874       23.128        5.112      600.070      115.726        0.037      344.441       21.259      856.567
05/24/2013  15:42:00     -395.290      -24.062       -8.489      212.784      175.942      106.044    45277.183    30955.597    11245.382       12.218        4.374      396.022       94.170        0.057      344.615       21.556      856.570
05/24/2013  15:43:00     -560.868     -107.994      -25.139      181.394      214.608       96.100    32903.837    46056.735     9235.295       20.752        4.410      571.170       84.862        0.022      344.432       21.243      856.532
05/24/2013  15:44:00     -530.300     -229.171      -20.257      218.794      159.816       91.381    47870.856    25541.017     8350.466       20.794        4.088      577.700       93.680        0.026      344.511       21.377      856.510
05/24/2013  15:45:00     -585.922     -142.044      -23.683      248.365      178.901      103.941    61685.363    32005.448    10803.778       23.425        5.225      602.894      119.616        0.039      344.362       21.123      856.516
05/24/2013  15:46:00     -666.665     -120.899      -32.939      213.562      205.978      103.914    45608.780    42427.037    10798.066       27.947        4.942      677.539      111.734        0.027      344.486       21.334      856.544
05/24/2013  15:47:00     -463.161     -116.213       -4.074      241.981      194.860       85.071    58554.785    37970.600     7237.038       16.588        5.188      477.518      114.187        0.057      344.399       21.187      856.554
05/24/2013  15:48:00     -364.191      -29.331      -12.899      272.405      203.314      106.841    74204.522    41336.687    11415.090       13.029        6.348      365.370      116.473        0.102      344.472       21.313      856.547
05/24/2013  15:49:00     -421.162       31.712      -17.405      222.834      178.212       95.990    49655.138    31759.391     9214.110       13.464        4.531      422.354       98.772        0.055      344.557       21.456      856.506
05/24/2013  15:50:00     -633.909     -229.313      -33.402      253.060      236.120      110.131    64039.218    55752.543    12128.888       29.371        6.596      674.111      121.708        0.033      344.464       21.298      856.570
05/24/2013  15:51:00     -360.843     -210.166       -2.035      255.141      185.401      104.431    65097.014    34373.654    10905.822       14.236        5.519      417.585      118.875        0.081      344.253       20.937      856.595
05/24/2013  15:52:00     -435.906     -205.206        5.221      269.075      211.133      115.513    72401.196    44577.005    13343.355       18.121        6.516      481.792      109.414        0.052      344.208       20.860      856.622
05/24/2013  15:53:00     -288.575     -129.909       13.934      247.814      217.722      119.509    61411.698    47402.839    14282.492       11.170        6.155      316.468      133.171        0.177      344.261       20.952      856.635
05/24/2013  15:54:00     -479.478     -209.995       -9.313      265.598      211.155      119.940    70542.035    44586.603    14385.498       20.178        6.476      523.447      137.106        0.069      344.117       20.706      856.580
05/24/2013  15:55:00     -474.680     -190.807      -12.420      243.276      208.632       99.704    59183.339    43527.441     9940.956       18.725        5.633      511.594      111.011        0.047      344.343       21.092      856.518
05/24/2013  15:56:00     -290.727     -144.502       19.833      214.092      160.661       90.425    45835.359    25811.882     8176.639        9.280        3.991      324.658      107.975        0.111      344.683       21.673      856.550
05/24/2013  15:57:00     -454.365     -234.585      -20.572      193.613      144.214       85.125    37485.968    20797.564     7246.240       16.370        3.276      511.349       94.193        0.034      344.440       21.256      856.567
05/24/2013  15:58:00     -478.387     -109.755      -12.837      267.993      180.092       91.676    71820.055    32433.263     8404.447       17.684        5.633      490.816      104.011        0.045      344.385       21.163      856.598
05/24/2013  15:59:00     -406.086     -290.457      -10.997      255.020      188.265      120.259    65035.144    35443.555    14462.125       18.215        5.747      499.271      126.471        0.064      344.242       20.919      856.614
05/24/2013  16:00:00     -598.727     -231.197      -38.468      199.208      205.557      102.872    39683.876    42253.780    10582.616       25.295        4.626      641.815       90.791        0.020      344.196       20.840      856.606
05/24/2013  16:01:00     -350.704     -298.586        8.752      252.700      207.106      129.072    63857.224    42892.734    16659.624       16.780        6.170      460.594      149.336        0.105      344.289       20.999      856.604
05/24/2013  16:02:00     -351.883     -117.973      -10.963      192.108      186.715       95.176    36905.555    34862.578     9058.542       10.933        4.041      371.132       89.138        0.058      344.437       21.251      856.611
05/24/2013  16:03:00     -505.472      -24.838      -27.293      223.304      175.815       95.037    49864.518    30911.017     9032.074       17.332        4.490      506.082      108.829        0.046      344.414       21.213      856.622
05/24/2013  16:04:00     -518.834      -88.677      -26.634      283.806      191.275       90.464    80545.819    36586.160     8183.768       20.152        6.266      526.358      101.972        0.038      344.203       20.851      856.599
05/24/2013  16:05:00     -442.960      -34.572       -1.146      263.776      192.186      111.143    69577.881    36935.284    12352.815       15.812        5.943      444.307      112.795        0.064      344.390       21.171      856.562
05/24/2013  16:06:00     -515.608     -297.249      -10.692      282.781      235.448      121.294    79964.866    55435.750    14712.315       25.219        7.506      595.155      149.010        0.063      344.327       21.064      856.533
05/24/2013  16:07:00     -506.281     -236.897       -3.956      305.581      235.053      115.162    93379.739    55249.823    13262.229       23.715        8.095      558.964      133.781        0.057      344.131       20.730      856.590
05/24/2013  16:08:00     -111.105      -55.745       42.847      183.775      166.121       84.137    33773.067    27596.311     7078.974        4.286        3.422      124.305      105.955        0.727      344.500       21.362      856.618
05/24/2013  16:09:00     -380.770     -152.343        4.048      249.749      204.702       82.432    62374.606    41902.945     6795.075       13.962        5.554      410.115       88.900        0.047      344.185       20.820      856.610
05/24/2013  16:10:00     -380.794     -187.629       -7.269      173.067      121.247       72.334    29952.148    14700.847     5232.192       11.506        2.494      424.510       73.658        0.030      344.297       21.012      856.610
05/24/2013  16:11:00     -397.748      -48.692      -20.022      235.967      123.195       81.838    55680.301    15176.971     6697.402       11.925        3.878      400.718       86.883        0.047      344.377       21.149      856.568
05/24/2013  16:12:00     -556.211      -63.138      -33.678      230.752      180.401       90.407    53246.408    32544.430     8173.470       20.421        4.698      559.783      105.432        0.035      344.301       21.020      856.547
05/24/2013  16:13:00     -387.125      -78.457       -3.175      210.032      164.800       81.237    44113.628    27159.184     6599.386       11.694        3.894      394.995       86.318        0.048      344.371       21.139      856.549
05/24/2013  16:14:00     -274.306      -71.656       -0.215      164.968      116.610       69.046    27214.529    13597.908     4767.366        6.297        2.279      283.511       75.708        0.071      344.653       21.621      856.547
05/24/2013  16:15:00     -359.034      -29.150      -13.027      153.119      125.302       61.230    23445.368    15700.701     3749.078        8.640        2.145      360.216       64.509        0.032      344.741       21.770      856.558
05/24/2013  16:16:00     -218.918     -114.070        6.196      283.291      156.446      100.575    80253.896    24475.490    10115.375        8.789        5.742      246.854      133.612        0.293      344.593       21.518      856.570
05/24/2013  16:17:00     -366.753     -298.326       11.442      288.304      233.009      107.412    83118.971    54293.163    11537.317       18.627        7.447      472.764      127.340        0.073      344.323       21.058      856.543
05/24/2013  16:18:00     -295.768     -182.626       -9.981      185.097      187.860       97.847    34260.903    35291.561     9573.981       10.002        3.956      347.607       96.388        0.077      344.552       21.449      856.547
05/24/2013  16:19:00     -398.462     -161.220      -20.871      217.171      147.576       78.870    47163.285    21778.823     6220.444       13.017        3.758      429.841       86.842        0.041      344.159       20.777      856.577
05/24/2013  16:20:00     -437.773     -239.319       -9.501      193.590      155.771       83.271    37477.061    24264.458     6934.052       15.883        3.434      498.918       96.664        0.038      344.087       20.653      856.577
05/24/2013  16:21:00     -341.312     -244.642        1.629      260.612      206.816      114.713    67918.485    42772.664    13159.037       15.008        6.193      419.933      127.979        0.093      344.167       20.791      856.594
05/24/2013  16:22:00     -566.274     -142.250      -25.805      303.707      216.642      113.644    92238.027    46933.808    12915.021       24.680        7.604      583.868      136.476        0.055      344.123       20.716      856.575
05/24/2013  16:23:00     -493.417     -194.246      -23.115      214.445      176.108       91.435    45986.625    31014.022     8360.292       18.353        4.268      530.276       84.863        0.026      344.187       20.825      856.562
05/24/2013  16:24:00     -531.956     -332.456       -9.898      280.168      217.521      127.625    78494.344    47315.568    16288.189       26.783        7.105      627.299      149.827        0.057      344.120       20.711      856.516
05/24/2013  16:25:00     -313.890      -65.610       20.509      226.754      193.234      113.703    51417.553    37339.340    12928.462       10.245        5.084      320.674      106.213        0.110      344.410       21.206      856.545
05/24/2013  16:26:00     -355.630      -99.429        0.053      246.566      173.517       94.847    60794.897    30108.147     8995.965       11.811        4.995      369.268      120.747        0.107      344.417       21.219      856.557
05/24/2013  16:27:00     -273.799     -202.452       12.990      192.462      208.606      107.230    37041.453    43516.335    11498.334       10.407        4.603      340.518      109.730        0.104      344.327       21.064      856.523
05/24/2013  16:28:00     -620.130     -166.460      -34.843      224.037      226.011      107.556    50192.774    51080.895    11568.380       26.314        5.642      642.083      101.159        0.025      344.311       21.036      856.524
05/24/2013  16:29:00     -274.382     -279.805       15.668      219.354      199.458      108.674    48115.994    39783.636    11810.063       12.675        4.985      391.888      132.536        0.114      344.406       21.199      856.537
05/24/2013  16:30:00     -401.758      -92.211      -10.128      256.789      165.049       94.632    65940.839    27241.201     8955.291       13.606        5.107      412.204      105.359        0.065      344.386       21.164      856.574
05/24/2013  16:31:00     -509.628     -323.558      -17.241      268.101      193.566       95.439    71878.363    37467.870     9108.539       24.156        5.923      603.664      108.833        0.033      344.268       20.963      856.590
05/24/2013  16:32:00     -359.433     -270.234        6.340      283.142      246.075      128.748    80169.444    60553.116    16575.980       17.975        7.865      449.687      148.148        0.109      344.146       20.754      856.606
05/24/2013  16:33:00     -389.701     -242.019        3.043      251.788      248.506      117.676    63397.335    61755.441    13847.676       17.470        6.950      458.737      134.455        0.086      344.279       20.982      856.559
05/24/2013  16:34:00     -391.569     -210.838      -10.550      214.653      179.957      102.974    46075.982    32384.379    10603.626       14.346        4.453      444.723      108.307        0.059      344.359       21.120      856.592
05/24/2013  16:35:00     -388.170     -214.233      -13.150      239.060      146.555      104.419    57149.697    21478.367    10903.356       14.312        4.477      443.364      124.052        0.078      344.244       20.921      856.623
05/24/2013  16:36:00     -301.743     -210.575        0.541      273.606      251.848      121.300    74860.400    63427.182    14713.733       14.417        7.650      367.955      138.523        0.142      344.214       20.870      856.636
05/24/2013  16:37:00     -521.915     -220.446      -18.733      244.588      197.772      109.770    59823.298    39113.580    12049.458       21.615        5.549      566.561      115.548        0.042      344.060       20.607      856.610
05/24/2013  16:38:00     -369.807     -163.833      -11.851      244.414      213.828       90.999    59738.254    45722.367     8280.869       13.872        5.687      404.473       99.697        0.061      344.178       20.810      856.622
05/24/2013  16:39:00     -333.701     -255.176      -16.399      209.554      183.176      116.797    43913.051    33553.389    13641.525       13.391        4.555      420.085      119.997        0.082      344.205       20.856      856.625
05/24/2013  16:40:00     -444.805     -253.514      -13.671      249.563      180.200       99.100    62281.615    32471.930     9820.822       18.342        5.229      511.977      121.614        0.056      344.206       20.855      856.628
05/24/2013  16:41:00     -285.174      -34.941      -15.743      218.993      163.300       93.134    47958.075    26666.795     8674.006        8.303        4.165      287.307       90.048        0.098      344.360       21.120      856.619
05/24/2013  16:42:00     -277.447     -159.982        3.987      142.270      179.680       82.183    20240.803    32284.766     6754.044        8.092        2.964      320.267       62.100        0.038      344.352       21.105      856.613
05/24/2013  16:43:00     -304.913     -247.480       16.286      265.860      192.174      107.427    70681.593    36930.660    11540.528       13.680        5.958      392.706      141.137        0.129      344.339       21.084      856.614
05/24/2013  16:44:00     -340.110     -266.149        1.977      262.145      202.638      117.885    68720.173    41062.009    13896.887       15.508        6.184      431.868      140.895        0.106      344.205       20.857      856.608
05/24/2013  16:45:00     -397.776     -242.979       10.695      211.630      168.546      104.769    44787.154    28407.859    10976.582       15.076        4.209      466.117      115.034        0.061      344.141       20.746      856.582
05/24/2013  16:46:00     -283.697      -58.478       10.596      169.749      168.181       83.304    28814.640    28284.699     6939.498        7.402        3.202      289.661       82.697        0.082      344.432       21.244      856.598
05/24/2013  16:47:00     -300.995      -75.663      -13.446      214.426      147.714       93.037    45978.651    21819.523     8655.834        8.647        3.823      310.360       95.986        0.096      344.372       21.141      856.556
05/24/2013  16:48:00     -520.796     -278.189        2.401      270.126      213.756      109.836    72967.828    45691.481    12063.839       23.965        6.536      590.439      128.834        0.048      344.177       20.806      856.549
05/24/2013  16:49:00     -594.179     -384.312      -22.622      302.946      223.030      133.797    91776.298    49742.438    17901.620       33.031        7.971      707.633      159.765        0.051      344.019       20.537      856.524
05/24/2013  16:50:00     -518.719     -247.713      -16.904      226.681      199.852      104.347    51384.347    39940.785    10888.392       21.645        5.111      574.831      120.578        0.044      343.967       20.447      856.543
05/24/2013  16:51:00     -292.639     -238.369       -3.917      204.369      174.607       94.893    41766.618    30487.580     9004.691       11.185        4.063      377.435      114.882        0.093      344.134       20.734      856.548
05/24/2013  16:52:00     -304.296     -222.967       -0.614      176.629      137.134       76.608    31197.752    18805.660     5868.761        9.908        2.794      377.241       84.109        0.050      344.301       21.021      856.539
05/24/2013  16:53:00     -334.990     -276.056        3.051      268.336      196.778      128.666    72004.121    38721.410    16554.950       15.784        6.364      434.080      152.044        0.123      344.170       20.796      856.546
05/24/2013  16:54:00     -443.737     -352.628      -30.068      222.046      189.847      100.690    49304.417    36041.929    10138.425       20.880        4.774      566.788      109.786        0.038      344.097       20.671      856.553
05/24/2013  16:55:00     -291.091     -230.756       -2.126      198.525      160.678       93.047    39412.100    25817.337     8657.673       10.592        3.694      371.459      108.815        0.086      344.210       20.865      856.568
05/24/2013  16:56:00     -171.521     -120.018       22.048      213.700      153.643       80.539    45667.884    23606.154     6486.529        6.002        3.788      209.341      102.455        0.240      344.212       20.869      856.567
05/24/2013  16:57:00     -304.197      -93.156      -13.019      201.594      119.567       69.474    40640.030    14296.359     4826.650        8.056        2.988      318.141       85.034        0.071      344.380       21.156      856.585
05/24/2013  16:58:00     -399.505       26.431       17.298      286.431      195.214      105.508    82043.002    38108.322    11131.978       14.592        6.564      400.378      124.160        0.096      344.288       20.998      856.577
05/24/2013  16:59:00     -416.076     -268.413      -21.597      249.915      192.365      108.339    62457.604    37004.294    11737.322       17.840        5.560      495.141      120.296        0.059      344.134       20.733      856.589
05/24/2013  17:00:00     -300.051     -214.154        1.577      245.315      163.578       97.581    60179.221    26757.832     9521.962       11.616        4.823      368.636      121.652        0.109      344.107       20.690      856.571
05/24/2013  17:01:00     -357.792     -300.203       18.053      242.392      224.896      121.624    58753.989    50578.095    14792.426       17.127        6.206      467.051      132.991        0.081      343.960       20.437      856.543
05/24/2013  17:02:00     -367.396     -180.966       -2.746      137.299      144.484       73.995    18850.981    20875.667     5475.205       10.646        2.260      409.547       66.245        0.026      343.966       20.448      856.553
05/24/2013  17:03:00     -290.751     -152.264        3.962      216.616      159.262       74.858    46922.629    25364.447     5603.734        9.280        3.895      328.208       96.150        0.086      344.211       20.864      856.565
05/24/2013  17:04:00     -476.645     -401.057       -0.347      299.847      217.823      123.380    89908.316    47446.923    15222.515       27.028        7.629      622.926      146.376        0.055      343.803       20.169      856.536
05/24/2013  17:05:00     -404.215     -310.063        9.515      254.929      181.525      112.904    64988.905    32951.282    12747.247       18.513        5.534      509.439      138.199        0.074      343.852       20.251      856.494
05/24/2013  17:06:00     -322.212     -186.427       -5.182      272.244      192.324       95.436    74117.063    36988.594     9107.986       12.939        6.011      372.257       99.794        0.072      344.107       20.688      856.528
05/24/2013  17:07:00     -267.448     -146.050        1.780      201.883      162.059       94.498    40756.877    26263.155     8929.831        8.439        3.797      304.728      111.380        0.134      344.200       20.847      856.521
05/24/2013  17:08:00     -234.626     -138.894       10.200      136.265      130.596       70.224    18568.175    17055.332     4931.447        5.749        2.028      272.655       73.292        0.072      344.305       21.028      856.540
05/24/2013  17:09:00     -477.016     -201.050      -30.988      259.146      254.085      104.840    67156.612    64559.311    10991.358       20.579        7.135      517.654      118.846        0.053      344.135       20.736      856.535
05/24/2013  17:10:00     -544.750     -308.268      -42.345      258.493      226.417      107.123    66818.394    51264.782    11475.436       26.154        6.478      625.924      114.801        0.034      343.965       20.446      856.538
05/24/2013  17:11:00     -559.644     -296.477      -38.178      183.994      163.630       95.896    33853.777    26774.929     9196.032       23.618        3.491      633.324       95.452        0.023      344.075       20.633      856.537
05/24/2013  17:12:00     -370.363     -196.947        2.788      210.005      155.550       91.604    44102.039    24195.863     8391.368       12.631        3.834      419.472      103.880        0.061      344.092       20.663      856.589
05/24/2013  17:13:00     -346.944     -259.295       -3.275      229.520      188.189      110.062    52679.488    35415.172    12113.596       14.389        5.010      433.132      116.414        0.072      343.967       20.450      856.591
05/24/2013  17:14:00     -281.728     -233.269       -5.304      201.491      168.247       95.526    40598.586    28306.983     9125.301       10.591        3.902      365.766      104.669        0.082      343.906       20.344      856.571
05/24/2013  17:15:00     -215.072     -140.678       25.730      218.692      129.452       81.311    47826.249    16757.902     6611.539        6.894        3.560      256.995      101.290        0.155      343.955       20.429      856.604
05/24/2013  17:16:00     -462.091     -160.816      -10.272      205.226      192.516       99.604    42117.621    37062.420     9920.947       16.428        4.455      489.275      106.795        0.048      343.889       20.316      856.579
05/24/2013  17:17:00     -248.412     -155.611       28.456      162.922      140.239       80.261    26543.598    19667.090     6441.839        6.968        2.633      293.127       86.457        0.087      343.930       20.385      856.556
05/24/2013  17:18:00     -279.691     -118.873      -13.477      150.153      143.895       69.365    22545.957    20705.802     4811.466        7.029        2.403      303.904       76.224        0.063      343.994       20.496      856.538
05/24/2013  17:19:00     -563.152     -159.258      -40.765      189.581      195.341       82.568    35940.793    38158.096     6817.410       21.253        4.046      585.238       88.697        0.023      344.067       20.619      856.474
05/24/2013  17:20:00     -461.279     -228.066       -2.226      202.960      218.790      107.226    41192.876    47869.202    11497.521       18.266        5.028      514.580      110.340        0.046      344.024       20.546      856.515
05/24/2013  17:21:00     -445.150     -258.854       -6.709      251.851      172.889      106.386    63429.132    29890.456    11318.065       18.491        5.232      514.941      133.115        0.067      343.908       20.348      856.491
05/24/2013  17:22:00     -295.002     -127.664       14.316      257.913      176.888      100.017    66518.928    31289.323    10003.446       10.565        5.391      321.441      126.998        0.156      344.063       20.612      856.494
05/24/2013  17:23:00     -393.910     -182.042       -0.104      241.072      172.515       88.482    58115.625    29761.304     7829.110       14.199        4.785      433.940      103.577        0.057      343.980       20.471      856.515
05/24/2013  17:24:00     -269.676     -263.973       -2.386      162.914      181.776       91.116    26540.875    33042.441     8302.165       10.514        3.394      377.368      100.592        0.071      343.934       20.391      856.550
05/24/2013  17:25:00     -342.273     -215.714       -3.518      147.329      129.687       75.717    21705.973    16818.796     5733.050       10.397        2.213      404.578       82.412        0.041      343.976       20.465      856.508
05/24/2013  17:26:00     -326.874     -190.849        5.201      214.871      184.637      102.745    46169.635    34090.786    10556.605       11.704        4.541      378.510      113.785        0.090      344.062       20.611      856.474
05/24/2013  17:27:00     -473.879     -248.117      -14.707      282.733      257.437      110.702    79938.225    66273.870    12254.994       22.238        7.923      534.905      102.996        0.037      343.914       20.358      856.497
05/24/2013  17:28:00     -460.663     -123.077      -26.004      252.296      173.668      107.215    63653.243    30160.734    11495.027       16.665        5.265      476.821      128.390        0.073      343.867       20.276      856.520
05/24/2013  17:29:00     -439.321      -66.768       -6.558      256.254      188.296      103.495    65666.255    35455.510    10711.307       15.465        5.592      444.365      100.977        0.052      343.910       20.353      856.487
05/24/2013  17:30:00     -413.640     -205.356      -20.174      182.113      137.129       84.884    33165.169    18804.235     7205.280       13.642        2.959      461.811       83.515        0.033      343.949       20.419      856.484
05/24/2013  17:31:00     -533.048      -99.240      -34.188      259.762      185.539       96.210    67476.059    34424.726     9256.412       20.314        5.558      542.207      100.539        0.034      343.936       20.397      856.474
05/24/2013  17:32:00     -328.918      -16.838      -13.980      208.261      184.340       99.055    43372.566    33981.175     9811.925        9.790        4.358      329.348      108.528        0.109      343.943       20.409      856.480
05/24/2013  17:33:00     -482.102      -87.327      -10.098      211.039      183.578       94.141    44537.286    33700.708     8862.446       16.361        4.355      489.947      113.237        0.053      343.820       20.197      856.446
05/24/2013  17:34:00     -397.590      -36.798      -24.839      139.519      125.165       74.096    19465.666    15666.153     5490.283       10.033        2.031      399.289       58.693        0.022      344.040       20.572      856.460
05/24/2013  17:35:00     -480.892     -134.468        7.832      273.360      175.131      107.283    74725.662    30670.811    11509.579       18.313        5.845      499.339      129.935        0.068      343.927       20.380      856.473
05/24/2013  17:36:00     -189.528     -103.943        5.084      137.954      108.449       70.319    19031.233    11761.186     4944.708        4.124        1.787      216.160       73.808        0.117      343.937       20.399      856.477
05/24/2013  17:37:00     -169.411      -39.695       10.970      159.181       99.782       60.168    25338.434     9956.510     3620.181        3.465        1.946      174.000       75.858        0.190      344.126       20.724      856.483
05/24/2013  17:38:00     -371.330     -127.741       -4.005      232.492      163.970      100.408    54052.319    26886.254    10081.684       12.260        4.551      392.687      115.631        0.087      343.930       20.386      856.482
05/24/2013  17:39:00     -408.787      -85.971      -17.996      229.083      140.039       96.067    52479.149    19611.017     9228.958       12.806        4.066      417.730      103.475        0.061      343.910       20.354      856.434
05/24/2013  17:40:00     -474.308     -209.109       -9.472      183.289      138.157       79.463    33594.730    19087.343     6314.332       16.388        2.950      518.358       81.686        0.025      343.806       20.173      856.444
05/24/2013  17:41:00     -387.699     -141.818      -26.202      143.694      137.292       84.103    20647.890    18849.025     7073.333       10.883        2.329      412.823       81.276        0.039      343.988       20.483      856.475
05/24/2013  17:42:00     -310.443     -104.269      -10.089      192.439      186.042       80.647    37032.651    34611.513     6503.910        9.274        3.907      327.486       78.881        0.058      344.026       20.550      856.448
05/24/2013  17:43:00     -305.807     -174.889        5.957      155.994      134.322       88.629    24334.211    18042.293     7855.168        8.718        2.512      352.284       90.070        0.065      343.942       20.407      856.468
05/24/2013  17:44:00     -400.697     -294.586      -12.651      202.937      164.929       87.903    41183.588    27201.466     7726.938       16.179        3.806      497.332       92.963        0.035      343.855       20.256      856.459
05/24/2013  17:45:00     -426.296     -280.874       -6.768      193.785      187.632       95.738    37552.682    35205.624     9165.672       17.128        4.096      510.508      102.404        0.040      343.866       20.276      856.443
05/24/2013  17:46:00     -357.924     -213.946       -4.471      176.141      177.025       88.278    31025.798    31337.778     7793.003       12.202        3.508      416.992       89.545        0.046      343.880       20.299      856.443
05/24/2013  17:47:00     -236.372     -115.785        8.365      201.956      172.676       93.282    40786.158    29817.102     8701.497        7.431        3.965      263.207      106.537        0.164      344.101       20.679      856.457
05/24/2013  17:48:00     -400.809     -245.170      -15.006      267.217      213.951      102.517    71405.157    45774.892    10509.683       17.431        6.384      469.846      131.444        0.078      343.800       20.163      856.454
05/24/2013  17:49:00     -320.431      -24.240       16.247      299.847      148.964      110.830    89908.093    22190.179    12283.297       11.393        6.219      321.346      132.233        0.169      343.918       20.365      856.412
05/24/2013  17:50:00     -249.465      -74.280       -0.262      163.176      151.939       80.073    26626.370    23085.396     6411.716        6.193        2.806      260.289       94.812        0.133      344.018       20.536      856.456
05/24/2013  17:51:00     -408.242     -186.421      -18.732      214.719      161.164      104.120    46104.084    25973.835    10840.871       14.233        4.146      448.792      114.032        0.065      343.874       20.291      856.415
05/24/2013  17:52:00     -651.912      -33.596      -23.854      349.012      175.482      112.256   121809.199    30793.762    12601.437       29.592        8.260      652.777      151.208        0.054      343.766       20.106      856.422
05/24/2013  17:53:00     -542.994     -158.247      -10.286      235.945      197.928      115.169    55669.925    39175.596    13263.984       21.403        5.405      565.583      120.380        0.045      343.644       19.897      856.410
05/24/2013  17:54:00     -627.619      -53.478      -17.706      233.632      201.470      107.426    54583.767    40589.968    11540.300       25.188        5.336      629.893      113.711        0.033      343.661       19.925      856.424
05/24/2013  17:55:00     -502.817      -13.212      -19.843      261.077      224.087       90.545    68161.125    50214.764     8198.380       18.996        6.329      502.991       84.677        0.028      343.640       19.891      856.419
05/24/2013  17:56:00     -264.540     -125.535       11.614      205.016      191.137       94.506    42031.468    36533.442     8931.353        8.667        4.375      292.815      106.620        0.133      343.823       20.203      856.446
05/24/2013  17:57:00     -415.825     -159.750       -1.338      257.562      187.291      116.366    66338.441    35078.074    13540.953       15.668        5.748      445.456      135.716        0.093      343.687       19.970      856.444
05/24/2013  17:58:00     -564.151       -8.628      -47.209      272.382      261.462      115.301    74191.915    68362.341    13294.408       23.818        7.792      564.217      107.035        0.036      343.654       19.914      856.413
05/24/2013  17:59:00     -284.878     -187.661        4.272      184.145      155.434       83.904    33909.394    24159.677     7039.923        9.074        3.255      341.134       93.988        0.076      343.717       20.021      856.421
05/24/2013  18:00:00     -314.781     -217.611        2.969      222.777      177.496       91.207    49629.684    31504.751     8318.687       11.794        4.473      382.677      107.543        0.079      343.620       19.857      856.447
05/24/2013  18:01:00     -359.591     -260.565       -9.165      232.087      165.514       90.533    53864.565    27394.933     8196.210       14.335        4.473      444.072      112.270        0.064      343.744       20.069      856.479
05/24/2013  18:02:00     -452.295     -233.522       -5.358      287.473      205.054      115.272    82640.457    42047.110    13287.592       19.853        6.899      509.022      136.977        0.072      343.691       19.979      856.443
05/24/2013  18:03:00     -262.891     -100.490       10.520      235.662      151.556       82.462    55536.425    22969.191     6800.052        8.230        4.265      281.443       82.330        0.086      343.908       20.350      856.462
05/24/2013  18:04:00     -404.722     -231.659       -8.979      255.876      214.833      106.779    65472.596    46153.117    11401.708       17.027        6.151      466.332      124.756        0.072      343.677       19.953      856.502
05/24/2013  18:05:00     -474.422     -244.717        0.407      259.359      220.214       99.875    67266.844    48494.068     9974.922       20.533        6.287      533.819      129.098        0.058      343.646       19.901      856.497
05/24/2013  18:06:00     -354.874     -112.264       -5.575      227.531      181.295       92.264    51770.469    32867.887     8512.586       11.584        4.658      372.208       94.031        0.064      343.653       19.912      856.530
05/24/2013  18:07:00     -221.562     -116.071       28.498      205.304      151.426       85.480    42149.654    22929.933     7306.903        6.787        3.619      250.124       97.709        0.153      343.594       19.813      856.543
05/24/2013  18:08:00     -237.403      -37.682        0.475      131.345      123.286       57.415    17251.457    15199.413     3296.440        4.676        1.787      240.375       60.500        0.063      343.728       20.042      856.559
05/24/2013  18:09:00     -286.163      -68.920       -1.459      190.132      158.620       87.169    36150.260    25160.221     7598.428        7.776        3.445      294.345       88.585        0.091      343.710       20.010      856.555
05/24/2013  18:10:00     -334.633     -158.584       17.471      249.740      194.418       98.152    62370.122    37798.295     9633.883       12.360        5.490      370.308      136.997        0.137      343.536       19.715      856.510
05/24/2013  18:11:00     -492.397      -90.903      -16.593      274.626      205.242       86.570    75419.250    42124.128     7494.330       18.799        6.252      500.718      100.433        0.040      343.573       19.776      856.528
05/24/2013  18:12:00     -576.749     -182.864      -44.733      280.788      197.376      107.659    78841.867    38957.100    11590.552       24.871        6.469      605.045      119.806        0.039      343.576       19.783      856.541
05/24/2013  18:13:00     -474.488     -266.790        5.750      256.844      176.248      109.668    65968.932    31063.279    12027.167       20.269        5.453      544.349      127.117        0.055      343.470       19.600      856.564
05/24/2013  18:14:00     -471.484     -242.232      -17.756      281.739      181.851       89.565    79376.872    33069.812     8021.898       20.086        6.023      530.070      106.201        0.040      343.529       19.702      856.595
05/24/2013  18:15:00     -471.421     -164.780      -32.627      177.835      168.445       84.614    31625.293    28373.601     7159.583       15.880        3.358      499.390       92.208        0.034      343.483       19.624      856.608
05/24/2013  18:16:00     -395.416     -193.861       -8.406      199.648      151.784       83.436    39859.365    23038.521     6961.515       13.192        3.493      440.382      104.069        0.056      343.508       19.665      856.589
05/24/2013  18:17:00     -395.329      -42.752      -14.742      157.673      128.455       81.752    24860.915    16500.695     6683.395       10.318        2.402      397.634       85.137        0.046      343.599       19.820      856.585
05/24/2013  18:18:00     -280.967      -53.436       -2.719      194.243      149.964       99.702    37730.537    22489.143     9940.534        7.597        3.508      286.003       95.748        0.112      343.621       19.857      856.603
05/24/2013  18:19:00     -300.255      -24.991        6.370      184.037      130.269       83.467    33869.582    16970.094     6966.680        7.430        2.890      301.293       90.664        0.091      343.581       19.790      856.605
05/24/2013  18:20:00     -355.979      -32.631       -2.179      235.796      166.281       93.229    55599.757    27649.382     8691.714       10.985        4.597      357.471      111.187        0.097      343.458       19.580      856.603
05/24/2013  18:21:00     -378.190     -145.991       -6.501      180.843      187.603       81.110    32704.162    35194.757     6578.830       11.942        3.724      405.390       81.640        0.041      343.477       19.612      856.629
05/24/2013  18:22:00     -308.967     -183.554        4.298      208.568      163.093       81.952    43500.605    26599.421     6716.080       10.298        3.841      359.379       65.344        0.033      343.419       19.513      856.606
05/24/2013  18:23:00     -406.347     -316.521       -7.709      208.968      169.181       98.047    43667.813    28622.317     9613.130       17.362        4.095      515.077       97.750        0.036      343.318       19.342      856.597
05/24/2013  18:24:00     -393.847     -224.725       -0.421      192.342      173.711       89.352    36995.407    30175.385     7983.753       14.037        3.758      453.450       94.768        0.044      343.378       19.444      856.615
05/24/2013  18:25:00     -240.420      -91.660       -2.179      141.832      122.340       66.129    20116.325    14967.023     4372.983        5.283        1.973      257.300       78.315        0.093      343.547       19.732      856.639
05/24/2013  18:26:00     -257.289      -68.950      -11.494      175.155      128.830       66.822    30679.317    16597.048     4465.137        6.140        2.587      266.367       75.074        0.079      343.543       19.726      856.637
05/24/2013  18:27:00     -455.459      -93.239      -25.846      212.251      195.770       82.805    45050.676    38326.068     6856.712       15.350        4.512      464.905      100.449        0.047      343.377       19.442      856.629
05/24/2013  18:28:00     -297.329      -33.768       -1.795      155.593      129.845       66.425    24209.028    16859.713     4412.309        6.751        2.274      299.240       62.673        0.044      343.512       19.672      856.660
05/24/2013  18:29:00     -312.334     -205.240       -3.264      153.106      177.153       77.422    23441.295    31383.117     5994.154       10.024        3.041      373.733       70.584        0.036      343.374       19.439      856.676
05/24/2013  18:30:00     -342.512     -183.812       -0.105      144.134      119.674       68.342    20774.671    14321.848     4670.673        9.543        1.988      388.717       60.537        0.024      343.216       19.167      856.657
05/24/2013  18:31:00     -358.061     -149.977      -19.394      162.980      126.788       72.817    26562.587    16075.316     5302.258        9.950        2.397      388.202       65.392        0.028      343.314       19.333      856.682
05/24/2013  18:32:00     -164.580      -73.725        2.599      121.902       76.345       50.313    14860.030     5828.626     2531.399        2.787        1.161      180.339       60.572        0.113      343.390       19.466      856.689
05/24/2013  18:33:00     -220.333      -90.158        3.768      173.089       97.644       61.014    29959.928     9534.330     3722.697        4.995        2.161      238.065       73.906        0.096      343.450       19.569      856.665
05/24/2013  18:34:00     -346.378      -90.649       -6.237      178.913      119.899       72.887    32009.877    14375.857     5312.586        8.996        2.585      358.043       82.450        0.053      343.394       19.473      856.683
05/24/2013  18:35:00     -208.479     -152.991       28.559      208.928      134.615      103.487    43651.079    18121.109    10709.518        7.007        3.624      258.591      114.183        0.195      343.353       19.401      856.669
05/24/2013  18:36:00     -379.696     -188.181      -11.111      263.484      204.527      110.096    69423.798    41831.196    12121.104       15.152        6.169      423.770      140.353        0.110      343.313       19.335      856.657
05/24/2013  18:37:00     -508.065     -167.029       -8.852      263.890      202.194       92.227    69637.687    40882.275     8505.778       20.255        5.951      534.817      120.489        0.051      343.157       19.067      856.706
05/24/2013  18:38:00     -360.869      -40.080       -7.660      224.576      139.693       68.266    50434.472    19514.022     4660.243       10.324        3.730      363.088       92.785        0.065      343.181       19.109      856.699
05/24/2013  18:39:00     -283.504     -204.236       -5.611      196.929      161.839       89.874    38781.114    26191.886     8077.420        9.757        3.653      349.409      101.088        0.084      343.187       19.117      856.699
05/24/2013  18:40:00     -300.751      -39.783      -23.786      142.078      131.588       64.687    20186.279    17315.330     4184.449        6.714        2.084      303.371       60.192        0.039      343.263       19.248      856.683
05/24/2013  18:41:00     -230.826     -138.631       -3.505      161.453      186.761       96.105    26067.205    34879.630     9236.194        7.134        3.509      269.257       93.313        0.120      343.249       19.225      856.680
05/24/2013  18:42:00     -383.030      -18.780       -1.332      247.493      142.032       97.055    61252.821    20173.092     9419.637       11.894        4.542      383.490      117.009        0.093      343.189       19.122      856.663
05/24/2013  18:43:00     -633.307      -93.398      -24.545      230.402      219.542      107.078    53084.981    48198.673    11465.654       26.156        5.637      640.157      118.385        0.034      343.111       18.988      856.632
05/24/2013  18:44:00     -514.032     -174.102      -16.270      216.554      186.294      109.342    46895.796    34705.591    11955.736       19.417        4.678      542.716      117.568        0.047      343.071       18.920      856.620
05/24/2013  18:45:00     -374.969     -123.298      -12.112      238.427      141.949       82.076    56847.409    20149.435     6736.502       11.983        4.187      394.720      105.268        0.071      343.125       19.013      856.646
05/24/2013  18:46:00     -362.104      -94.809      -10.895      231.570      210.749       97.699    53624.506    44415.344     9545.086       12.389        5.379      374.310       86.367        0.053      343.159       19.070      856.644
05/24/2013  18:47:00     -294.179     -132.797      -10.448      197.962      173.554       67.691    39188.873    30121.013     4582.070        8.908        3.695      322.764       71.286        0.049      343.175       19.098      856.653
05/24/2013  18:48:00     -215.456      -94.560       15.707      229.703      205.289       91.655    52763.615    42143.756     8400.646        7.944        5.165      235.293      115.863        0.242      343.175       19.099      856.664
05/24/2013  18:49:00     -375.986     -273.133      -11.566      192.207      157.805       93.043    36943.519    24902.372     8657.016       14.329        3.525      464.723      103.229        0.049      343.112       18.990      856.678
05/24/2013  18:50:00     -534.219      -90.999      -23.598      200.981      164.782       90.968    40393.457    27153.065     8275.188       18.501        3.791      541.914       96.770        0.032      343.061       18.903      856.689
05/24/2013  18:51:00     -366.657     -169.375      -27.278      161.134      103.047       72.824    25964.262    10618.720     5303.362       10.287        2.094      403.887       77.340        0.037      343.029       18.849      856.679
05/24/2013  18:52:00     -448.519     -103.023      -18.918      190.664      166.614       85.493    36352.583    27760.294     7309.024       14.177        3.571      460.199       79.988        0.030      343.079       18.934      856.678
05/24/2013  18:53:00     -439.509     -244.163      -19.079      183.267      160.041       80.378    33586.964    25613.122     6460.652       15.939        3.283      502.776       69.829        0.019      342.959       18.729      856.686
05/24/2013  18:54:00     -452.096     -132.241      -15.157      254.313      145.780       84.083    64675.237    21251.855     7069.995       15.754        4.650      471.039      105.669        0.050      342.984       18.773      856.683
05/24/2013  18:55:00     -383.770     -132.938       -5.526      274.646      173.076       92.452    75430.545    29955.411     8547.387       13.944        5.697      406.143      106.000        0.068      342.974       18.755      856.673
05/24/2013  18:56:00     -380.588      -22.740        1.351      263.260      109.645       85.951    69305.784    12021.933     7387.602       11.703        4.436      381.267       84.575        0.049      342.970       18.751      856.687
05/24/2013  18:57:00     -290.634      -31.570       10.639      168.087      144.132       86.215    28253.373    20774.098     7432.952        7.101        2.823      292.344       91.726        0.098      342.916       18.657      856.686
05/24/2013  18:58:00     -438.920      -18.278      -26.215      128.116      112.618       68.613    16413.738    12682.782     4707.682       11.373        1.690      439.300       69.252        0.025      342.938       18.695      856.691
05/24/2013  18:59:00     -484.142       56.032      -29.558      273.379      153.611       97.211    74736.189    23596.419     9449.915       17.308        5.389      487.373      106.343        0.048      342.887       18.607      856.617
05/24/2013  19:00:00     -394.689      -95.019      -15.762      194.987      134.179       80.242    38019.745    18004.124     6438.849       11.375        3.123      405.966       83.545        0.042      342.881       18.599      856.616
05/24/2013  19:01:00     -378.678     -120.593       -9.875      212.532      182.660       87.523    45169.675    33364.825     7660.192       12.210        4.310      397.416       90.231        0.052      342.892       18.616      856.600
05/24/2013  19:02:00     -553.585     -239.273      -29.342      268.224      186.303       97.768    71944.261    34708.737     9558.538       24.037        5.811      603.083      114.920        0.036      342.814       18.485      856.618
05/24/2013  19:03:00     -408.815     -110.251       12.304      236.529      217.097      118.683    55945.835    47130.952    14085.672       14.828        5.858      423.421      113.640        0.072      342.815       18.487      856.655
05/24/2013  19:04:00     -584.559     -147.195      -17.941      341.211      220.855      140.482   116424.904    48776.865    19735.056       27.429        9.247      602.806      169.800        0.079      342.729       18.339      856.684
05/24/2013  19:05:00     -746.008     -216.786      -43.053      253.067      205.538      108.643    64042.855    42245.671    11803.338       36.172        5.905      776.869      107.066        0.019      342.711       18.309      856.695
05/24/2013  19:06:00     -583.080     -210.022      -28.810      203.386      177.630       97.254    41365.990    31552.447     9458.413       23.364        4.119      619.751       97.275        0.025      342.734       18.346      856.728
05/24/2013  19:07:00     -467.868      -50.677      -18.605      230.022      186.301       93.391    52910.291    34708.177     8721.862       15.906        4.817      470.604      101.714        0.047      342.736       18.352      856.722
05/24/2013  19:08:00     -664.080     -187.135      -29.193      252.854      224.598      113.256    63935.215    50444.298    12827.033       30.202        6.360      689.943      122.031        0.031      342.664       18.228      856.690
05/24/2013  19:09:00     -423.424      -75.831      -34.653      252.269      168.273       72.785    63639.871    28315.802     5297.588       14.173        4.863      430.161      105.894        0.061      342.730       18.340      856.693
05/24/2013  19:10:00     -324.886     -147.129       -8.665      210.630      161.512       96.037    44365.183    26086.281     9223.190       10.346        3.984      356.647      100.551        0.079      342.723       18.329      856.735
05/24/2013  19:11:00     -312.488     -176.503      -15.063      181.815      146.737       82.459    33056.761    21531.795     6799.470        9.520        3.069      358.890       85.332        0.057      342.734       18.347      856.751
05/24/2013  19:12:00     -385.080     -217.578       -3.456      233.312      169.909       97.876    54434.665    28869.119     9579.748       14.425        4.644      442.297      109.581        0.061      342.715       18.317      856.748
05/24/2013  19:13:00     -418.521     -120.267        4.610      277.354      209.778      110.517    76925.381    44006.666    12213.986       16.137        6.657      435.458      140.219        0.104      342.682       18.260      856.756
05/24/2013  19:14:00     -270.014      -71.692       11.524      186.165      186.026       90.017    34657.484    34605.571     8103.022        7.776        3.868      279.369       87.567        0.098      342.700       18.290      856.791
05/24/2013  19:15:00     -250.789     -123.149       -0.940      174.643      183.412       93.937    30500.246    33640.077     8824.195        7.550        3.648      279.394       92.336        0.109      342.680       18.256      856.834
05/24/2013  19:16:00     -403.313     -119.461      -14.433      160.983      148.217       78.698    25915.397    21968.247     6193.325       11.560        2.704      420.634       69.299        0.027      342.679       18.254      856.843
05/24/2013  19:17:00     -491.243      -33.805      -21.262      281.211      171.880      110.748    79079.566    29542.836    12265.190       18.188        6.044      492.405      120.694        0.060      342.629       18.167      856.832
05/24/2013  19:18:00     -332.514      -77.182        1.553      227.947      184.108      108.296    51959.754    33895.893    11727.961       10.704        4.879      341.354      116.417        0.116      342.629       18.171      856.832
05/24/2013  19:19:00     -295.833      -62.443       -9.418      193.557      131.371       91.536    37464.202    17258.288     8378.854        7.729        3.155      302.351      112.641        0.139      342.630       18.172      856.844
05/24/2013  19:20:00     -393.761     -174.888        1.621      253.352      168.596      107.892    64187.375    28424.772    11640.699       14.493        5.213      430.852      127.359        0.087      342.597       18.116      856.851
05/24/2013  19:21:00     -339.174      -44.684       11.419      260.809      193.776       92.761    68021.357    37549.022     8604.674       11.565        5.709      342.105      106.414        0.097      342.603       18.125      856.859
05/24/2013  19:22:00     -486.822      -80.748        3.361      233.372      210.909      105.876    54462.459    44482.474    11209.829       17.682        5.508      493.474      114.841        0.054      342.531       18.004      856.867
05/24/2013  19:23:00     -503.039      -22.157      -32.923      206.092      124.222       95.017    42473.920    15431.164     9028.287       16.077        3.347      503.526      106.241        0.045      342.569       18.068      856.905
05/24/2013  19:24:00     -342.151      -49.993       -9.352      187.715      127.750       79.935    35237.087    16320.053     6389.647        8.879        2.897      345.784       87.219        0.064      342.572       18.073      856.919
05/24/2013  19:25:00     -257.195      -89.018        4.503      158.687      141.735       82.006    25181.430    20088.754     6725.044        6.304        2.600      272.165       82.404        0.092      342.575       18.079      856.915
05/24/2013  19:26:00     -237.856      -97.535       22.655      214.753      114.296       87.604    46118.995    13063.606     7674.457        6.672        3.343      257.077      107.709        0.176      342.556       18.047      856.926
05/24/2013  19:27:00     -280.805     -126.611       10.753      197.471      186.026       89.140    38994.852    34605.632     7945.855        8.826        4.077      308.029      104.790        0.116      342.535       18.011      856.948
05/24/2013  19:28:00     -432.406      -55.306      -24.420      304.565      147.057       88.484    92760.129    21625.735     7829.386       15.640        6.111      435.929      121.516        0.078      342.514       17.975      856.941
05/24/2013  19:29:00     -393.828     -141.541       -7.884      250.633      151.042       88.362    62817.140    22813.710     7807.928       13.430        4.672      418.490       89.885        0.046      342.499       17.949      856.955
05/24/2013  19:30:00     -411.967     -266.229      -11.360      223.098      164.573      103.738    49772.502    27084.292    10761.559       16.416        4.381      490.504      106.486        0.047      342.464       17.887      856.951
05/24/2013  19:31:00     -268.479     -171.854       -5.056      196.992      160.801       81.294    38805.732    25856.875     6608.708        8.644        3.564      318.771       94.442        0.088      342.452       17.868      856.962
05/24/2013  19:32:00     -255.921      -35.930       -7.174      155.425      102.357       62.908    24156.859    10476.863     3957.366        5.271        1.930      258.431       62.646        0.059      342.493       17.938      856.958
05/24/2013  19:33:00     -445.578      -72.365      -27.050      216.950      142.620       88.131    47067.275    20340.404     7767.048       13.983        3.759      451.416      106.125        0.055      342.426       17.825      856.948
05/24/2013  19:34:00     -430.275      -94.040      -18.691      152.572      131.541       75.019    23278.347    17303.093     5627.924       12.026        2.310      440.432       63.877        0.021      342.430       17.831      856.947
05/24/2013  19:35:00     -440.182     -117.379       -7.451      190.000      156.603       84.925    36100.123    24524.608     7212.182       13.770        3.392      455.563       91.379        0.040      342.413       17.802      856.927
05/24/2013  19:36:00     -453.593      -76.873       -3.575      196.057      161.492       89.463    38438.291    26079.776     8003.705       14.208        3.626      460.061       90.625        0.039      342.371       17.730      856.913
05/24/2013  19:37:00     -541.498     -170.203       -7.852      185.721      145.924       77.964    34492.358    21293.676     6078.380       19.205        3.093      567.617       86.807        0.023      342.335       17.669      856.912
05/24/2013  19:38:00     -366.947      -44.663        3.274      200.472      142.052       92.153    40189.027    20178.785     8492.128       10.275        3.443      369.655      105.982        0.082      342.330       17.660      856.923
05/24/2013  19:39:00     -420.858      -59.749      -10.756      210.350      122.655       79.517    44246.997    15044.312     6322.914       12.320        3.281      425.078       89.501        0.044      342.340       17.679      856.928
05/24/2013  19:40:00     -406.082      -66.120       -4.618      211.537      127.041       84.171    44748.111    16139.481     7084.773       11.862        3.399      411.430      109.414        0.071      342.324       17.651      856.925
05/24/2013  19:41:00     -559.401     -135.406      -20.487      249.957      198.732      104.704    62478.497    39494.534    10963.020       22.229        5.647      575.556      121.901        0.045      342.268       17.555      856.926
05/24/2013  19:42:00     -468.734     -127.341      -12.027      227.953      143.942       95.260    51962.693    20719.239     9074.384       15.890        4.088      485.724      116.608        0.058      342.271       17.561      856.923
05/24/2013  19:43:00     -506.635      -98.592       -4.363      262.254      189.746      105.403    68777.386    36003.589    11109.768       19.114        5.795      516.139      119.034        0.053      342.204       17.449      856.912
05/24/2013  19:44:00     -586.847      -83.405      -11.302      216.679      181.866       95.567    46949.915    33075.422     9133.049       22.030        4.458      592.745      109.726        0.034      342.200       17.441      856.894
05/24/2013  19:45:00     -501.110     -116.164       -9.062      237.073      147.592       93.190    56203.486    21783.415     8684.372       17.566        4.334      514.398       99.680        0.038      342.205       17.448      856.884
05/24/2013  19:46:00     -479.798     -124.850       -4.229      208.644      176.167       80.667    43532.308    31034.665     6507.128       16.343        4.054      495.776      102.406        0.043      342.179       17.405      856.873
05/24/2013  19:47:00     -476.304      -59.921      -11.776      189.586      146.713       79.904    35942.931    21524.671     6384.574       14.721        3.193      480.058       89.636        0.035      342.178       17.403      856.874
05/24/2013  19:48:00     -528.691      -93.392      -22.699      216.467      178.124       97.879    46858.067    31728.065     9580.343       18.844        4.408      536.876      114.839        0.046      342.156       17.364      856.877
05/24/2013  19:49:00     -460.693      -77.114      -22.267      242.090      145.112       82.064    58607.721    21057.549     6734.531       15.253        4.320      467.102       93.862        0.040      342.146       17.348      856.890
05/24/2013  19:50:00     -561.922     -165.753      -13.433      275.170      177.530      101.733    75718.367    31517.056    10349.536       23.048        5.879      585.858      123.068        0.044      342.093       17.259      856.881
05/24/2013  19:51:00     -535.666      -23.067      -30.050      205.268      172.861       90.936    42135.151    29880.768     8269.443       18.432        4.014      536.162       90.804        0.029      342.091       17.254      856.865
05/24/2013  19:52:00     -622.883     -173.371      -51.331      241.547      249.257      118.048    58344.784    62128.917    13935.238       27.752        6.720      646.561      104.663        0.026      342.072       17.221      856.870
05/24/2013  19:53:00     -289.615      -95.057        6.475      211.492      153.694       95.072    44728.894    23621.739     9038.682        8.516        3.869      304.815      114.254        0.140      342.091       17.254      856.884
05/24/2013  19:54:00     -583.995      -97.173      -24.441      271.744      171.524      103.635    73844.753    29420.400    10740.164       23.253        5.700      592.024      122.069        0.043      342.053       17.190      856.918
05/24/2013  19:55:00     -504.249      -75.158      -46.330      187.510      135.042       72.985    35159.938    18236.232     5326.814       16.038        2.936      509.819       80.296        0.025      342.035       17.161      856.959
05/24/2013  19:56:00     -393.030      -71.658      -20.320      218.023      158.845       87.561    47534.204    25231.602     7666.905       12.021        4.022      399.509      109.471        0.075      342.010       17.118      856.995
05/24/2013  19:57:00     -521.851      -48.991      -22.666      202.750      165.797       82.424    41107.589    27488.495     6793.691       17.530        3.769      524.146       83.654        0.025      341.998       17.096      857.022
05/24/2013  19:58:00     -545.920     -200.349      -31.032      249.554      220.076       97.886    62277.209    48433.497     9581.627       22.969        6.015      581.522      106.484        0.034      341.984       17.071      857.035
05/24/2013  19:59:00     -573.023     -187.086      -13.752      276.363      222.785      106.501    76376.753    49633.037    11342.373       25.043        6.868      602.791      129.550        0.046      341.941       17.001      857.044
05/24/2013  20:00:00     -480.849     -124.514      -17.731      217.299      170.329       93.477    47219.071    29011.952     8737.895       16.599        4.248      496.709      102.760        0.043      341.939       16.996      857.094
05/24/2013  20:01:00     -371.800     -102.414        0.472      210.379      158.807       93.924    44259.384    25219.571     8821.720       11.350        3.915      385.647      107.154        0.077      341.946       17.010      857.138
05/24/2013  20:02:00     -491.139     -104.499      -19.789      229.288      135.742       82.720    52572.818    18425.950     6842.518       16.517        3.892      502.133      100.531        0.040      341.904       16.938      857.150
05/24/2013  20:03:00     -494.834      -38.947      -10.616      269.297      172.112       99.199    72520.967    29622.551     9840.404       17.922        5.599      496.365      114.166        0.053      341.836       16.822      857.155
05/24/2013  20:04:00     -579.988     -105.282      -20.824      215.815      167.475       93.592    46575.987    28047.899     8759.525       21.563        4.169      589.467      112.867        0.037      341.827       16.805      857.152
05/24/2013  20:05:00     -575.915      -94.550      -24.854      247.756      184.970       99.323    61382.948    34213.777     9865.038       22.333        5.273      583.624      107.195        0.034      341.820       16.795      857.161
05/24/2013  20:06:00     -702.723     -189.955      -23.996      235.276      203.260      106.205    55355.019    41314.733    11279.595       31.920        5.397      727.944      119.160        0.027      341.774       16.714      857.152
05/24/2013  20:07:00     -432.046      -88.217      -10.541      205.547      144.023       92.446    42249.662    20742.732     8546.268       13.304        3.577      440.960      107.063        0.059      341.796       16.753      857.165
05/24/2013  20:08:00     -487.567      -56.681      -21.889      223.435      176.802       96.724    49923.085    31258.966     9355.443       16.596        4.527      490.850      113.768        0.054      341.787       16.738      857.183
05/24/2013  20:09:00     -426.201      -68.199      -26.647      159.722      137.780       97.627    25511.274    18983.293     9530.959       12.051        2.701      431.623       90.514        0.044      341.782       16.730      857.202
05/24/2013  20:10:00     -473.995     -154.385      -22.261      225.896      140.368       82.319    51029.199    19703.216     6776.406       16.324        3.875      498.503       81.827        0.027      341.770       16.708      857.220
05/24/2013  20:11:00     -454.966     -115.029      -12.118      178.036      151.102       83.994    31696.736    22831.932     7055.043       14.097        3.079      469.283       80.172        0.029      341.725       16.634      857.199
05/24/2013  20:12:00     -417.143      -82.088       -9.795      187.422      130.814       77.526    35126.983    17112.291     6010.348       11.954        2.912      425.143       84.460        0.039      341.701       16.593      857.173
05/24/2013  20:13:00     -515.226      -30.170      -17.730      228.782      181.441      103.159    52341.255    32920.811    10641.861       18.128        4.795      516.109      124.684        0.058      341.687       16.569      857.178
05/24/2013  20:14:00     -518.520      -23.017      -29.468      246.614      153.415       86.794    60818.473    23536.168     7533.188       18.106        4.594      519.031       92.740        0.032      341.684       16.565      857.183
05/24/2013  20:15:00     -507.383      -15.800      -20.927      193.144      167.115       92.151    37304.783    27927.344     8491.864       16.591        3.686      507.629      105.575        0.043      341.663       16.530      857.209
05/24/2013  20:16:00     -396.451     -132.085      -15.140      198.275      148.976       90.086    39312.851    22193.841     8115.444       12.222        3.481      417.876      102.428        0.060      341.663       16.530      857.212
05/24/2013  20:17:00     -319.187     -102.060       20.480      255.477      143.547       80.458    65268.717    20605.859     6473.520       10.252        4.617      335.107      104.023        0.096      341.655       16.516      857.209
05/24/2013  20:18:00     -520.511       10.556      -27.091      267.897      162.658       85.651    71768.996    26457.554     7336.139       18.865        5.278      520.618      100.955        0.038      341.650       16.507      857.215
05/24/2013  20:19:00     -363.722     -191.498       -9.497      161.581      169.165       84.440    26108.464    28616.744     7130.100       11.544        3.093      411.054       76.590        0.035      341.650       16.507      857.219
05/24/2013  20:20:00     -356.227     -186.515        4.100      202.586      206.864      106.681    41041.016    42792.746    11380.869       12.844        4.761      402.101       98.232        0.060      341.609       16.437      857.211
05/24/2013  20:21:00     -412.608     -152.533       -4.870      154.682      189.096       84.450    23926.656    35757.377     7131.818       13.016        3.341      439.899       84.855        0.037      341.612       16.441      857.218
05/24/2013  20:22:00     -313.171     -142.996       -7.954      197.473      158.544       93.844    38995.469    25136.140     8806.765        9.575        3.647      344.273       89.519        0.068      341.604       16.430      857.180
05/24/2013  20:23:00     -359.835      -99.864        2.633      193.851      169.702       82.473    37578.043    28798.901     6801.841       10.631        3.659      373.435       96.005        0.066      341.588       16.401      857.198
05/24/2013  20:24:00     -599.478     -100.312      -25.498      284.576      219.681       97.618    80983.405    48259.537     9529.338       25.441        6.939      607.813       79.977        0.017      341.535       16.312      857.165
05/24/2013  20:25:00     -499.957      -98.930        0.144      292.314      184.265      104.924    85447.275    33953.567    11009.133       19.506        6.520      509.651      128.286        0.063      341.530       16.302      857.154
05/24/2013  20:26:00     -473.550      -50.314      -19.021      273.596      143.006       88.939    74854.691    20450.737     7910.159       16.516        5.161      476.216      121.925        0.066      341.533       16.309      857.172
05/24/2013  20:27:00     -604.601      -62.556      -36.493      220.250      175.704       85.182    48509.946    30872.006     7256.025       22.870        4.332      607.828       96.611        0.025      341.485       16.226      857.152
05/24/2013  20:28:00     -597.024      -55.470      -37.313      214.909      212.663       93.028    46186.046    45225.437     8654.168       23.047        5.003      599.595      103.207        0.030      341.479       16.217      857.137
05/24/2013  20:29:00     -554.873      -63.830      -10.821      231.966      156.466      100.073    53808.034    24481.519    10014.590       20.018        4.415      558.533      108.143        0.037      341.446       16.160      857.123
05/24/2013  20:30:00     -639.435      -85.535      -30.947      281.022      189.159      109.026    78973.539    35781.000    11886.682       27.188        6.332      645.131      137.846        0.046      341.420       16.116      857.114
05/24/2013  20:31:00     -786.653     -209.311      -48.751      261.889      190.212       99.647    68586.084    36180.771     9929.517       38.983        5.735      814.024      116.881        0.021      341.402       16.086      857.111
05/24/2013  20:32:00     -475.075     -178.271       -9.044      308.402      173.816      116.745    95111.743    30211.924    13629.426       19.823        6.948      507.421      149.207        0.086      341.397       16.078      857.114
05/24/2013  20:33:00     -606.211      -75.402      -28.377      242.558      202.612      107.489    58834.613    41051.652    11553.818       24.269        5.572      610.883      113.254        0.034      341.372       16.036      857.138
05/24/2013  20:34:00     -502.499       -0.248      -22.431      231.439      162.504       97.406    53564.095    26407.529     9487.912       17.122        4.473      502.499       90.851        0.033      341.379       16.045      857.146
05/24/2013  20:35:00     -440.955      -85.254        0.548      202.167      181.616       95.970    40871.670    32984.336     9210.185       14.237        4.153      449.121       79.286        0.031      341.379       16.046      857.163
05/24/2013  20:36:00     -294.764      -83.129       -6.895      162.481      137.809       70.572    26400.147    18991.238     4980.396        7.210        2.519      306.262       70.106        0.052      341.388       16.062      857.176
05/24/2013  20:37:00     -516.730     -109.960      -24.425      256.192      172.040       96.755    65634.412    29597.894     9361.442       19.213        5.230      528.300      111.779        0.045      341.351       15.999      857.182
05/24/2013  20:38:00     -590.626     -175.477      -42.625      206.572      199.359      104.561    42672.030    39743.816    10933.084       23.738        4.667      616.142       98.053        0.025      341.340       15.982      857.134
05/24/2013  20:39:00     -421.922      -63.353      -13.395      204.846      160.641       92.061    41962.077    25805.410     8475.196       12.921        3.812      426.652      104.025        0.059      341.339       15.981      857.168
05/24/2013  20:40:00     -662.671      -93.962      -30.134      217.775      215.184       98.495    47425.907    46304.190     9701.350       27.613        5.172      669.299       94.533        0.020      341.315       15.939      857.190
05/24/2013  20:41:00     -641.774     -157.353      -27.831      272.793      224.050      109.691    74416.004    50198.508    12032.007       28.700        6.832      660.783      116.282        0.031      341.294       15.906      857.214
05/24/2013  20:42:00     -426.957     -103.042      -18.615      177.696      175.101       84.715    31575.931    30660.219     7176.576       13.132        3.471      439.215       86.462        0.039      341.306       15.923      857.241
05/24/2013  20:43:00     -400.618      -26.308      -17.050      201.704      145.284       85.349    40684.489    21107.400     7284.431       11.527        3.454      401.480       94.825        0.056      341.286       15.891      857.269
05/24/2013  20:44:00     -464.841      -97.688       -2.242      201.581      154.872       80.699    40634.941    23985.314     6512.274       14.837        3.557      474.994       79.324        0.028      341.281       15.880      857.235
05/24/2013  20:45:00     -558.224        1.241      -27.845      187.794      150.191       85.400    35266.440    22557.292     7293.236       18.874        3.256      558.226       75.108        0.018      341.278       15.877      857.243
05/24/2013  20:46:00     -632.712      -70.382      -40.895      250.269      212.531      102.594    62634.798    45169.532    10525.475       26.262        5.916      636.614      111.424        0.031      341.260       15.847      857.264
05/24/2013  20:47:00     -500.019      -14.460      -30.996      252.901      164.049       87.308    63958.842    26912.012     7622.689       17.482        4.925      500.228      101.972        0.042      341.259       15.845      857.273
05/24/2013  20:48:00     -565.641      -84.172      -23.468      245.948      164.135       91.453    60490.542    26940.403     8363.596       21.167        4.790      571.869      107.694        0.035      341.253       15.834      857.264
05/24/2013  20:49:00     -486.341      -61.706       -7.698      258.739      178.535       99.547    66945.707    31874.640     9909.645       17.454        5.436      490.240      125.040        0.065      341.241       15.813      857.271
05/24/2013  20:50:00     -584.101      -73.498      -30.961      193.887      181.926       87.745    37592.224    33097.172     7699.194       21.295        3.919      588.707       95.028        0.026      341.226       15.789      857.271
05/24/2013  20:51:00     -476.335     -113.699      -12.539      214.169      172.625       90.571    45868.452    29799.506     8203.178       16.191        4.194      489.717      104.871        0.046      341.230       15.795      857.234
05/24/2013  20:52:00     -464.557      -97.193      -19.405      154.430      141.446       84.162    23848.508    20006.921     7083.184       13.828        2.547      474.616       81.911        0.030      341.232       15.799      857.231
05/24/2013  20:53:00     -572.044     -121.983      -17.540      266.891      164.973       96.563    71230.962    27216.186     9324.387       22.508        5.389      584.905      120.410        0.042      341.211       15.763      857.220
05/24/2013  20:54:00     -563.224     -154.306       -6.616      236.913      168.631      100.810    56127.638    28436.368    10162.622       21.789        4.736      583.979      109.106        0.035      341.201       15.748      857.219
05/24/2013  20:55:00     -579.120     -122.449      -16.499      322.290      200.156      126.369   103870.664    40062.408    15969.069       25.525        7.995      591.924      173.623        0.086      341.180       15.711      857.233
05/24/2013  20:56:00     -512.863     -141.075      -21.650      231.216      186.304       99.858    53461.062    34709.047     9971.544       19.075        4.907      531.912      110.473        0.043      341.170       15.693      857.251
05/24/2013  20:57:00     -510.414      -48.891      -39.707      224.464      152.393       92.578    50384.217    23223.558     8570.652       17.332        4.109      512.750      117.186        0.052      341.158       15.672      857.253
05/24/2013  20:58:00     -517.916     -123.297      -27.359      247.288      204.419      102.585    61151.451    41787.018    10523.717       19.881        5.673      532.390      127.150        0.057      341.147       15.654      857.245
05/24/2013  20:59:00     -584.011     -133.220      -22.548      211.499      191.941       96.934    44731.677    36841.270     9396.296       22.513        4.548      599.013       92.060        0.024      341.128       15.621      857.227
05/24/2013  21:00:00     -521.302      -15.531      -39.906      289.014      188.991      103.521    83529.178    35717.659    10716.667       20.175        6.498      521.533      123.981        0.057      341.139       15.641      857.218
05/24/2013  21:01:00     -310.433     -156.190       -3.033      233.752      152.940       83.135    54640.008    23390.661     6911.402       10.284        4.247      347.511      105.055        0.091      341.167       15.690      857.253
05/24/2013  21:02:00     -646.128     -100.597      -27.501      272.669      205.199       99.293    74348.174    42106.520     9859.177       27.731        6.316      653.912      114.292        0.031      341.115       15.601      857.259
05/24/2013  21:03:00     -545.979     -128.163      -20.805      213.213      216.025       92.009    45459.878    46666.693     8465.691       20.776        5.030      560.820      101.695        0.033      341.129       15.625      857.255
05/24/2013  21:04:00     -559.200      -28.631      -35.551      214.932      164.752       84.379    46195.704    27143.230     7119.852       19.761        4.023      559.933       90.459        0.026      341.111       15.593      857.276
05/24/2013  21:05:00     -385.415     -104.284      -10.790      179.051      159.920       77.971    32059.239    25574.447     6079.478       11.161        3.186      399.275       75.691        0.036      341.100       15.576      857.275
05/24/2013  21:06:00     -573.107     -156.466      -28.020      200.202      197.503       90.913    40081.026    39007.550     8265.229       22.052        4.368      594.082       90.089        0.023      341.069       15.522      857.266
05/24/2013  21:07:00     -470.209      -51.527      -21.680      300.145      129.443       97.482    90086.917    16755.499     9502.836       17.026        5.817      473.024      134.288        0.081      341.077       15.537      857.261
05/24/2013  21:08:00     -554.828      -93.597      -20.981      280.530      186.429      106.369    78697.198    34755.744    11314.401       22.088        6.238      562.667      139.644        0.062      341.045       15.484      857.251
05/24/2013  21:09:00     -411.913      -78.848        2.635      240.019      171.885       95.843    57609.006    29544.337     9185.924       13.610        4.817      419.391      103.982        0.061      341.041       15.475      857.284
05/24/2013  21:10:00     -415.167      -34.517      -11.719      270.755      197.614      103.124    73308.382    39051.376    10634.480       14.832        6.150      416.600      123.957        0.089      341.052       15.495      857.275
05/24/2013  21:11:00     -585.414      -68.859      -33.361      238.523      191.233       86.023    56893.027    36569.897     7399.924       22.470        5.043      589.450       86.454        0.022      341.023       15.445      857.299
05/24/2013  21:12:00     -693.983     -104.382      -53.176      270.146      184.075      111.151    72978.980    33883.506    12354.551       30.726        5.961      701.789      124.785        0.032      341.011       15.424      857.323
05/24/2013  21:13:00     -630.344      -32.500      -44.829      238.233      175.669      109.021    56754.846    30859.734    11885.492       24.993        4.975      631.181      110.450        0.031      340.990       15.388      857.327
05/24/2013  21:14:00     -523.694     -127.106      -25.388      195.675      187.514       96.825    38288.671    35161.457     9375.152       18.693        4.141      538.898       97.045        0.032      341.016       15.433      857.351
05/24/2013  21:15:00     -635.855      -94.991      -51.249      225.192      174.345       88.172    50711.430    30396.032     7774.258       25.241        4.444      642.911       89.472        0.019      340.982       15.375      857.349
05/24/2013  21:16:00     -342.960        6.515      -31.530      197.564      175.158       80.724    39031.446    30680.253     6516.403        9.743        3.811      343.022       91.288        0.071      341.006       15.417      857.368
05/24/2013  21:17:00     -275.421      -27.198       -5.185      218.587      139.040       71.656    47780.291    19332.110     5134.609        7.442        3.612      276.760       83.254        0.090      341.017       15.435      857.382
05/24/2013  21:18:00     -307.901      -28.700       -8.047      207.437      127.734       78.189    43030.160    16315.874     6113.580        8.056        3.273      309.236       85.044        0.076      341.000       15.405      857.405
05/24/2013  21:19:00     -593.985     -103.969      -24.481      221.394      158.793       91.899    49015.293    25215.303     8445.432       22.344        4.134      603.015      103.252        0.029      340.974       15.362      857.403
05/24/2013  21:20:00     -486.049     -160.472      -17.484      210.928      176.238       96.041    44490.570    31059.751     9223.801       17.352        4.239      511.855       93.765        0.034      340.968       15.352      857.416
05/24/2013  21:21:00     -207.116      -11.867        0.144      178.455      113.874       86.282    31846.255    12967.221     7444.669        4.764        2.613      207.456       77.938        0.141      340.995       15.397      857.436
05/24/2013  21:22:00     -478.858     -179.280      -15.345      210.639      161.331       81.783    44368.691    26027.778     6688.527       16.937        3.854      511.318       76.845        0.023      340.961       15.340      857.439
05/24/2013  21:23:00     -465.600      -91.473       -5.692      242.115      189.548      104.343    58619.550    35928.630    10887.460       16.529        5.272      474.500      112.111        0.056      340.939       15.302      857.425
05/24/2013  21:24:00     -496.835      -54.763      -20.591      255.434      197.466       99.657    65246.560    38992.693     9931.560       18.220        5.709      499.844      123.362        0.061      340.932       15.292      857.455
05/24/2013  21:25:00     -663.620      -64.935      -31.502      287.439      200.430      106.101    82620.919    40172.177    11257.322       28.980        6.703      666.790      135.863        0.042      340.920       15.271      857.444
05/24/2013  21:26:00     -504.112     -146.061      -26.413      223.229      196.632       95.276    49831.101    38664.195     9077.527       18.685        4.879      524.845      105.270        0.040      340.932       15.291      857.443
05/24/2013  21:27:00     -552.987      -71.195      -34.411      197.464      170.829       94.119    38992.218    29182.633     8858.377       19.453        3.852      557.551       94.649        0.029      340.914       15.261      857.471
05/24/2013  21:28:00     -538.980      -79.099      -23.157      246.782      197.658      104.363    60901.449    39068.696    10891.691       20.406        5.543      544.754      118.990        0.048      340.891       15.220      857.472
05/24/2013  21:29:00     -590.999     -115.506      -39.651      237.181      180.179       95.110    56254.651    32464.311     9045.896       23.096        4.888      602.181      119.197        0.039      340.901       15.238      857.429
05/24/2013  21:30:00     -572.098      -72.271      -19.949      206.928      184.095       99.316    42819.017    33890.912     9863.646       20.973        4.329      576.645      104.345        0.033      340.885       15.211      857.485
05/24/2013  21:31:00     -624.282       18.507      -50.489      241.761      205.812      105.012    58448.423    42358.386    11027.582       25.221        5.592      624.557      110.699        0.031      340.885       15.210      857.487
05/24/2013  21:32:00     -535.326     -173.819      -32.354      282.306      172.882      100.930    79696.652    29888.356    10186.886       21.878        5.989      562.839      128.641        0.052      340.895       15.227      857.486
05/24/2013  21:33:00     -263.801      -45.900       -5.698      166.804      174.979       82.362    27823.599    30617.712     6783.486        6.847        3.261      267.765       88.505        0.109      340.892       15.222      857.504
05/24/2013  21:34:00     -481.256      -57.700      -19.751      193.373      170.945       85.104    37392.944    29222.214     7242.749       15.458        3.693      484.703       83.038        0.029      340.849       15.150      857.469
05/24/2013  21:35:00     -473.732     -164.637      -29.896      270.749      186.812       97.470    73305.016    34898.903     9500.439       18.504        5.885      501.525      115.318        0.053      340.838       15.132      857.455
05/24/2013  21:36:00     -406.989      -37.558      -15.551      164.863      119.057       88.496    27179.930    14174.503     7831.489       10.823        2.459      408.718       78.578        0.037      340.833       15.122      857.471
05/24/2013  21:37:00     -426.806      -31.294       -8.878      284.943      172.002       94.760    81192.357    29584.535     8979.431       15.147        5.988      427.952      122.594        0.082      340.817       15.098      857.470
05/24/2013  21:38:00     -287.790     -102.686       10.608      258.152      146.316       81.895    66642.223    21408.376     6706.709        9.410        4.738      305.561      112.987        0.137      340.837       15.129      857.457
05/24/2013  21:39:00     -328.337      -81.246        5.775      181.571      137.660       77.881    32967.931    18950.184     6065.384        8.620        2.899      338.239       81.174        0.058      340.826       15.112      857.497
05/24/2013  21:40:00     -442.807     -122.305      -11.771      196.000      201.364       82.275    38416.130    40547.516     6769.103       14.844        4.287      459.387       91.083        0.039      340.803       15.073      857.512
05/24/2013  21:41:00     -492.718      -30.951      -36.071      198.940      200.259       87.726    39577.093    40103.747     7695.778       16.619        4.369      493.689       67.455        0.019      340.800       15.069      857.489
05/24/2013  21:42:00     -451.355      -85.752      -24.406      213.988      156.145       80.112    45790.920    24381.409     6417.909       14.412        3.830      459.428       98.971        0.046      340.806       15.078      857.474
05/24/2013  21:43:00     -516.793        5.234      -42.937      242.690      146.267       90.479    58898.206    21393.952     8186.425       17.870        4.424      516.819      100.006        0.037      340.806       15.078      857.482
05/24/2013  21:44:00     -560.343      -78.035      -38.196      261.606      204.240       94.571    68437.842    41713.805     8943.697       22.029        5.955      565.750      104.630        0.034      340.796       15.062      857.507
05/24/2013  21:45:00     -456.146       -3.965      -21.333      193.892      161.229       94.596    37594.039    25994.722     8948.467       14.053        3.627      456.164       93.129        0.042      340.795       15.060      857.510
05/24/2013  21:46:00     -474.060     -113.819      -23.410      189.609      161.082       82.982    35951.502    25947.490     6885.995       15.350        3.439      487.532       82.816        0.029      340.807       15.079      857.501
05/24/2013  21:47:00     -554.634      -84.590      -30.858      239.820      183.111       89.803    57513.623    33529.588     8064.593       20.740        4.955      561.048       92.744        0.027      340.803       15.073      857.516
05/24/2013  21:48:00     -375.244     -126.890        2.569      226.493      173.351       94.786    51298.954    30050.695     8984.395       12.361        4.517      396.117      113.041        0.081      340.806       15.078      857.534
05/24/2013  21:49:00     -353.230     -100.005       -4.815      218.830      156.581       90.797    47886.611    24517.539     8244.112       10.771        4.032      367.113      101.260        0.076      340.797       15.063      857.539
05/24/2013  21:50:00     -490.872     -135.442      -16.365      235.657      201.047      101.483    55534.035    40419.819    10298.713       18.289        5.313      509.215      115.278        0.051      340.772       15.021      857.522
05/24/2013  21:51:00     -376.777     -156.675       -6.295      222.722      132.535       89.784    49605.006    17565.411     8061.126       12.088        3.762      408.054      101.042        0.061      340.784       15.042      857.513
05/24/2013  21:52:00     -394.091      -19.927      -11.432      249.404      160.029      103.596    62202.205    25609.197    10732.093       12.717        4.927      394.595      134.833        0.117      340.796       15.061      857.488
05/24/2013  21:53:00     -644.317      -66.177      -63.139      213.564      203.181       87.471    45609.645    41282.627     7651.218       25.901        4.727      647.706       92.580        0.020      340.790       15.052      857.441
05/24/2013  21:54:00     -696.459      -61.045      -46.759      239.540      173.751       82.664    57379.317    30189.425     6833.352       29.267        4.720      699.129       96.789        0.019      340.780       15.035      857.431
05/24/2013  21:55:00     -539.394      -84.005      -32.978      238.855      148.551       96.318    57051.826    22067.275     9277.228       19.373        4.420      545.896      105.188        0.037      340.773       15.022      857.455
05/24/2013  21:56:00     -523.354     -114.905      -10.121      247.460      183.197       97.327    61236.595    33561.232     9472.559       19.572        5.214      535.819      113.278        0.045      340.775       15.027      857.469
05/24/2013  21:57:00     -516.666     -110.236      -30.116      244.614      177.538       92.152    59836.112    31519.758     8492.066       18.991        4.992      528.295       94.000        0.032      340.784       15.042      857.460
05/24/2013  21:58:00     -282.042      -60.824        3.619      214.817      146.292      101.772    46146.248    21401.396    10357.593        8.057        3.895      288.526       98.502        0.117      340.770       15.018      857.496
05/24/2013  21:59:00     -506.090      -99.409      -31.089      187.827      163.369       75.791    35279.117    26689.441     5744.253       16.733        3.386      515.761       79.407        0.024      340.755       14.992      857.488
05/24/2013  22:00:00     -378.563      -45.862      -13.082      183.857      155.573       64.166    33803.307    24203.074     4117.335       10.384        3.106      381.331       59.755        0.025      340.749       14.982      857.487
05/24/2013  22:01:00     -410.902       29.199      -31.070      220.224      158.387       84.103    48498.688    25086.553     7073.336       12.565        4.033      411.938       87.327        0.045      340.740       14.966      857.463
05/24/2013  22:02:00     -566.665     -142.443      -28.511      230.040      181.941       97.685    52918.299    33102.428     9542.265       21.887        4.778      584.294      102.021        0.030      340.716       14.926      857.400
05/24/2013  22:03:00     -542.943      -69.201      -21.319      225.281      178.096      101.535    50751.741    31718.086    10309.258       19.639        4.639      547.336      107.146        0.038      340.721       14.934      857.420
05/24/2013  22:04:00     -536.726      -93.097      -16.280      305.870      237.732      103.044    93556.263    56516.306    10618.117       22.882        8.035      544.740      126.273        0.054      340.713       14.921      857.406
05/24/2013  22:05:00     -600.302     -136.134      -34.896      188.720      177.493       89.049    35615.215    31503.685     7929.654       22.757        3.752      615.544       82.590        0.018      340.719       14.931      857.380
05/24/2013  22:06:00     -502.146     -121.378      -26.894      232.156      192.625       90.590    53896.275    37104.462     8206.500       18.339        4.960      516.607       70.917        0.019      340.718       14.927      857.409
05/24/2013  22:07:00     -539.766      -92.199      -40.681      142.194      150.877       75.066    20219.187    22763.866     5634.883       17.505        2.431      547.583       57.996        0.011      340.716       14.924      857.403
05/24/2013  22:08:00     -429.857     -134.995      -24.304      217.214      174.319       94.477    47181.916    30387.135     8925.957       14.503        4.325      450.556      108.653        0.058      340.718       14.929      857.433
05/24/2013  22:09:00     -169.728      -73.565       22.182      165.352      140.101       80.118    27341.257    19628.335     6418.865        4.404        2.669      184.985       79.658        0.185      340.737       14.961      857.459
05/24/2013  22:10:00     -427.305      -80.298      -10.662      252.152      163.636       85.370    63580.465    26776.678     7288.081       14.338        4.882      434.784      110.723        0.065      340.704       14.905      857.466
05/24/2013  22:11:00     -373.093      -80.071        1.693      215.345      142.058       86.712    46373.265    20180.454     7518.985       10.983        3.704      381.588       95.995        0.063      340.700       14.899      857.481
05/24/2013  22:12:00     -452.196     -106.060      -20.272      216.137      148.558       68.661    46715.294    22069.453     4714.361       14.481        3.675      464.467       85.478        0.034      340.694       14.889      857.470
05/24/2013  22:13:00     -238.017      -23.075        3.155      230.345      118.879       67.585    53058.712    14132.208     4567.697        6.446        3.588      239.133       87.334        0.133      340.698       14.896      857.500
05/24/2013  22:14:00     -423.386     -138.290       -2.946      223.649      165.637       84.748    50018.968    27435.675     7182.283       14.150        4.232      445.399      106.126        0.057      340.688       14.878      857.504
05/24/2013  22:15:00     -399.600       -6.645      -27.183      192.339      114.175       81.432    36994.336    13035.824     6631.139       10.855        2.833      399.655       92.061        0.053      340.688       14.878      857.528
05/24/2013  22:16:00     -361.010      -86.924      -15.772      198.485      172.735       89.147    39396.263    29837.526     7947.267       10.764        3.859      371.327       99.535        0.072      340.679       14.864      857.499
05/24/2013  22:17:00     -208.180        6.159       15.085      162.155      114.129       64.776    26294.251    13025.397     4195.904        4.355        2.176      208.271       65.743        0.100      340.696       14.891      857.493
05/24/2013  22:18:00     -473.148      -42.854      -39.826      211.052      158.037       82.975    44543.150    24975.537     6884.864       15.183        3.820      475.085       88.735        0.035      340.653       14.818      857.534
05/24/2013  22:19:00     -274.625     -104.739       10.860      245.117      154.303       74.964    60082.317    23809.418     5619.619        8.799        4.476      293.920      108.117        0.135      340.663       14.836      857.547
05/24/2013  22:20:00     -364.807        2.279       -9.736      206.537      150.005       73.617    42657.533    22501.357     5419.483       10.187        3.529      364.814       87.769        0.058      340.643       14.801      857.570
05/24/2013  22:21:00     -235.722     -121.105       -9.583      156.039      112.526       66.338    24348.264    12662.052     4400.701        5.586        2.071      265.012       73.009        0.076      340.652       14.816      857.552
05/24/2013  22:22:00     -317.918     -170.078       -1.251      163.739      172.350       89.842    26810.309    29704.492     8071.510        9.728        3.229      360.553       87.854        0.059      340.634       14.784      857.541
05/24/2013  22:23:00     -350.702      -94.533      -36.055      234.070      210.095       84.067    54788.883    44139.981     7067.246       11.959        5.300      363.219       83.790        0.053      340.637       14.792      857.520
05/24/2013  22:24:00     -392.469      -17.056      -11.674      181.432      162.479       80.802    32917.563    26399.277     6528.888       11.014        3.292      392.839       82.522        0.044      340.626       14.772      857.525
05/24/2013  22:25:00     -426.579     -114.795       -1.149      205.675      190.704       85.196    42302.245    36367.957     7258.390       14.052        4.296      441.755       97.822        0.049      340.619       14.761      857.540
05/24/2013  22:26:00     -295.056      -58.652        8.871      165.449      107.920       74.683    27373.407    11646.736     5577.516        6.758        2.230      300.829       87.490        0.085      340.615       14.754      857.552
05/24/2013  22:27:00     -277.942      -89.869       12.133      194.495      180.396       88.217    37828.433    32542.549     7782.167        8.180        3.908      292.110      109.091        0.139      340.613       14.749      857.556
05/24/2013  22:28:00     -445.167      -19.999      -31.254      147.447      156.292       75.330    21740.647    24427.309     5674.637       12.569        2.592      445.616       75.632        0.029      340.602       14.732      857.560
05/24/2013  22:29:00     -453.020      -88.542      -15.703      290.765      191.891      105.661    84544.231    36822.061    11164.217       17.290        6.627      461.592      134.953        0.085      340.602       14.732      857.537
05/24/2013  22:30:00     -584.588     -122.539      -38.600      249.148      165.537       91.909    62074.884    27402.604     8447.221       22.807        4.896      597.292       92.007        0.024      340.602       14.731      857.541
05/24/2013  22:31:00     -491.366      -52.150      -22.299      212.820      147.598       79.697    45292.387    21785.197     6351.652       15.903        3.671      494.125       88.347        0.032      340.597       14.723      857.558
05/24/2013  22:32:00     -366.242      -45.442      -28.311      233.611      178.151       92.795    54574.255    31737.864     8610.994       11.595        4.746      369.051       92.560        0.063      340.595       14.721      857.560
05/24/2013  22:33:00     -449.974     -132.715      -42.725      181.700      161.477       78.394    33015.043    26074.767     6145.658       14.356        3.262      469.137       70.275        0.022      340.605       14.737      857.568
05/24/2013  22:34:00     -439.325       -3.508      -44.672      225.730      140.678       78.298    50954.057    19790.263     6130.586       13.593        3.844      439.339       88.523        0.041      340.603       14.733      857.580
05/24/2013  22:35:00     -304.839     -138.498       -1.207      206.710      148.344       78.816    42729.099    22006.002     6212.009        9.152        3.547      334.826       94.546        0.080      340.593       14.717      857.532
05/24/2013  22:36:00     -404.826      -60.751      -11.052      200.450      145.251       71.091    40180.240    21097.723     5053.920       11.700        3.317      409.359       88.442        0.047      340.580       14.696      857.577
05/24/2013  22:37:00     -345.226      -77.385       -2.061      214.678      129.927       77.627    46086.661    16881.089     6025.899        9.707        3.450      353.793       88.616        0.063      340.576       14.689      857.579
05/24/2013  22:38:00     -163.690      -23.467       21.639      151.513      109.630       67.493    22956.306    12018.646     4555.362        3.367        1.977      165.363       69.106        0.175      340.574       14.687      857.597
05/24/2013  22:39:00     -376.703      -79.789      -27.482      191.569      145.988       75.459    36698.551    21312.535     5694.106       10.636        3.185      385.060       94.744        0.061      340.575       14.687      857.612
05/24/2013  22:40:00     -251.487      -41.476       -5.266      140.384      119.231       64.990    19707.798    14216.047     4223.763        5.156        1.907      254.884       72.837        0.082      340.574       14.686      857.618
05/24/2013  22:41:00     -132.912     -125.599       13.668      203.929      131.983       91.001    41587.068    17419.522     8281.171        5.045        3.364      182.868      101.150        0.306      340.576       14.689      857.597
05/24/2013  22:42:00     -370.688      -56.626      -23.707      139.307      136.395       83.087    19406.489    18603.514     6903.385        9.304        2.246      374.988       83.178        0.049      340.555       14.655      857.564
05/24/2013  22:43:00     -346.545      -26.945      -14.498      209.041      157.485       75.189    43698.332    24801.658     5653.370        9.758        3.708      347.591       81.022        0.054      340.555       14.652      857.604
05/24/2013  22:44:00     -333.531      -25.331      -15.369      181.800      152.979       69.174    33051.112    23402.592     4784.987        8.667        3.062      334.492       75.313        0.051      340.565       14.671      857.592
05/24/2013  22:45:00     -484.659      -79.089      -28.788      202.163      130.152       75.559    40869.718    16939.557     5709.208       15.274        3.176      491.070       88.751        0.033      340.538       14.625      857.597
05/24/2013  22:46:00     -573.506      -21.248      -34.568      197.332      105.936       77.027    38939.833    11222.535     5933.148       19.332        2.805      573.900       93.989        0.027      340.539       14.626      857.595
05/24/2013  22:47:00     -365.448      -74.539       -4.603      180.442      115.958       73.352    32559.366    13446.206     5380.499        9.525        2.569      372.972       71.974        0.037      340.558       14.657      857.612
05/24/2013  22:48:00     -504.328      -79.945      -37.406      173.243      176.070       83.281    30013.263    31000.588     6935.800       16.503        3.397      510.625       76.548        0.022      340.555       14.654      857.599
05/24/2013  22:49:00     -411.641     -113.971      -38.183      127.390      145.538       64.017    16228.243    21181.350     4098.237       11.269        2.075      427.128       57.374        0.018      340.554       14.650      857.574
05/24/2013  22:50:00     -261.069       18.251        2.203      174.954       95.915       81.220    30609.069     9199.775     6596.697        5.744        2.320      261.706       90.028        0.118      340.532       14.617      857.580
05/24/2013  22:51:00     -413.236      -38.465      -17.798      202.398      147.942       77.262    40964.951    21886.916     5969.378       12.068        3.441      415.022       92.972        0.050      340.547       14.640      857.588
05/24/2013  22:52:00     -236.510      -60.290      -11.241      143.756      124.775       65.012    20665.800    15568.760     4226.553        5.007        2.023      244.074       74.954        0.094      340.569       14.676      857.618
05/24/2013  22:53:00     -309.333        0.131      -26.753      191.437      111.353       77.263    36648.206    12399.454     5969.644        7.570        2.751      309.333       87.305        0.080      340.570       14.679      857.622
05/24/2013  22:54:00     -391.763       -6.726       -9.279      215.677      163.338       92.300    46516.455    26679.383     8519.371       11.765        4.086      391.821       80.476        0.042      340.568       14.674      857.625
05/24/2013  22:55:00     -240.545      -87.793      -13.294      160.480      115.381       78.565    25753.784    13312.676     6172.465        5.549        2.262      256.066       76.391        0.089      340.581       14.698      857.642
05/24/2013  22:56:00     -369.543      -86.689      -36.131      160.644      144.678       79.483    25806.381    20931.823     6317.573        9.921        2.653      379.575       84.705        0.050      340.564       14.670      857.672
05/24/2013  22:57:00     -181.607       -0.383        3.598      189.420       87.652       60.657    35880.083     7682.882     3679.326        4.011        2.362      181.607       73.798        0.165      340.562       14.665      857.634
05/24/2013  22:58:00     -305.353      -22.943      -26.094      128.324      125.151       60.890    16467.075    15662.897     3707.534        6.514        1.792      306.213       60.836        0.039      340.558       14.657      857.681
05/24/2013  22:59:00     -343.702     -105.653       -1.681      168.038      164.004       67.044    28236.797    26897.207     4494.949        9.445        2.981      359.575       72.972        0.041      340.566       14.671      857.678
05/24/2013  23:00:00     -311.883      -86.358      -13.370      163.380       99.303       69.043    26692.883     9861.023     4766.877        7.311        2.066      323.618       75.174        0.054      340.564       14.668      857.682
05/24/2013  23:01:00     -247.884      -37.504       -5.426      170.660       98.932       63.139    29124.803     9787.638     3986.547        5.288        2.145      250.705       79.246        0.100      340.555       14.654      857.697
05/24/2013  23:02:00     -304.832        3.219      -12.238      189.332      132.106       82.119    35846.763    17451.937     6743.497        7.655        3.002      304.849       91.688        0.090      340.566       14.671      857.694
05/24/2013  23:03:00     -208.927     -126.867        5.525      148.291      136.376       81.287    21990.097    18598.512     6607.646        5.348        2.360      244.429       96.168        0.155      340.562       14.664      857.720
05/24/2013  23:04:00      -85.900       -5.994       32.610      127.252       75.421       62.539    16193.100     5688.314     3911.171        1.713        1.290       86.109       65.015        0.570      340.566       14.675      857.737
05/24/2013  23:05:00     -193.530      -55.453       -6.409      123.204      118.335       64.921    15179.293    14003.271     4214.735        3.698        1.670      201.318       69.017        0.118      340.556       14.655      857.739
05/24/2013  23:06:00     -141.963      -22.291       17.645      145.070       81.733       60.181    21045.361     6680.329     3621.742        2.615        1.567      143.703       74.486        0.269      340.567       14.674      857.732
05/24/2013  23:07:00     -404.712      -79.566      -22.806      132.105      108.619       71.794    17451.691    11798.195     5154.395       10.252        1.720      412.460       65.001        0.025      340.550       14.643      857.728
05/24/2013  23:08:00     -359.967      -52.536      -10.207      185.775      115.375       67.434    34512.326    13311.399     4547.304        9.240        2.619      363.780       78.178        0.046      340.550       14.644      857.734
05/24/2013  23:09:00     -233.452      -96.991       16.832      182.244      116.749       98.143    33212.746    13630.346     9631.974        6.032        2.824      252.798       94.469        0.140      340.552       14.649      857.722
05/24/2013  23:10:00     -469.817      -95.850      -20.750      232.042      138.439       73.371    53843.353    19165.443     5383.246       15.436        3.920      479.495       76.460        0.025      340.546       14.637      857.721
05/24/2013  23:11:00     -246.947      -19.913      -18.916      138.430      106.398       53.696    19162.833    11320.601     2883.292        4.755        1.668      247.749       56.093        0.051      340.535       14.619      857.724
05/24/2013  23:12:00     -270.617      -29.927      -18.918      190.544      163.942       81.100    36306.873    26877.084     6577.197        7.211        3.488      272.266       48.167        0.031      340.546       14.640      857.720
05/24/2013  23:13:00     -320.181      -93.897       -6.690      135.450      104.169       75.595    18346.696    10851.214     5714.619        7.314        1.746      333.666       66.440        0.040      340.517       14.591      857.722
05/24/2013  23:14:00     -507.183      -50.234      -37.907      170.655      141.009       75.117    29123.104    19883.581     5642.598       15.791        2.732      509.665       69.378        0.019      340.510       14.579      857.727
05/24/2013  23:15:00     -355.911     -126.116      -12.661      181.911      169.592       90.294    33091.654    28761.403     8153.056       10.636        3.500      377.595      101.137        0.072      340.506       14.571      857.724
05/24/2013  23:16:00     -518.007      -48.200      -27.400      197.834      128.556       82.184    39138.215    16526.647     6754.165       16.690        3.121      520.245       86.901        0.028      340.506       14.571      857.726
05/24/2013  23:17:00     -272.046      -69.797       -2.250      166.895      101.320       64.327    27853.972    10265.829     4137.979        6.056        2.113      280.857       75.189        0.072      340.493       14.548      857.747
05/24/2013  23:18:00     -258.700      -74.563      -23.950      170.032      193.934       76.231    28910.884    37610.267     5811.204        7.268        3.617      269.231       85.543        0.101      340.501       14.563      857.750
05/24/2013  23:19:00     -111.173      -61.510        9.243       63.978       60.362       41.856     4093.157     3643.580     1751.904        1.286        0.474      127.055       40.065        0.099      340.501       14.564      857.742
05/24/2013  23:20:00     -227.076      -69.184        4.525      174.480      130.199       84.018    30443.359    16951.738     7059.062        5.540        2.723      237.381       95.885        0.163      340.496       14.556      857.777
05/24/2013  23:21:00     -308.808        0.796       -5.306      248.643      129.496       84.333    61823.189    16769.102     7112.034        9.053        4.285      308.809      111.191        0.130      340.490       14.545      857.775
05/24/2013  23:22:00     -262.159     -125.394       -5.398      174.015      125.192       66.019    30281.090    15672.983     4358.511        6.739        2.516      290.605       70.454        0.059      340.492       14.547      857.774
05/24/2013  23:23:00     -234.195      -37.628      -15.803      135.546      118.500       66.672    18372.845    14042.343     4445.214        4.668        1.843      237.199       59.350        0.063      340.495       14.552      857.788
05/24/2013  23:24:00     -517.649      -52.427      -40.663      173.821      109.215       81.899    30213.813    11927.838     6707.480       16.060        2.442      520.297       85.031        0.027      340.497       14.555      857.808
05/24/2013  23:25:00     -169.821     -120.769       -3.942      153.299      131.968       64.132    23500.650    17415.489     4112.923        4.423        2.251      208.385       68.439        0.108      340.499       14.558      857.829
05/24/2013  23:26:00     -284.070      -50.516      -12.102      198.569      102.402       69.003    39429.777    10486.151     4761.430        6.903        2.734      288.526       79.730        0.076      340.484       14.533      857.847
05/24/2013  23:27:00     -235.807      -38.325      -13.476      132.720      101.647       62.721    17614.474    10332.124     3933.894        4.456        1.594      238.901       60.437        0.064      340.493       14.549      857.866
05/24/2013  23:28:00     -368.463     -198.306      -29.243      183.913      138.957       86.007    33823.932    19309.131     7397.222       11.823        3.027      418.438       84.112        0.040      340.462       14.495      857.898
05/24/2013  23:29:00     -353.862      -83.985      -20.894      151.417      152.504       73.250    22927.033    23257.533     5365.490        9.212        2.578      363.692       58.117        0.026      340.454       14.482      857.905
05/24/2013  23:30:00     -340.758     -112.845      -13.491      228.010      118.802       72.380    51988.543    14114.015     5238.934       10.017        3.567      358.957       89.297        0.062      340.467       14.504      857.919
05/24/2013  23:31:00     -166.844      -34.768       22.834      168.681      130.113       80.355    28453.269    16929.436     6456.914        4.069        2.592      170.428       93.602        0.302      340.463       14.498      857.947
05/24/2013  23:32:00     -284.650     -131.195      -22.456      213.366      140.455       79.370    45525.094    19727.535     6299.601        8.514        3.578      313.429      100.915        0.104      340.456       14.485      857.978
05/24/2013  23:33:00     -160.948      -75.198        5.879      131.503      128.999       59.995    17293.029    16640.642     3599.359        3.456        1.877      177.648       69.777        0.154      340.455       14.483      858.011
05/24/2013  23:34:00     -222.859        4.316        0.024      148.117       94.289       60.322    21938.546     8890.450     3638.790        4.207        1.723      222.901       69.693        0.098      340.440       14.459      858.014
05/24/2013  23:35:00     -199.068      -31.537       20.406      173.772      100.211       63.774    30196.753    10042.268     4067.100        4.267        2.215      201.550       66.789        0.110      340.408       14.407      858.053
05/24/2013  23:36:00     -113.695     -109.416       -4.381      147.145       97.791       70.552    21651.766     9562.983     4977.526        3.055        1.810      157.792       76.728        0.236      340.440       14.461      858.078
05/24/2013  23:37:00     -206.302     -110.720        0.981      150.299      140.221       66.879    22589.935    19661.964     4472.827        5.076        2.336      234.135       70.911        0.092      340.412       14.412      858.081
05/24/2013  23:38:00     -239.786      -47.285       -8.407      151.246      109.474       74.104    22875.239    11984.615     5491.348        5.007        2.018      244.404       80.377        0.108      340.401       14.393      858.078
05/24/2013  23:39:00     -236.167      -97.730      -13.312      143.403      117.049       62.756    20564.478    13700.582     3938.282        5.185        1.910      255.589       61.393        0.058      340.384       14.366      858.091
05/24/2013  23:40:00     -245.682      -45.865        7.305      175.843      119.076       69.169    30920.891    14179.000     4784.414        5.619        2.494      249.926       71.646        0.082      340.372       14.345      858.090
05/24/2013  23:41:00     -257.376      -85.671       -5.931      105.406       91.573       59.088    11110.508     8385.544     3491.402        4.830        1.149      271.260       44.682        0.027      340.341       14.293      858.080
05/24/2013  23:42:00     -285.490      -81.485      -13.652       86.963       88.141       55.100     7562.632     7768.911     3035.965        5.335        0.918      296.891       50.905        0.029      340.341       14.292      858.090
05/24/2013  23:43:00     -154.565      -84.522        2.385      126.521       73.638       51.126    16007.639     5422.559     2613.885        2.754        1.202      176.166       57.516        0.107      340.331       14.275      858.122
05/24/2013  23:44:00     -154.791      -38.811        0.258      116.953      123.837       54.718    13678.108    15335.655     2994.016        2.873        1.600      159.583       53.904        0.114      340.312       14.244      858.132
05/24/2013  23:45:00     -283.902     -122.002       -1.648      188.364      137.463       74.952    35480.937    18895.970     5617.811        7.773        3.000      309.006       78.087        0.064      340.311       14.241      858.125
05/24/2013  23:46:00     -361.840     -171.728      -30.908      132.632       83.214       66.174    17591.339     6924.512     4378.974        9.513        1.445      400.523       60.534        0.023      340.295       14.213      858.137
05/24/2013  23:47:00     -269.687     -110.346       -8.173      126.406       99.151       62.226    15978.476     9830.981     3872.064        5.732        1.484      291.389       65.784        0.051      340.294       14.210      858.139
05/24/2013  23:48:00     -204.832       34.285      -10.726      145.960      100.446       50.640    21304.219    10089.470     2564.416        3.860        1.698      207.682       44.128        0.045      340.280       14.188      858.154
05/24/2013  23:49:00     -272.048        0.944      -11.436      132.921      110.422       51.444    17668.078    12193.113     2646.524        5.332        1.625      272.049       43.527        0.026      340.274       14.179      858.170
05/24/2013  23:50:00     -100.311      -45.558       13.604      133.096      118.659       69.165    17714.554    14079.987     4783.820        2.444        1.829      110.172       68.212        0.383      340.250       14.140      858.176
05/24/2013  23:51:00     -294.309       11.565      -17.506      152.403       99.786       70.068    23226.566     9957.195     4909.560        6.257        1.905      294.536       55.233        0.035      340.264       14.161      858.159
05/24/2013  23:52:00     -559.674      -74.755      -27.955      197.427      139.600       88.548    38977.358    19488.261     7840.718       19.294        3.315      564.644       96.316        0.029      340.232       14.106      858.169
05/24/2013  23:53:00     -251.636      -61.555        5.239      150.979       80.179       65.621    22794.593     6428.703     4306.148        5.033        1.676      259.055       79.240        0.094      340.237       14.115      858.185
05/24/2013  23:54:00     -303.513      -66.357      -18.727      149.968      148.850       71.356    22490.361    22156.315     5091.684        7.330        2.487      310.682       73.895        0.057      340.233       14.109      858.197
05/24/2013  23:55:00     -300.863      -85.370      -12.659      186.235      161.226       75.969    34683.362    25993.849     5771.268        8.220        3.322      312.740       88.758        0.081      340.209       14.068      858.209
05/24/2013  23:56:00     -331.465      -15.141      -12.199      162.415       96.529       65.616    26378.758     9317.751     4305.427        7.512        2.000      331.810       69.487        0.044      340.198       14.049      858.228
05/24/2013  23:57:00     -225.007      -88.130        6.094      186.736      139.616       71.676    34870.406    19492.688     5137.452        5.896        2.975      241.650       87.811        0.132      340.162       13.990      858.229
05/24/2013  23:58:00     -395.824       44.823      -25.925      156.324      118.078       62.092    24437.072    13942.381     3855.420       10.079        2.112      398.354       57.849        0.021      340.180       14.019      858.221
05/24/2013  23:59:00     -429.278      -14.514      -42.703      212.066      165.945       68.843    44971.873    27537.855     4739.414       13.177        3.862      429.523       96.208        0.050      340.204       14.059      858.209
